Wetterdaten: Dienstag, 22.08.2017
Datum Zeit Temp. A. Pool Temp. Feuchte A. Luftdruck Regen Wind Richtung Richtung Sonnenschein ET UV Solar Taupunkt Windchill Windben Empfang
22.08.2017 00:00 12,4 C 21,7 C 84 % 1022,2 hPa 0,0 l/m 5,6 km/h (1 Bft) S-SO 167 0 min 0,000 mm 0,0 UV-I 0 W/m 9,8 C 12,4 C 9,7 km/h (2 Bft) 100,00 %
22.08.2017 00:02 12,4 C 21,7 C 84 % 1022,1 hPa 0,0 l/m 5,4 km/h (1 Bft) S 181 0 min 0,000 mm 0,0 UV-I 0 W/m 9,8 C 12,4 C 8,0 km/h (2 Bft) 100,00 %
22.08.2017 00:04 12,4 C 21,7 C 84 % 1022,1 hPa 0,0 l/m 4,3 km/h (1 Bft) S-SW 203 0 min 0,000 mm 0,0 UV-I 0 W/m 9,8 C 12,4 C 6,4 km/h (2 Bft) 100,00 %
22.08.2017 00:06 12,4 C 21,7 C 85 % 1022,1 hPa 0,0 l/m 4,5 km/h (1 Bft) S-SW 195 0 min 0,000 mm 0,0 UV-I 0 W/m 9,9 C 12,4 C 6,4 km/h (2 Bft) 97,87 %
22.08.2017 00:10 12,3 C 21,7 C 85 % 1022,1 hPa 0,0 l/m 4,8 km/h (1 Bft) S-SW 203 0 min 0,000 mm 0,0 UV-I 0 W/m 9,9 C 12,3 C 8,0 km/h (2 Bft) 100,00 %
22.08.2017 00:12 12,3 C 21,7 C 85 % 1022,1 hPa 0,0 l/m 5,1 km/h (1 Bft) S-SW 198 0 min 0,000 mm 0,0 UV-I 0 W/m 9,9 C 12,3 C 8,0 km/h (2 Bft) 100,00 %
22.08.2017 00:14 12,3 C 21,7 C 85 % 1022,2 hPa 0,0 l/m 4,0 km/h (1 Bft) S-SW 198 0 min 0,000 mm 0,0 UV-I 0 W/m 9,9 C 12,3 C 8,0 km/h (2 Bft) 100,00 %
22.08.2017 00:16 12,3 C 21,7 C 85 % 1022,2 hPa 0,0 l/m 4,9 km/h (1 Bft) S 191 0 min 0,000 mm 0,0 UV-I 0 W/m 9,9 C 12,3 C 9,7 km/h (2 Bft) 98,00 %
22.08.2017 00:18 12,2 C 21,7 C 85 % 1022,1 hPa 0,0 l/m 4,3 km/h (1 Bft) S 173 0 min 0,000 mm 0,0 UV-I 0 W/m 9,8 C 12,2 C 8,0 km/h (2 Bft) 100,00 %
22.08.2017 00:20 12,2 C 21,7 C 85 % 1022,2 hPa 0,0 l/m 4,7 km/h (1 Bft) S-SW 207 0 min 0,000 mm 0,0 UV-I 0 W/m 9,8 C 12,2 C 8,0 km/h (2 Bft) 100,00 %
22.08.2017 00:22 12,2 C 21,1 C 85 % 1022,2 hPa 0,0 l/m 4,7 km/h (1 Bft) S-SW 202 0 min 0,000 mm 0,0 UV-I 0 W/m 9,8 C 12,2 C 8,0 km/h (2 Bft) 100,00 %
22.08.2017 00:24 12,2 C 21,7 C 85 % 1022,2 hPa 0,0 l/m 4,1 km/h (1 Bft) S-SW 202 0 min 0,000 mm 0,0 UV-I 0 W/m 9,8 C 12,2 C 8,0 km/h (2 Bft) 100,00 %
22.08.2017 00:26 12,2 C 21,7 C 85 % 1022,2 hPa 0,0 l/m 4,7 km/h (1 Bft) S-SW 198 0 min 0,000 mm 0,0 UV-I 0 W/m 9,8 C 12,2 C 8,0 km/h (2 Bft) 100,00 %
22.08.2017 00:28 12,1 C 21,1 C 85 % 1022,2 hPa 0,0 l/m 4,2 km/h (1 Bft) SW 219 0 min 0,000 mm 0,0 UV-I 0 W/m 9,7 C 12,1 C 8,0 km/h (2 Bft) 98,00 %
22.08.2017 00:30 12,1 C 21,1 C 85 % 1022,2 hPa 0,0 l/m 4,0 km/h (1 Bft) S-SW 211 0 min 0,000 mm 0,0 UV-I 0 W/m 9,7 C 12,1 C 6,4 km/h (2 Bft) 100,00 %
22.08.2017 00:32 12,1 C 21,1 C 85 % 1022,1 hPa 0,0 l/m 3,9 km/h (1 Bft) S-SW 193 0 min 0,000 mm 0,0 UV-I 0 W/m 9,7 C 12,1 C 8,0 km/h (2 Bft) 95,74 %
22.08.2017 00:34 12,1 C 21,7 C 86 % 1022,2 hPa 0,0 l/m 4,8 km/h (1 Bft) S-SW 200 0 min 0,000 mm 0,0 UV-I 0 W/m 9,8 C 12,1 C 6,4 km/h (2 Bft) 98,11 %
22.08.2017 00:36 12,1 C 21,1 C 86 % 1022,1 hPa 0,0 l/m 5,0 km/h (1 Bft) S-SW 200 0 min 0,000 mm 0,0 UV-I 0 W/m 9,8 C 12,1 C 6,4 km/h (2 Bft) 94,00 %
22.08.2017 00:38 12,1 C 21,1 C 86 % 1022,2 hPa 0,0 l/m 6,3 km/h (2 Bft) S-SW 200 0 min 0,000 mm 0,0 UV-I 0 W/m 9,8 C 12,1 C 8,0 km/h (2 Bft) 97,37 %
22.08.2017 00:40 12,0 C 21,1 C 86 % 1022,2 hPa 0,0 l/m 6,9 km/h (2 Bft) S-SW 210 0 min 0,000 mm 0,0 UV-I 0 W/m 9,7 C 11,7 C 9,7 km/h (2 Bft) 98,00 %
22.08.2017 00:42 12,0 C 21,1 C 86 % 1022,2 hPa 0,0 l/m 6,3 km/h (2 Bft) S-SW 202 0 min 0,000 mm 0,0 UV-I 0 W/m 9,7 C 12,0 C 11,3 km/h (2 Bft) 98,11 %
22.08.2017 00:44 11,9 C 21,1 C 86 % 1022,1 hPa 0,0 l/m 6,8 km/h (2 Bft) SW 215 0 min 0,000 mm 0,0 UV-I 0 W/m 9,6 C 11,6 C 11,3 km/h (2 Bft) 97,37 %
22.08.2017 00:46 11,9 C 21,1 C 86 % 1022,2 hPa 0,0 l/m 6,9 km/h (2 Bft) S-SW 206 0 min 0,000 mm 0,0 UV-I 0 W/m 9,6 C 11,6 C 9,7 km/h (2 Bft) 98,00 %
22.08.2017 00:48 11,9 C 21,1 C 86 % 1022,1 hPa 0,0 l/m 5,7 km/h (1 Bft) S-SO 162 0 min 0,000 mm 0,0 UV-I 0 W/m 9,6 C 11,9 C 8,0 km/h (2 Bft) 97,56 %
22.08.2017 00:50 11,9 C 21,1 C 86 % 1022,1 hPa 0,0 l/m 6,5 km/h (2 Bft) S-SW 201 0 min 0,000 mm 0,0 UV-I 0 W/m 9,6 C 11,9 C 9,7 km/h (2 Bft) 96,23 %
22.08.2017 00:52 11,8 C 21,1 C 86 % 1022,1 hPa 0,0 l/m 5,1 km/h (1 Bft) S-SW 202 0 min 0,000 mm 0,0 UV-I 0 W/m 9,5 C 11,8 C 9,7 km/h (2 Bft) 97,73 %
22.08.2017 00:54 11,8 C 21,1 C 86 % 1022,0 hPa 0,0 l/m 4,8 km/h (1 Bft) S-SW 202 0 min 0,000 mm 0,0 UV-I 0 W/m 9,5 C 11,8 C 8,0 km/h (2 Bft) 98,00 %
22.08.2017 00:56 11,8 C 21,1 C 86 % 1022,0 hPa 0,0 l/m 5,4 km/h (1 Bft) S-SW 207 0 min 0,000 mm 0,0 UV-I 0 W/m 9,5 C 11,8 C 6,4 km/h (2 Bft) 97,92 %
22.08.2017 00:58 11,8 C 21,1 C 86 % 1022,0 hPa 0,0 l/m 6,0 km/h (2 Bft) S-SW 209 0 min 0,000 mm 0,0 UV-I 0 W/m 9,5 C 11,8 C 8,0 km/h (2 Bft) 97,56 %
22.08.2017 01:00 11,8 C 21,1 C 86 % 1021,9 hPa 0,0 l/m 6,6 km/h (2 Bft) S-SW 205 0 min 0,000 mm 0,0 UV-I 0 W/m 9,5 C 11,7 C 11,3 km/h (2 Bft) 96,23 %
22.08.2017 01:02 11,7 C 21,1 C 86 % 1022,0 hPa 0,0 l/m 6,3 km/h (2 Bft) S-SW 205 0 min 0,000 mm 0,0 UV-I 0 W/m 9,4 C 11,7 C 9,7 km/h (2 Bft) 97,56 %
22.08.2017 01:04 11,7 C 21,1 C 86 % 1021,9 hPa 0,0 l/m 6,6 km/h (2 Bft) S-SW 211 0 min 0,000 mm 0,0 UV-I 0 W/m 9,4 C 11,6 C 9,7 km/h (2 Bft) 100,00 %
22.08.2017 01:06 11,7 C 21,1 C 86 % 1021,9 hPa 0,0 l/m 7,3 km/h (2 Bft) S-SW 199 0 min 0,000 mm 0,0 UV-I 0 W/m 9,4 C 11,1 C 9,7 km/h (2 Bft) 98,11 %
22.08.2017 01:08 11,7 C 21,1 C 86 % 1021,9 hPa 0,0 l/m 7,2 km/h (2 Bft) S-SW 203 0 min 0,000 mm 0,0 UV-I 0 W/m 9,4 C 11,2 C 9,7 km/h (2 Bft) 100,00 %
22.08.2017 01:10 11,6 C 21,1 C 86 % 1021,9 hPa 0,0 l/m 4,6 km/h (1 Bft) S-SW 195 0 min 0,000 mm 0,0 UV-I 0 W/m 9,3 C 11,6 C 8,0 km/h (2 Bft) 97,56 %
22.08.2017 01:12 11,6 C 21,1 C 86 % 1021,9 hPa 0,0 l/m 4,2 km/h (1 Bft) S 190 0 min 0,000 mm 0,0 UV-I 0 W/m 9,3 C 11,6 C 8,0 km/h (2 Bft) 96,61 %
22.08.2017 01:14 11,6 C 21,1 C 86 % 1021,8 hPa 0,0 l/m 5,1 km/h (1 Bft) SW 214 0 min 0,000 mm 0,0 UV-I 0 W/m 9,3 C 11,6 C 8,0 km/h (2 Bft) 97,92 %
22.08.2017 01:16 11,6 C 21,1 C 86 % 1021,9 hPa 0,0 l/m 4,6 km/h (1 Bft) S-SW 209 0 min 0,000 mm 0,0 UV-I 0 W/m 9,3 C 11,6 C 8,0 km/h (2 Bft) 100,00 %
22.08.2017 01:18 11,6 C 21,1 C 86 % 1021,8 hPa 0,0 l/m 4,6 km/h (1 Bft) S-SW 206 0 min 0,000 mm 0,0 UV-I 0 W/m 9,3 C 11,6 C 9,7 km/h (2 Bft) 100,00 %
22.08.2017 01:20 11,5 C 21,1 C 86 % 1021,8 hPa 0,0 l/m 4,5 km/h (1 Bft) S-SW 208 0 min 0,000 mm 0,0 UV-I 0 W/m 9,2 C 11,5 C 9,7 km/h (2 Bft) 100,00 %
22.08.2017 01:22 11,5 C 21,1 C 86 % 1021,9 hPa 0,0 l/m 4,4 km/h (1 Bft) S-SW 207 0 min 0,000 mm 0,0 UV-I 0 W/m 9,2 C 11,5 C 8,0 km/h (2 Bft) 100,00 %
22.08.2017 01:24 11,4 C 21,1 C 86 % 1021,8 hPa 0,0 l/m 3,8 km/h (1 Bft) S-SW 207 0 min 0,000 mm 0,0 UV-I 0 W/m 9,1 C 11,4 C 6,4 km/h (2 Bft) 100,00 %
22.08.2017 01:26 11,4 C 21,1 C 86 % 1021,8 hPa 0,0 l/m 3,7 km/h (1 Bft) S-SW 207 0 min 0,000 mm 0,0 UV-I 0 W/m 9,1 C 11,4 C 4,8 km/h (1 Bft) 98,00 %
22.08.2017 01:28 11,4 C 21,1 C 86 % 1021,8 hPa 0,0 l/m 4,2 km/h (1 Bft) S-SW 207 0 min 0,000 mm 0,0 UV-I 0 W/m 9,1 C 11,4 C 6,4 km/h (2 Bft) 100,00 %
22.08.2017 01:30 11,4 C 21,1 C 86 % 1021,8 hPa 0,0 l/m 5,8 km/h (2 Bft) S-SW 206 0 min 0,000 mm 0,0 UV-I 0 W/m 9,1 C 11,4 C 8,0 km/h (2 Bft) 100,00 %
22.08.2017 01:32 11,4 C 21,1 C 86 % 1021,8 hPa 0,0 l/m 3,7 km/h (1 Bft) S-SW 205 0 min 0,000 mm 0,0 UV-I 0 W/m 9,1 C 11,4 C 6,4 km/h (2 Bft) 100,00 %
22.08.2017 01:34 11,3 C 21,1 C 86 % 1021,7 hPa 0,0 l/m 3,9 km/h (1 Bft) S-SW 204 0 min 0,000 mm 0,0 UV-I 0 W/m 9,0 C 11,3 C 6,4 km/h (2 Bft) 100,00 %
22.08.2017 01:36 11,3 C 21,1 C 86 % 1021,7 hPa 0,0 l/m 3,0 km/h (1 Bft) S-SW 204 0 min 0,000 mm 0,0 UV-I 0 W/m 9,0 C 11,3 C 4,8 km/h (1 Bft) 100,00 %
22.08.2017 01:38 11,3 C 21,1 C 86 % 1021,7 hPa 0,0 l/m 3,0 km/h (1 Bft) S-SW 204 0 min 0,000 mm 0,0 UV-I 0 W/m 9,0 C 11,3 C 6,4 km/h (2 Bft) 100,00 %
22.08.2017 01:40 11,3 C 21,1 C 86 % 1021,7 hPa 0,0 l/m 3,2 km/h (1 Bft) S-SW 204 0 min 0,000 mm 0,0 UV-I 0 W/m 9,0 C 11,3 C 4,8 km/h (1 Bft) 100,00 %
22.08.2017 01:42 11,3 C 21,1 C 86 % 1021,7 hPa 0,0 l/m 3,2 km/h (1 Bft) S-SW 204 0 min 0,000 mm 0,0 UV-I 0 W/m 9,0 C 11,3 C 6,4 km/h (2 Bft) 98,00 %
22.08.2017 01:44 11,2 C 21,1 C 87 % 1021,7 hPa 0,0 l/m 4,6 km/h (1 Bft) S-SW 204 0 min 0,000 mm 0,0 UV-I 0 W/m 9,1 C 11,2 C 6,4 km/h (2 Bft) 100,00 %
22.08.2017 01:46 11,2 C 21,1 C 87 % 1021,6 hPa 0,0 l/m 4,0 km/h (1 Bft) S-SW 204 0 min 0,000 mm 0,0 UV-I 0 W/m 9,1 C 11,2 C 4,8 km/h (1 Bft) 100,00 %
22.08.2017 01:48 11,2 C 21,1 C 87 % 1021,6 hPa 0,0 l/m 4,8 km/h (1 Bft) S-SW 204 0 min 0,000 mm 0,0 UV-I 0 W/m 9,1 C 11,2 C 6,4 km/h (2 Bft) 100,00 %
22.08.2017 01:50 11,2 C 21,1 C 87 % 1021,6 hPa 0,0 l/m 3,5 km/h (1 Bft) S-SW 204 0 min 0,000 mm 0,0 UV-I 0 W/m 9,1 C 11,2 C 6,4 km/h (2 Bft) 100,00 %
22.08.2017 01:52 11,1 C 21,1 C 87 % 1021,5 hPa 0,0 l/m 5,4 km/h (1 Bft) S-SW 204 0 min 0,000 mm 0,0 UV-I 0 W/m 9,0 C 11,1 C 6,4 km/h (2 Bft) 97,87 %
22.08.2017 01:54 11,1 C 21,1 C 87 % 1021,5 hPa 0,0 l/m 5,4 km/h (1 Bft) S-SW 204 0 min 0,000 mm 0,0 UV-I 0 W/m 9,0 C 11,1 C 8,0 km/h (2 Bft) 100,00 %
22.08.2017 01:56 11,1 C 21,1 C 87 % 1021,5 hPa 0,0 l/m 5,7 km/h (1 Bft) S-SW 204 0 min 0,000 mm 0,0 UV-I 0 W/m 9,0 C 11,1 C 8,0 km/h (2 Bft) 97,87 %
22.08.2017 01:58 11,0 C 21,1 C 87 % 1021,5 hPa 0,0 l/m 4,6 km/h (1 Bft) S-SW 204 0 min 0,000 mm 0,0 UV-I 0 W/m 8,9 C 11,0 C 6,4 km/h (2 Bft) 100,00 %
22.08.2017 02:00 11,0 C 21,1 C 87 % 1021,5 hPa 0,0 l/m 3,2 km/h (1 Bft) S-SW 204 0 min 0,000 mm 0,0 UV-I 0 W/m 8,9 C 11,0 C 4,8 km/h (1 Bft) 100,00 %
22.08.2017 02:02 10,9 C 21,1 C 87 % 1021,5 hPa 0,0 l/m 2,9 km/h (1 Bft) S-SW 204 0 min 0,000 mm 0,0 UV-I 0 W/m 8,8 C 10,9 C 4,8 km/h (1 Bft) 98,15 %
22.08.2017 02:04 10,9 C 21,1 C 87 % 1021,4 hPa 0,0 l/m 2,7 km/h (1 Bft) S-SW 204 0 min 0,000 mm 0,0 UV-I 0 W/m 8,8 C 10,9 C 4,8 km/h (1 Bft) 100,00 %
22.08.2017 02:06 10,9 C 21,1 C 87 % 1021,4 hPa 0,0 l/m 3,4 km/h (1 Bft) S-SW 204 0 min 0,000 mm 0,0 UV-I 0 W/m 8,8 C 10,9 C 4,8 km/h (1 Bft) 100,00 %
22.08.2017 02:08 10,9 C 21,1 C 88 % 1021,4 hPa 0,0 l/m 4,4 km/h (1 Bft) S-SW 196 0 min 0,000 mm 0,0 UV-I 0 W/m 9,0 C 10,9 C 6,4 km/h (2 Bft) 100,00 %
22.08.2017 02:10 10,9 C 21,1 C 88 % 1021,4 hPa 0,0 l/m 3,2 km/h (1 Bft) S-SW 196 0 min 0,000 mm 0,0 UV-I 0 W/m 9,0 C 10,9 C 4,8 km/h (1 Bft) 98,21 %
22.08.2017 02:12 10,8 C 21,1 C 88 % 1021,5 hPa 0,0 l/m 4,2 km/h (1 Bft) S-SW 196 0 min 0,000 mm 0,0 UV-I 0 W/m 8,9 C 10,8 C 4,8 km/h (1 Bft) 97,37 %
22.08.2017 02:14 10,8 C 21,1 C 88 % 1021,5 hPa 0,0 l/m 4,5 km/h (1 Bft) S-SW 199 0 min 0,000 mm 0,0 UV-I 0 W/m 8,9 C 10,8 C 8,0 km/h (2 Bft) 96,23 %
22.08.2017 02:16 10,8 C 21,1 C 88 % 1021,4 hPa 0,0 l/m 4,3 km/h (1 Bft) S-SW 199 0 min 0,000 mm 0,0 UV-I 0 W/m 8,9 C 10,8 C 6,4 km/h (2 Bft) 96,08 %
22.08.2017 02:18 10,8 C 21,1 C 88 % 1021,4 hPa 0,0 l/m 4,2 km/h (1 Bft) S 186 0 min 0,000 mm 0,0 UV-I 0 W/m 8,9 C 10,8 C 6,4 km/h (2 Bft) 97,92 %
22.08.2017 02:20 10,8 C 21,1 C 88 % 1021,4 hPa 0,0 l/m 5,1 km/h (1 Bft) S-SW 209 0 min 0,000 mm 0,0 UV-I 0 W/m 8,9 C 10,8 C 8,0 km/h (2 Bft) 97,37 %
22.08.2017 02:22 10,8 C 21,1 C 88 % 1021,4 hPa 0,0 l/m 3,9 km/h (1 Bft) S-SW 198 0 min 0,000 mm 0,0 UV-I 0 W/m 8,9 C 10,8 C 6,4 km/h (2 Bft) 98,15 %
22.08.2017 02:24 10,8 C 21,1 C 88 % 1021,4 hPa 0,0 l/m 4,0 km/h (1 Bft) S-SW 198 0 min 0,000 mm 0,0 UV-I 0 W/m 8,9 C 10,8 C 6,4 km/h (2 Bft) 97,87 %
22.08.2017 02:26 10,8 C 21,1 C 88 % 1021,4 hPa 0,0 l/m 4,5 km/h (1 Bft) S-SW 198 0 min 0,000 mm 0,0 UV-I 0 W/m 8,9 C 10,8 C 8,0 km/h (2 Bft) 98,00 %
22.08.2017 02:28 10,8 C 21,1 C 88 % 1021,4 hPa 0,0 l/m 3,3 km/h (1 Bft) S-SW 198 0 min 0,000 mm 0,0 UV-I 0 W/m 8,9 C 10,8 C 4,8 km/h (1 Bft) 97,22 %
22.08.2017 02:30 10,8 C 21,1 C 88 % 1021,4 hPa 0,0 l/m 4,0 km/h (1 Bft) S-SW 198 0 min 0,000 mm 0,0 UV-I 0 W/m 8,9 C 10,8 C 4,8 km/h (1 Bft) 96,23 %
22.08.2017 02:32 10,7 C 21,1 C 88 % 1021,4 hPa 0,0 l/m 4,7 km/h (1 Bft) S-SW 200 0 min 0,000 mm 0,0 UV-I 0 W/m 8,8 C 10,7 C 8,0 km/h (2 Bft) 95,00 %
22.08.2017 02:34 10,7 C 21,1 C 88 % 1021,4 hPa 0,0 l/m 3,3 km/h (1 Bft) S-SW 200 0 min 0,000 mm 0,0 UV-I 0 W/m 8,8 C 10,7 C 6,4 km/h (2 Bft) 95,12 %
22.08.2017 02:36 10,7 C 21,1 C 88 % 1021,4 hPa 0,0 l/m 3,6 km/h (1 Bft) S-SW 200 0 min 0,000 mm 0,0 UV-I 0 W/m 8,8 C 10,7 C 4,8 km/h (1 Bft) 93,85 %
22.08.2017 02:38 10,7 C 21,1 C 88 % 1021,4 hPa 0,0 l/m 3,1 km/h (1 Bft) S-SW 200 0 min 0,000 mm 0,0 UV-I 0 W/m 8,8 C 10,7 C 4,8 km/h (1 Bft) 96,15 %
22.08.2017 02:40 10,7 C 21,1 C 88 % 1021,4 hPa 0,0 l/m 4,2 km/h (1 Bft) S-SW 200 0 min 0,000 mm 0,0 UV-I 0 W/m 8,8 C 10,7 C 4,8 km/h (1 Bft) 95,16 %
22.08.2017 02:42 10,7 C 21,1 C 88 % 1021,4 hPa 0,0 l/m 4,5 km/h (1 Bft) S-SW 200 0 min 0,000 mm 0,0 UV-I 0 W/m 8,8 C 10,7 C 6,4 km/h (2 Bft) 95,74 %
22.08.2017 02:44 10,7 C 21,1 C 88 % 1021,5 hPa 0,0 l/m 6,0 km/h (2 Bft) S-SW 200 0 min 0,000 mm 0,0 UV-I 0 W/m 8,8 C 10,7 C 8,0 km/h (2 Bft) 93,62 %
22.08.2017 02:46 10,7 C 21,1 C 88 % 1021,5 hPa 0,0 l/m 6,4 km/h (2 Bft) S-SW 195 0 min 0,000 mm 0,0 UV-I 0 W/m 8,8 C 10,7 C 11,3 km/h (2 Bft) 92,68 %
22.08.2017 02:48 10,7 C 21,1 C 88 % 1021,4 hPa 0,0 l/m 6,1 km/h (2 Bft) SW 219 0 min 0,000 mm 0,0 UV-I 0 W/m 8,8 C 10,7 C 9,7 km/h (2 Bft) 96,00 %
22.08.2017 02:50 10,7 C 21,1 C 88 % 1021,4 hPa 0,0 l/m 5,9 km/h (2 Bft) S-SW 194 0 min 0,000 mm 0,0 UV-I 0 W/m 8,8 C 10,7 C 9,7 km/h (2 Bft) 90,57 %
22.08.2017 02:52 10,7 C 21,1 C 88 % 1021,4 hPa 0,0 l/m 5,9 km/h (2 Bft) SW 216 0 min 0,000 mm 0,0 UV-I 0 W/m 8,8 C 10,7 C 8,0 km/h (2 Bft) 95,12 %
22.08.2017 02:54 10,7 C 21,1 C 88 % 1021,4 hPa 0,0 l/m 4,5 km/h (1 Bft) S-SW 200 0 min 0,000 mm 0,0 UV-I 0 W/m 8,8 C 10,7 C 6,4 km/h (2 Bft) 96,23 %
22.08.2017 02:56 10,7 C 21,1 C 88 % 1021,4 hPa 0,0 l/m 5,8 km/h (2 Bft) S-SW 205 0 min 0,000 mm 0,0 UV-I 0 W/m 8,8 C 10,7 C 9,7 km/h (2 Bft) 94,74 %
22.08.2017 02:58 10,7 C 21,1 C 88 % 1021,4 hPa 0,0 l/m 6,1 km/h (2 Bft) S-SW 211 0 min 0,000 mm 0,0 UV-I 0 W/m 8,8 C 10,7 C 8,0 km/h (2 Bft) 96,00 %
22.08.2017 03:00 10,7 C 21,1 C 88 % 1021,4 hPa 0,0 l/m 5,2 km/h (1 Bft) S-SW 211 0 min 0,000 mm 0,0 UV-I 0 W/m 8,8 C 10,7 C 8,0 km/h (2 Bft) 96,00 %
22.08.2017 03:02 10,7 C 21,1 C 88 % 1021,4 hPa 0,0 l/m 5,6 km/h (1 Bft) S-SW 209 0 min 0,000 mm 0,0 UV-I 0 W/m 8,8 C 10,7 C 8,0 km/h (2 Bft) 98,00 %
22.08.2017 03:04 10,7 C 21,1 C 88 % 1021,4 hPa 0,0 l/m 5,4 km/h (1 Bft) S-SW 208 0 min 0,000 mm 0,0 UV-I 0 W/m 8,8 C 10,7 C 8,0 km/h (2 Bft) 97,22 %
22.08.2017 03:06 10,7 C 21,1 C 88 % 1021,4 hPa 0,0 l/m 4,5 km/h (1 Bft) S-SW 208 0 min 0,000 mm 0,0 UV-I 0 W/m 8,8 C 10,7 C 6,4 km/h (2 Bft) 100,00 %
22.08.2017 03:08 10,7 C 21,1 C 88 % 1021,4 hPa 0,0 l/m 5,3 km/h (1 Bft) S-SW 208 0 min 0,000 mm 0,0 UV-I 0 W/m 8,8 C 10,7 C 6,4 km/h (2 Bft) 100,00 %
22.08.2017 03:10 10,7 C 21,1 C 88 % 1021,4 hPa 0,0 l/m 4,8 km/h (1 Bft) S-SW 208 0 min 0,000 mm 0,0 UV-I 0 W/m 8,8 C 10,7 C 8,0 km/h (2 Bft) 96,00 %
22.08.2017 03:12 10,7 C 21,1 C 88 % 1021,4 hPa 0,0 l/m 3,1 km/h (1 Bft) S-SW 208 0 min 0,000 mm 0,0 UV-I 0 W/m 8,8 C 10,7 C 4,8 km/h (1 Bft) 100,00 %
22.08.2017 03:14 10,7 C 21,1 C 88 % 1021,4 hPa 0,0 l/m 3,5 km/h (1 Bft) S-SW 208 0 min 0,000 mm 0,0 UV-I 0 W/m 8,8 C 10,7 C 6,4 km/h (2 Bft) 100,00 %
22.08.2017 03:16 10,7 C 21,1 C 88 % 1021,4 hPa 0,0 l/m 3,3 km/h (1 Bft) S-SW 208 0 min 0,000 mm 0,0 UV-I 0 W/m 8,8 C 10,7 C 8,0 km/h (2 Bft) 100,00 %
22.08.2017 03:18 10,7 C 21,1 C 89 % 1021,5 hPa 0,0 l/m 4,5 km/h (1 Bft) S-SW 208 0 min 0,000 mm 0,0 UV-I 0 W/m 9,0 C 10,7 C 6,4 km/h (2 Bft) 100,00 %
22.08.2017 03:20 10,7 C 21,1 C 89 % 1021,5 hPa 0,0 l/m 3,7 km/h (1 Bft) S-SW 208 0 min 0,000 mm 0,0 UV-I 0 W/m 9,0 C 10,7 C 6,4 km/h (2 Bft) 100,00 %
22.08.2017 03:22 10,7 C 21,1 C 89 % 1021,5 hPa 0,0 l/m 3,4 km/h (1 Bft) S-SW 208 0 min 0,000 mm 0,0 UV-I 0 W/m 9,0 C 10,7 C 6,4 km/h (2 Bft) 98,11 %
22.08.2017 03:24 10,6 C 21,1 C 89 % 1021,5 hPa 0,0 l/m 4,0 km/h (1 Bft) S-SW 208 0 min 0,000 mm 0,0 UV-I 0 W/m 8,9 C 10,6 C 6,4 km/h (2 Bft) 97,37 %
22.08.2017 03:26 10,6 C 21,1 C 89 % 1021,4 hPa 0,0 l/m 4,4 km/h (1 Bft) S-SW 208 0 min 0,000 mm 0,0 UV-I 0 W/m 8,9 C 10,6 C 6,4 km/h (2 Bft) 100,00 %
22.08.2017 03:28 10,6 C 21,1 C 89 % 1021,4 hPa 0,0 l/m 3,3 km/h (1 Bft) S-SW 208 0 min 0,000 mm 0,0 UV-I 0 W/m 8,9 C 10,6 C 6,4 km/h (2 Bft) 100,00 %
22.08.2017 03:30 10,6 C 21,1 C 89 % 1021,4 hPa 0,0 l/m 3,4 km/h (1 Bft) S-SW 208 0 min 0,000 mm 0,0 UV-I 0 W/m 8,9 C 10,6 C 6,4 km/h (2 Bft) 100,00 %
22.08.2017 03:32 10,6 C 21,1 C 89 % 1021,4 hPa 0,0 l/m 3,6 km/h (1 Bft) S-SW 208 0 min 0,000 mm 0,0 UV-I 0 W/m 8,9 C 10,6 C 4,8 km/h (1 Bft) 100,00 %
22.08.2017 03:34 10,6 C 21,1 C 89 % 1021,4 hPa 0,0 l/m 3,0 km/h (1 Bft) S-SW 208 0 min 0,000 mm 0,0 UV-I 0 W/m 8,9 C 10,6 C 4,8 km/h (1 Bft) 100,00 %
22.08.2017 03:36 10,6 C 21,1 C 89 % 1021,4 hPa 0,0 l/m 1,4 km/h (1 Bft) S-SW 208 0 min 0,000 mm 0,0 UV-I 0 W/m 8,9 C 10,6 C 3,2 km/h (1 Bft) 100,00 %
22.08.2017 03:38 10,6 C 21,1 C 89 % 1021,5 hPa 0,0 l/m 2,2 km/h (1 Bft) S-SW 208 0 min 0,000 mm 0,0 UV-I 0 W/m 8,9 C 10,6 C 4,8 km/h (1 Bft) 100,00 %
22.08.2017 03:40 10,6 C 21,1 C 89 % 1021,5 hPa 0,0 l/m 3,9 km/h (1 Bft) S-SW 208 0 min 0,000 mm 0,0 UV-I 0 W/m 8,9 C 10,6 C 6,4 km/h (2 Bft) 100,00 %
22.08.2017 03:42 10,5 C 21,1 C 89 % 1021,5 hPa 0,0 l/m 3,1 km/h (1 Bft) S-SW 208 0 min 0,000 mm 0,0 UV-I 0 W/m 8,8 C 10,5 C 4,8 km/h (1 Bft) 100,00 %
22.08.2017 03:44 10,5 C 21,1 C 89 % 1021,5 hPa 0,0 l/m 3,6 km/h (1 Bft) S-SW 208 0 min 0,000 mm 0,0 UV-I 0 W/m 8,8 C 10,5 C 4,8 km/h (1 Bft) 98,00 %
22.08.2017 03:46 10,4 C 21,1 C 89 % 1021,5 hPa 0,0 l/m 3,2 km/h (1 Bft) S-SW 208 0 min 0,000 mm 0,0 UV-I 0 W/m 8,7 C 10,4 C 4,8 km/h (1 Bft) 100,00 %
22.08.2017 03:48 10,4 C 21,1 C 89 % 1021,5 hPa 0,0 l/m 3,0 km/h (1 Bft) S-SW 208 0 min 0,000 mm 0,0 UV-I 0 W/m 8,7 C 10,4 C 4,8 km/h (1 Bft) 100,00 %
22.08.2017 03:50 10,4 C 21,1 C 90 % 1021,5 hPa 0,0 l/m 2,9 km/h (1 Bft) S-SW 208 0 min 0,000 mm 0,0 UV-I 0 W/m 8,8 C 10,4 C 6,4 km/h (2 Bft) 98,00 %
22.08.2017 03:52 10,4 C 21,1 C 89 % 1021,5 hPa 0,0 l/m 3,1 km/h (1 Bft) S-SW 208 0 min 0,000 mm 0,0 UV-I 0 W/m 8,7 C 10,4 C 4,8 km/h (1 Bft) 100,00 %
22.08.2017 03:54 10,3 C 21,1 C 90 % 1021,6 hPa 0,0 l/m 3,4 km/h (1 Bft) S-SW 208 0 min 0,000 mm 0,0 UV-I 0 W/m 8,7 C 10,3 C 4,8 km/h (1 Bft) 100,00 %
22.08.2017 03:56 10,3 C 21,1 C 90 % 1021,6 hPa 0,0 l/m 2,7 km/h (1 Bft) S-SW 208 0 min 0,000 mm 0,0 UV-I 0 W/m 8,7 C 10,3 C 4,8 km/h (1 Bft) 100,00 %
22.08.2017 03:58 10,3 C 21,1 C 90 % 1021,5 hPa 0,0 l/m 2,2 km/h (1 Bft) S-SW 208 0 min 0,000 mm 0,0 UV-I 0 W/m 8,7 C 10,3 C 4,8 km/h (1 Bft) 97,87 %
22.08.2017 04:00 10,3 C 21,1 C 90 % 1021,5 hPa 0,0 l/m 0,2 km/h (0 Bft) S-SW 208 0 min 0,000 mm 0,0 UV-I 0 W/m 8,7 C 10,3 C 1,6 km/h (1 Bft) 98,00 %
22.08.2017 04:02 10,2 C 21,1 C 90 % 1021,6 hPa 0,0 l/m 0,2 km/h (0 Bft) S-SW 208 0 min 0,000 mm 0,0 UV-I 0 W/m 8,6 C 10,2 C 1,6 km/h (1 Bft) 100,00 %
22.08.2017 04:04 10,2 C 21,1 C 90 % 1021,6 hPa 0,0 l/m 0,0 km/h (0 Bft) S-SW 208 0 min 0,000 mm 0,0 UV-I 0 W/m 8,6 C 10,2 C 0,0 km/h (0 Bft) 100,00 %
22.08.2017 04:06 10,1 C 21,1 C 90 % 1021,6 hPa 0,0 l/m 0,0 km/h (0 Bft) S-SW 208 0 min 0,000 mm 0,0 UV-I 0 W/m 8,5 C 10,1 C 0,0 km/h (0 Bft) 100,00 %
22.08.2017 04:08 10,0 C 21,1 C 90 % 1021,6 hPa 0,0 l/m 0,0 km/h (0 Bft) S-SW 208 0 min 0,000 mm 0,0 UV-I 0 W/m 8,4 C 10,0 C 0,0 km/h (0 Bft) 100,00 %
22.08.2017 04:10 9,9 C 21,1 C 90 % 1021,6 hPa 0,0 l/m 0,0 km/h (0 Bft) S-SW 208 0 min 0,000 mm 0,0 UV-I 0 W/m 8,3 C 9,9 C 0,0 km/h (0 Bft) 97,87 %
22.08.2017 04:12 9,9 C 21,1 C 91 % 1021,6 hPa 0,0 l/m 0,0 km/h (0 Bft) S-SW 208 0 min 0,000 mm 0,0 UV-I 0 W/m 8,5 C 9,9 C 0,0 km/h (0 Bft) 100,00 %
22.08.2017 04:14 9,9 C 21,1 C 91 % 1021,6 hPa 0,0 l/m 0,5 km/h (0 Bft) S-SW 208 0 min 0,000 mm 0,0 UV-I 0 W/m 8,5 C 9,9 C 3,2 km/h (1 Bft) 100,00 %
22.08.2017 04:16 9,8 C 21,1 C 91 % 1021,6 hPa 0,0 l/m 0,4 km/h (0 Bft) S-SW 208 0 min 0,000 mm 0,0 UV-I 0 W/m 8,4 C 9,8 C 1,6 km/h (1 Bft) 100,00 %
22.08.2017 04:18 9,8 C 21,1 C 91 % 1021,6 hPa 0,0 l/m 0,0 km/h (0 Bft) S-SW 208 0 min 0,000 mm 0,0 UV-I 0 W/m 8,4 C 9,8 C 0,0 km/h (0 Bft) 100,00 %
22.08.2017 04:20 9,8 C 21,1 C 91 % 1021,6 hPa 0,0 l/m 0,0 km/h (0 Bft) S-SW 208 0 min 0,000 mm 0,0 UV-I 0 W/m 8,4 C 9,8 C 0,0 km/h (0 Bft) 100,00 %
22.08.2017 04:22 9,7 C 21,1 C 91 % 1021,6 hPa 0,0 l/m 0,0 km/h (0 Bft) S-SW 208 0 min 0,000 mm 0,0 UV-I 0 W/m 8,3 C 9,7 C 0,0 km/h (0 Bft) 100,00 %
22.08.2017 04:24 9,6 C 21,1 C 91 % 1021,6 hPa 0,0 l/m 0,0 km/h (0 Bft) S-SW 208 0 min 0,000 mm 0,0 UV-I 0 W/m 8,2 C 9,6 C 0,0 km/h (0 Bft) 100,00 %
22.08.2017 04:26 9,6 C 20,6 C 91 % 1021,6 hPa 0,0 l/m 0,0 km/h (0 Bft) S-SW 208 0 min 0,000 mm 0,0 UV-I 0 W/m 8,2 C 9,6 C 0,0 km/h (0 Bft) 100,00 %
22.08.2017 04:28 9,5 C 20,6 C 91 % 1021,6 hPa 0,0 l/m 0,0 km/h (0 Bft) S-SW 208 0 min 0,000 mm 0,0 UV-I 0 W/m 8,1 C 9,5 C 0,0 km/h (0 Bft) 100,00 %
22.08.2017 04:30 9,4 C 20,6 C 92 % 1021,6 hPa 0,0 l/m 0,0 km/h (0 Bft) S-SW 208 0 min 0,000 mm 0,0 UV-I 0 W/m 8,2 C 9,4 C 0,0 km/h (0 Bft) 95,74 %
22.08.2017 04:32 9,4 C 20,6 C 92 % 1021,6 hPa 0,0 l/m 0,0 km/h (0 Bft) S-SW 208 0 min 0,000 mm 0,0 UV-I 0 W/m 8,2 C 9,4 C 0,0 km/h (0 Bft) 100,00 %
22.08.2017 04:34 9,3 C 20,6 C 92 % 1021,6 hPa 0,0 l/m 0,0 km/h (0 Bft) S-SW 208 0 min 0,000 mm 0,0 UV-I 0 W/m 8,1 C 9,3 C 0,0 km/h (0 Bft) 100,00 %
22.08.2017 04:36 9,3 C 20,6 C 92 % 1021,6 hPa 0,0 l/m 0,0 km/h (0 Bft) S-SW 208 0 min 0,000 mm 0,0 UV-I 0 W/m 8,1 C 9,3 C 0,0 km/h (0 Bft) 98,00 %
22.08.2017 04:38 9,3 C 20,6 C 92 % 1021,6 hPa 0,0 l/m 0,0 km/h (0 Bft) S-SW 208 0 min 0,000 mm 0,0 UV-I 0 W/m 8,1 C 9,3 C 0,0 km/h (0 Bft) 97,87 %
22.08.2017 04:40 9,2 C 20,6 C 92 % 1021,6 hPa 0,0 l/m 0,0 km/h (0 Bft) S-SW 208 0 min 0,000 mm 0,0 UV-I 0 W/m 8,0 C 9,2 C 0,0 km/h (0 Bft) 97,87 %
22.08.2017 04:42 9,2 C 20,6 C 92 % 1021,5 hPa 0,0 l/m 0,1 km/h (0 Bft) S-SW 208 0 min 0,000 mm 0,0 UV-I 0 W/m 8,0 C 9,2 C 1,6 km/h (1 Bft) 95,74 %
22.08.2017 04:44 9,2 C 20,6 C 92 % 1021,5 hPa 0,0 l/m 0,0 km/h (0 Bft) S-SW 208 0 min 0,000 mm 0,0 UV-I 0 W/m 8,0 C 9,2 C 1,6 km/h (1 Bft) 98,00 %
22.08.2017 04:46 9,2 C 20,6 C 93 % 1021,5 hPa 0,0 l/m 0,0 km/h (0 Bft) S-SW 208 0 min 0,000 mm 0,0 UV-I 0 W/m 8,1 C 9,2 C 0,0 km/h (0 Bft) 97,87 %
22.08.2017 04:48 9,2 C 20,6 C 93 % 1021,5 hPa 0,0 l/m 0,3 km/h (0 Bft) S-SW 208 0 min 0,000 mm 0,0 UV-I 0 W/m 8,1 C 9,2 C 1,6 km/h (1 Bft) 97,37 %
22.08.2017 04:50 9,2 C 20,6 C 93 % 1021,5 hPa 0,0 l/m 0,2 km/h (0 Bft) S-SW 208 0 min 0,000 mm 0,0 UV-I 0 W/m 8,1 C 9,2 C 1,6 km/h (1 Bft) 96,23 %
22.08.2017 04:52 9,2 C 20,6 C 93 % 1021,5 hPa 0,0 l/m 0,2 km/h (0 Bft) S-SW 208 0 min 0,000 mm 0,0 UV-I 0 W/m 8,1 C 9,2 C 1,6 km/h (1 Bft) 97,56 %
22.08.2017 04:54 9,2 C 20,6 C 93 % 1021,5 hPa 0,0 l/m 0,2 km/h (0 Bft) S-SW 208 0 min 0,000 mm 0,0 UV-I 0 W/m 8,1 C 9,2 C 1,6 km/h (1 Bft) 94,34 %
22.08.2017 04:56 9,2 C 20,6 C 93 % 1021,5 hPa 0,0 l/m 0,6 km/h (0 Bft) S-SW 208 0 min 0,000 mm 0,0 UV-I 0 W/m 8,1 C 9,2 C 3,2 km/h (1 Bft) 97,87 %
22.08.2017 04:58 9,1 C 20,6 C 93 % 1021,4 hPa 0,0 l/m 1,1 km/h (1 Bft) S-SW 208 0 min 0,000 mm 0,0 UV-I 0 W/m 8,0 C 9,1 C 3,2 km/h (1 Bft) 97,87 %
22.08.2017 05:00 9,1 C 20,6 C 93 % 1021,5 hPa 0,0 l/m 0,5 km/h (0 Bft) S-SW 208 0 min 0,000 mm 0,0 UV-I 0 W/m 8,0 C 9,1 C 1,6 km/h (1 Bft) 97,37 %
22.08.2017 05:02 9,1 C 20,6 C 93 % 1021,4 hPa 0,0 l/m 0,2 km/h (0 Bft) S-SW 208 0 min 0,000 mm 0,0 UV-I 0 W/m 8,0 C 9,1 C 1,6 km/h (1 Bft) 96,23 %
22.08.2017 05:04 9,1 C 20,6 C 93 % 1021,4 hPa 0,0 l/m 0,8 km/h (0 Bft) S-SW 208 0 min 0,000 mm 0,0 UV-I 0 W/m 8,0 C 9,1 C 3,2 km/h (1 Bft) 97,87 %
22.08.2017 05:06 9,1 C 20,6 C 93 % 1021,4 hPa 0,0 l/m 0,8 km/h (0 Bft) S-SW 208 0 min 0,000 mm 0,0 UV-I 0 W/m 8,0 C 9,1 C 3,2 km/h (1 Bft) 94,00 %
22.08.2017 05:08 9,0 C 20,6 C 93 % 1021,4 hPa 0,0 l/m 0,5 km/h (0 Bft) S-SW 208 0 min 0,000 mm 0,0 UV-I 0 W/m 7,9 C 9,0 C 1,6 km/h (1 Bft) 100,00 %
22.08.2017 05:10 8,9 C 20,6 C 93 % 1021,3 hPa 0,0 l/m 0,2 km/h (0 Bft) S-SW 208 0 min 0,000 mm 0,0 UV-I 0 W/m 7,8 C 8,9 C 1,6 km/h (1 Bft) 96,77 %
22.08.2017 05:12 8,9 C 20,6 C 93 % 1021,4 hPa 0,0 l/m 0,7 km/h (0 Bft) S-SW 208 0 min 0,000 mm 0,0 UV-I 0 W/m 7,8 C 8,9 C 3,2 km/h (1 Bft) 98,00 %
22.08.2017 05:14 8,9 C 20,6 C 93 % 1021,4 hPa 0,0 l/m 1,3 km/h (1 Bft) S-SW 208 0 min 0,000 mm 0,0 UV-I 0 W/m 7,8 C 8,9 C 3,2 km/h (1 Bft) 98,11 %
22.08.2017 05:16 8,9 C 20,6 C 93 % 1021,4 hPa 0,0 l/m 1,4 km/h (1 Bft) S-SW 208 0 min 0,000 mm 0,0 UV-I 0 W/m 7,8 C 8,9 C 3,2 km/h (1 Bft) 91,43 %
22.08.2017 05:18 8,9 C 20,6 C 93 % 1021,4 hPa 0,0 l/m 1,7 km/h (1 Bft) S-SW 208 0 min 0,000 mm 0,0 UV-I 0 W/m 7,8 C 8,9 C 3,2 km/h (1 Bft) 98,11 %
22.08.2017 05:20 8,9 C 20,6 C 93 % 1021,4 hPa 0,0 l/m 1,9 km/h (1 Bft) S-SW 208 0 min 0,000 mm 0,0 UV-I 0 W/m 7,8 C 8,9 C 3,2 km/h (1 Bft) 98,11 %
22.08.2017 05:22 8,9 C 20,6 C 93 % 1021,4 hPa 0,0 l/m 2,3 km/h (1 Bft) S-SW 208 0 min 0,000 mm 0,0 UV-I 0 W/m 7,8 C 8,9 C 3,2 km/h (1 Bft) 97,56 %
22.08.2017 05:24 8,8 C 20,6 C 93 % 1021,4 hPa 0,0 l/m 1,2 km/h (1 Bft) S-SW 208 0 min 0,000 mm 0,0 UV-I 0 W/m 7,7 C 8,8 C 3,2 km/h (1 Bft) 95,12 %
22.08.2017 05:26 8,8 C 20,6 C 93 % 1021,4 hPa 0,0 l/m 0,6 km/h (0 Bft) S-SW 208 0 min 0,000 mm 0,0 UV-I 0 W/m 7,7 C 8,8 C 1,6 km/h (1 Bft) 97,87 %
22.08.2017 05:28 8,8 C 20,6 C 93 % 1021,4 hPa 0,0 l/m 1,4 km/h (1 Bft) S-SW 208 0 min 0,000 mm 0,0 UV-I 0 W/m 7,7 C 8,8 C 3,2 km/h (1 Bft) 96,00 %
22.08.2017 05:30 8,8 C 20,6 C 93 % 1021,4 hPa 0,0 l/m 0,6 km/h (0 Bft) S-SW 208 0 min 0,000 mm 0,0 UV-I 0 W/m 7,7 C 8,8 C 1,6 km/h (1 Bft) 98,00 %
22.08.2017 05:32 8,8 C 20,6 C 93 % 1021,4 hPa 0,0 l/m 0,8 km/h (0 Bft) S-SW 208 0 min 0,000 mm 0,0 UV-I 0 W/m 7,7 C 8,8 C 1,6 km/h (1 Bft) 96,00 %
22.08.2017 05:34 8,7 C 20,6 C 93 % 1021,4 hPa 0,0 l/m 0,9 km/h (0 Bft) S-SW 208 0 min 0,000 mm 0,0 UV-I 0 W/m 7,6 C 8,7 C 1,6 km/h (1 Bft) 97,56 %
22.08.2017 05:36 8,7 C 20,6 C 93 % 1021,5 hPa 0,0 l/m 0,7 km/h (0 Bft) S-SW 208 0 min 0,000 mm 0,0 UV-I 0 W/m 7,6 C 8,7 C 1,6 km/h (1 Bft) 97,56 %
22.08.2017 05:38 8,7 C 20,6 C 94 % 1021,4 hPa 0,0 l/m 0,0 km/h (0 Bft) S-SW 208 0 min 0,000 mm 0,0 UV-I 0 W/m 7,8 C 8,7 C 1,6 km/h (1 Bft) 98,11 %
22.08.2017 05:40 8,8 C 20,6 C 94 % 1021,5 hPa 0,0 l/m 0,2 km/h (0 Bft) S-SW 208 0 min 0,000 mm 0,0 UV-I 0 W/m 7,9 C 8,8 C 1,6 km/h (1 Bft) 98,00 %
22.08.2017 05:42 8,8 C 20,6 C 94 % 1021,5 hPa 0,0 l/m 0,0 km/h (0 Bft) S-SW 208 0 min 0,000 mm 0,0 UV-I 0 W/m 7,9 C 8,8 C 0,0 km/h (0 Bft) 97,87 %
22.08.2017 05:44 8,8 C 20,6 C 94 % 1021,5 hPa 0,0 l/m 0,0 km/h (0 Bft) S-SW 208 0 min 0,000 mm 0,0 UV-I 0 W/m 7,9 C 8,8 C 0,0 km/h (0 Bft) 97,87 %
22.08.2017 05:46 8,7 C 20,6 C 93 % 1021,5 hPa 0,0 l/m 0,0 km/h (0 Bft) S-SW 208 0 min 0,000 mm 0,0 UV-I 0 W/m 7,6 C 8,7 C 0,0 km/h (0 Bft) 97,22 %
22.08.2017 05:48 8,7 C 20,6 C 93 % 1021,6 hPa 0,0 l/m 0,0 km/h (0 Bft) S-SW 208 0 min 0,000 mm 0,0 UV-I 0 W/m 7,6 C 8,7 C 0,0 km/h (0 Bft) 96,36 %
22.08.2017 05:50 8,7 C 20,6 C 93 % 1021,6 hPa 0,0 l/m 0,0 km/h (0 Bft) S-SW 208 0 min 0,000 mm 0,0 UV-I 0 W/m 7,6 C 8,7 C 0,0 km/h (0 Bft) 95,74 %
22.08.2017 05:52 8,6 C 20,6 C 93 % 1021,7 hPa 0,0 l/m 0,0 km/h (0 Bft) S-SW 208 0 min 0,000 mm 0,0 UV-I 0 W/m 7,5 C 8,6 C 0,0 km/h (0 Bft) 100,00 %
22.08.2017 05:54 8,6 C 20,6 C 93 % 1021,7 hPa 0,0 l/m 0,0 km/h (0 Bft) S-SW 208 0 min 0,000 mm 0,0 UV-I 0 W/m 7,5 C 8,6 C 0,0 km/h (0 Bft) 96,00 %
22.08.2017 05:56 8,5 C 20,6 C 94 % 1021,7 hPa 0,0 l/m 0,0 km/h (0 Bft) S-SW 208 0 min 0,000 mm 0,0 UV-I 2 W/m 7,6 C 8,5 C 0,0 km/h (0 Bft) 100,00 %
22.08.2017 05:58 8,4 C 20,6 C 94 % 1021,7 hPa 0,0 l/m 0,0 km/h (0 Bft) S-SW 208 0 min 0,000 mm 0,0 UV-I 5 W/m 7,5 C 8,4 C 0,0 km/h (0 Bft) 95,74 %
22.08.2017 06:00 8,4 C 20,6 C 94 % 1021,7 hPa 0,0 l/m 0,0 km/h (0 Bft) S-SW 208 0 min 0,000 mm 0,0 UV-I 5 W/m 7,5 C 8,4 C 0,0 km/h (0 Bft) 100,00 %
22.08.2017 06:02 8,4 C 20,6 C 94 % 1021,7 hPa 0,0 l/m 0,0 km/h (0 Bft) S-SW 208 0 min 0,000 mm 0,0 UV-I 5 W/m 7,5 C 8,4 C 0,0 km/h (0 Bft) 98,11 %
22.08.2017 06:04 8,4 C 20,6 C 94 % 1021,7 hPa 0,0 l/m 0,0 km/h (0 Bft) S-SW 208 0 min 0,000 mm 0,0 UV-I 5 W/m 7,5 C 8,4 C 0,0 km/h (0 Bft) 97,37 %
22.08.2017 06:06 8,4 C 20,6 C 94 % 1021,7 hPa 0,0 l/m 0,0 km/h (0 Bft) S-SW 208 0 min 0,000 mm 0,0 UV-I 5 W/m 7,5 C 8,4 C 0,0 km/h (0 Bft) 100,00 %
22.08.2017 06:08 8,4 C 20,6 C 94 % 1021,7 hPa 0,0 l/m 0,0 km/h (0 Bft) S-SW 208 0 min 0,000 mm 0,0 UV-I 5 W/m 7,5 C 8,4 C 0,0 km/h (0 Bft) 97,87 %
22.08.2017 06:10 8,4 C 20,6 C 94 % 1021,7 hPa 0,0 l/m 0,0 km/h (0 Bft) S-SW 208 0 min 0,000 mm 0,0 UV-I 7 W/m 7,5 C 8,4 C 0,0 km/h (0 Bft) 98,00 %
22.08.2017 06:12 8,3 C 20,6 C 94 % 1021,7 hPa 0,0 l/m 0,0 km/h (0 Bft) S-SW 208 0 min 0,000 mm 0,0 UV-I 7 W/m 7,4 C 8,3 C 0,0 km/h (0 Bft) 100,00 %
22.08.2017 06:14 8,3 C 20,6 C 94 % 1021,8 hPa 0,0 l/m 0,0 km/h (0 Bft) S-SW 208 0 min 0,000 mm 0,0 UV-I 10 W/m 7,4 C 8,3 C 0,0 km/h (0 Bft) 97,87 %
22.08.2017 06:16 8,3 C 20,6 C 94 % 1021,8 hPa 0,0 l/m 0,0 km/h (0 Bft) S-SW 208 0 min 0,000 mm 0,0 UV-I 12 W/m 7,4 C 8,3 C 0,0 km/h (0 Bft) 100,00 %
22.08.2017 06:18 8,3 C 20,6 C 94 % 1021,8 hPa 0,0 l/m 0,0 km/h (0 Bft) S-SW 208 0 min 0,000 mm 0,0 UV-I 12 W/m 7,4 C 8,3 C 0,0 km/h (0 Bft) 100,00 %
22.08.2017 06:20 8,3 C 20,6 C 94 % 1021,8 hPa 0,0 l/m 0,0 km/h (0 Bft) S-SW 208 2 min 0,000 mm 0,0 UV-I 15 W/m 7,4 C 8,3 C 0,0 km/h (0 Bft) 100,00 %
22.08.2017 06:22 8,3 C 20,6 C 94 % 1021,8 hPa 0,0 l/m 0,0 km/h (0 Bft) S-SW 208 2 min 0,000 mm 0,0 UV-I 17 W/m 7,4 C 8,3 C 0,0 km/h (0 Bft) 97,22 %
22.08.2017 06:24 8,3 C 20,6 C 94 % 1021,8 hPa 0,0 l/m 0,0 km/h (0 Bft) S-SW 208 2 min 0,000 mm 0,0 UV-I 19 W/m 7,4 C 8,3 C 0,0 km/h (0 Bft) 100,00 %
22.08.2017 06:26 8,3 C 20,6 C 94 % 1021,8 hPa 0,0 l/m 0,0 km/h (0 Bft) S-SW 208 2 min 0,000 mm 0,0 UV-I 22 W/m 7,4 C 8,3 C 0,0 km/h (0 Bft) 100,00 %
22.08.2017 06:28 8,3 C 20,6 C 94 % 1021,8 hPa 0,0 l/m 0,0 km/h (0 Bft) S-SW 208 2 min 0,000 mm 0,0 UV-I 25 W/m 7,4 C 8,3 C 0,0 km/h (0 Bft) 100,00 %
22.08.2017 06:30 8,3 C 20,6 C 94 % 1021,8 hPa 0,0 l/m 0,0 km/h (0 Bft) S-SW 208 2 min 0,000 mm 0,0 UV-I 27 W/m 7,4 C 8,3 C 0,0 km/h (0 Bft) 100,00 %
22.08.2017 06:32 8,2 C 20,6 C 94 % 1021,7 hPa 0,0 l/m 0,0 km/h (0 Bft) S-SW 208 2 min 0,000 mm 0,0 UV-I 29 W/m 7,3 C 8,2 C 0,0 km/h (0 Bft) 100,00 %
22.08.2017 06:34 8,2 C 20,6 C 94 % 1021,8 hPa 0,0 l/m 0,0 km/h (0 Bft) S-SW 208 0 min 0,000 mm 0,0 UV-I 31 W/m 7,3 C 8,2 C 0,0 km/h (0 Bft) 97,87 %
22.08.2017 06:36 8,3 C 20,6 C 94 % 1021,8 hPa 0,0 l/m 0,0 km/h (0 Bft) S-SW 208 0 min 0,000 mm 0,0 UV-I 33 W/m 7,4 C 8,3 C 0,0 km/h (0 Bft) 95,74 %
22.08.2017 06:38 8,3 C 20,6 C 95 % 1021,8 hPa 0,0 l/m 0,0 km/h (0 Bft) S-SW 208 0 min 0,000 mm 0,0 UV-I 35 W/m 7,5 C 8,3 C 0,0 km/h (0 Bft) 97,87 %
22.08.2017 06:40 8,4 C 20,6 C 95 % 1021,8 hPa 0,0 l/m 0,0 km/h (0 Bft) S-SW 208 0 min 0,000 mm 0,0 UV-I 40 W/m 7,6 C 8,4 C 0,0 km/h (0 Bft) 95,74 %
22.08.2017 06:42 8,4 C 20,6 C 95 % 1021,7 hPa 0,0 l/m 0,0 km/h (0 Bft) S-SW 208 0 min 0,000 mm 0,0 UV-I 42 W/m 7,6 C 8,4 C 0,0 km/h (0 Bft) 97,87 %
22.08.2017 06:44 8,4 C 20,6 C 94 % 1021,7 hPa 0,0 l/m 0,0 km/h (0 Bft) S-SW 208 0 min 0,000 mm 0,0 UV-I 46 W/m 7,5 C 8,4 C 0,0 km/h (0 Bft) 97,87 %
22.08.2017 06:46 8,4 C 20,6 C 94 % 1021,7 hPa 0,0 l/m 0,0 km/h (0 Bft) S-SW 208 0 min 0,000 mm 0,0 UV-I 49 W/m 7,5 C 8,4 C 0,0 km/h (0 Bft) 95,74 %
22.08.2017 06:48 8,4 C 20,6 C 94 % 1021,7 hPa 0,0 l/m 0,0 km/h (0 Bft) S-SW 208 0 min 0,000 mm 0,0 UV-I 52 W/m 7,5 C 8,4 C 0,0 km/h (0 Bft) 98,00 %
22.08.2017 06:50 8,4 C 20,6 C 94 % 1021,7 hPa 0,0 l/m 0,0 km/h (0 Bft) S-SW 208 0 min 0,000 mm 0,0 UV-I 55 W/m 7,5 C 8,4 C 0,0 km/h (0 Bft) 96,23 %
22.08.2017 06:52 8,4 C 20,6 C 94 % 1021,7 hPa 0,0 l/m 0,0 km/h (0 Bft) S-SW 208 0 min 0,000 mm 0,0 UV-I 59 W/m 7,5 C 8,4 C 0,0 km/h (0 Bft) 97,87 %
22.08.2017 06:54 8,4 C 20,6 C 95 % 1021,7 hPa 0,0 l/m 0,0 km/h (0 Bft) S-SW 208 0 min 0,000 mm 0,0 UV-I 60 W/m 7,6 C 8,4 C 0,0 km/h (0 Bft) 97,14 %
22.08.2017 06:56 8,5 C 20,6 C 95 % 1021,7 hPa 0,0 l/m 0,0 km/h (0 Bft) S-SW 208 0 min 0,000 mm 0,0 UV-I 66 W/m 7,7 C 8,5 C 0,0 km/h (0 Bft) 97,87 %
22.08.2017 06:58 8,6 C 20,6 C 95 % 1021,7 hPa 0,0 l/m 0,0 km/h (0 Bft) S-SW 208 2 min 0,000 mm 0,0 UV-I 71 W/m 7,8 C 8,6 C 0,0 km/h (0 Bft) 98,00 %
22.08.2017 07:00 8,7 C 20,6 C 95 % 1021,7 hPa 0,0 l/m 0,0 km/h (0 Bft) S-SW 208 2 min 0,025 mm 0,0 UV-I 74 W/m 7,9 C 8,7 C 0,0 km/h (0 Bft) 96,23 %
22.08.2017 07:02 8,7 C 20,6 C 95 % 1021,8 hPa 0,0 l/m 0,0 km/h (0 Bft) S-SW 208 2 min 0,000 mm 0,0 UV-I 77 W/m 7,9 C 8,7 C 0,0 km/h (0 Bft) 97,87 %
22.08.2017 07:04 8,7 C 20,6 C 95 % 1021,8 hPa 0,0 l/m 0,0 km/h (0 Bft) S-SW 208 2 min 0,000 mm 0,0 UV-I 83 W/m 7,9 C 8,7 C 0,0 km/h (0 Bft) 97,44 %
22.08.2017 07:06 8,8 C 20,6 C 94 % 1021,7 hPa 0,0 l/m 0,0 km/h (0 Bft) S-SW 208 2 min 0,000 mm 0,0 UV-I 89 W/m 7,9 C 8,8 C 1,6 km/h (1 Bft) 97,87 %
22.08.2017 07:08 8,9 C 20,6 C 94 % 1021,8 hPa 0,0 l/m 0,0 km/h (0 Bft) S-SW 208 2 min 0,000 mm 0,0 UV-I 93 W/m 8,0 C 8,9 C 0,0 km/h (0 Bft) 93,62 %
22.08.2017 07:10 8,9 C 20,6 C 94 % 1021,8 hPa 0,0 l/m 0,0 km/h (0 Bft) S-SW 208 2 min 0,000 mm 0,0 UV-I 102 W/m 8,0 C 8,9 C 0,0 km/h (0 Bft) 97,87 %
22.08.2017 07:12 8,9 C 20,6 C 94 % 1021,8 hPa 0,0 l/m 0,0 km/h (0 Bft) S-SW 208 2 min 0,000 mm 0,0 UV-I 110 W/m 8,0 C 8,9 C 0,0 km/h (0 Bft) 94,00 %
22.08.2017 07:14 9,1 C 20,6 C 94 % 1021,8 hPa 0,0 l/m 0,0 km/h (0 Bft) S-SW 208 2 min 0,000 mm 0,0 UV-I 118 W/m 8,2 C 9,1 C 1,6 km/h (1 Bft) 100,00 %
22.08.2017 07:16 9,1 C 20,6 C 94 % 1021,8 hPa 0,0 l/m 0,0 km/h (0 Bft) S-SW 208 2 min 0,000 mm 0,0 UV-I 125 W/m 8,2 C 9,1 C 0,0 km/h (0 Bft) 100,00 %
22.08.2017 07:18 9,2 C 20,6 C 94 % 1021,8 hPa 0,0 l/m 0,9 km/h (0 Bft) S-SW 208 2 min 0,000 mm 0,0 UV-I 129 W/m 8,3 C 9,2 C 3,2 km/h (1 Bft) 100,00 %
22.08.2017 07:20 9,3 C 20,6 C 94 % 1021,8 hPa 0,0 l/m 0,8 km/h (0 Bft) S-SW 208 2 min 0,000 mm 0,0 UV-I 136 W/m 8,4 C 9,3 C 3,2 km/h (1 Bft) 98,21 %
22.08.2017 07:22 9,5 C 20,6 C 94 % 1021,7 hPa 0,0 l/m 0,4 km/h (0 Bft) S-SW 208 2 min 0,000 mm 0,0 UV-I 139 W/m 8,6 C 9,5 C 1,6 km/h (1 Bft) 97,87 %
22.08.2017 07:24 9,6 C 20,6 C 94 % 1021,7 hPa 0,0 l/m 0,0 km/h (0 Bft) S-SW 208 2 min 0,000 mm 0,0 UV-I 143 W/m 8,7 C 9,6 C 0,0 km/h (0 Bft) 100,00 %
22.08.2017 07:26 9,7 C 20,6 C 93 % 1021,8 hPa 0,0 l/m 0,0 km/h (0 Bft) S-SW 208 2 min 0,000 mm 0,0 UV-I 149 W/m 8,6 C 9,7 C 0,0 km/h (0 Bft) 100,00 %
22.08.2017 07:28 9,8 C 20,6 C 93 % 1021,8 hPa 0,0 l/m 0,3 km/h (0 Bft) S-SW 208 2 min 0,000 mm 0,0 UV-I 155 W/m 8,7 C 9,8 C 1,6 km/h (1 Bft) 97,87 %
22.08.2017 07:30 9,9 C 20,6 C 93 % 1021,7 hPa 0,0 l/m 0,1 km/h (0 Bft) S-SW 208 2 min 0,000 mm 0,0 UV-I 160 W/m 8,8 C 9,9 C 1,6 km/h (1 Bft) 100,00 %
22.08.2017 07:32 10,1 C 20,6 C 93 % 1021,7 hPa 0,0 l/m 0,0 km/h (0 Bft) S-SW 208 2 min 0,000 mm 0,0 UV-I 163 W/m 9,0 C 10,1 C 0,0 km/h (0 Bft) 100,00 %
22.08.2017 07:34 10,3 C 20,6 C 93 % 1021,7 hPa 0,0 l/m 0,2 km/h (0 Bft) S-SW 208 2 min 0,000 mm 0,0 UV-I 169 W/m 9,2 C 10,3 C 1,6 km/h (1 Bft) 100,00 %
22.08.2017 07:36 10,3 C 20,6 C 92 % 1021,8 hPa 0,0 l/m 0,3 km/h (0 Bft) S-SW 208 2 min 0,000 mm 0,0 UV-I 175 W/m 9,1 C 10,3 C 3,2 km/h (1 Bft) 100,00 %
22.08.2017 07:38 10,4 C 20,6 C 92 % 1021,8 hPa 0,0 l/m 0,6 km/h (0 Bft) S-SW 208 2 min 0,000 mm 0,0 UV-I 183 W/m 9,2 C 10,4 C 1,6 km/h (1 Bft) 100,00 %
22.08.2017 07:40 10,6 C 20,6 C 92 % 1021,8 hPa 0,0 l/m 1,1 km/h (1 Bft) S-SW 208 2 min 0,000 mm 0,0 UV-I 190 W/m 9,4 C 10,6 C 3,2 km/h (1 Bft) 100,00 %
22.08.2017 07:42 10,7 C 20,6 C 91 % 1021,8 hPa 0,0 l/m 1,5 km/h (1 Bft) S-SW 208 2 min 0,000 mm 0,0 UV-I 194 W/m 9,3 C 10,7 C 3,2 km/h (1 Bft) 100,00 %
22.08.2017 07:44 10,8 C 20,6 C 91 % 1021,9 hPa 0,0 l/m 2,5 km/h (1 Bft) S-SW 208 2 min 0,000 mm 0,0 UV-I 198 W/m 9,4 C 10,8 C 4,8 km/h (1 Bft) 100,00 %
22.08.2017 07:46 10,8 C 20,6 C 91 % 1021,8 hPa 0,0 l/m 3,1 km/h (1 Bft) S-SW 208 2 min 0,000 mm 0,0 UV-I 199 W/m 9,4 C 10,8 C 4,8 km/h (1 Bft) 100,00 %
22.08.2017 07:48 10,8 C 20,6 C 90 % 1021,8 hPa 0,0 l/m 3,5 km/h (1 Bft) S-SW 208 2 min 0,000 mm 0,0 UV-I 200 W/m 9,2 C 10,8 C 4,8 km/h (1 Bft) 100,00 %
22.08.2017 07:50 10,8 C 20,6 C 91 % 1021,9 hPa 0,0 l/m 2,5 km/h (1 Bft) S-SW 208 2 min 0,000 mm 0,0 UV-I 195 W/m 9,4 C 10,8 C 3,2 km/h (1 Bft) 100,00 %
22.08.2017 07:52 10,9 C 20,6 C 91 % 1021,9 hPa 0,0 l/m 2,2 km/h (1 Bft) S-SW 208 2 min 0,000 mm 0,0 UV-I 195 W/m 9,5 C 10,9 C 3,2 km/h (1 Bft) 100,00 %
22.08.2017 07:54 11,0 C 20,6 C 90 % 1021,9 hPa 0,0 l/m 2,8 km/h (1 Bft) S-SW 208 2 min 0,000 mm 0,0 UV-I 211 W/m 9,4 C 11,0 C 4,8 km/h (1 Bft) 97,56 %
22.08.2017 07:56 11,1 C 20,6 C 89 % 1021,9 hPa 0,0 l/m 3,1 km/h (1 Bft) S-SW 208 2 min 0,000 mm 0,0 UV-I 217 W/m 9,4 C 11,1 C 6,4 km/h (2 Bft) 97,87 %
22.08.2017 07:58 11,2 C 20,6 C 90 % 1021,9 hPa 0,0 l/m 3,8 km/h (1 Bft) S-SW 208 2 min 0,000 mm 0,0 UV-I 223 W/m 9,6 C 11,2 C 6,4 km/h (2 Bft) 98,11 %
22.08.2017 08:00 11,3 C 20,6 C 89 % 1021,9 hPa 0,0 l/m 1,7 km/h (1 Bft) S-SW 208 2 min 0,077 mm 0,0 UV-I 229 W/m 9,6 C 11,3 C 3,2 km/h (1 Bft) 97,37 %
22.08.2017 08:02 11,4 C 20,6 C 89 % 1021,9 hPa 0,0 l/m 1,1 km/h (1 Bft) S-SW 208 2 min 0,000 mm 0,0 UV-I 234 W/m 9,7 C 11,4 C 3,2 km/h (1 Bft) 98,11 %
22.08.2017 08:04 11,5 C 20,6 C 89 % 1021,9 hPa 0,0 l/m 0,7 km/h (0 Bft) S-SW 208 2 min 0,000 mm 0,0 UV-I 240 W/m 9,8 C 11,5 C 3,2 km/h (1 Bft) 97,73 %
22.08.2017 08:06 11,7 C 20,6 C 89 % 1021,9 hPa 0,0 l/m 1,4 km/h (1 Bft) S-SW 208 2 min 0,000 mm 0,0 UV-I 246 W/m 9,9 C 11,7 C 3,2 km/h (1 Bft) 94,34 %
22.08.2017 08:08 11,8 C 20,6 C 89 % 1021,9 hPa 0,0 l/m 2,3 km/h (1 Bft) S-SW 208 2 min 0,000 mm 0,4 UV-I 251 W/m 10,0 C 11,8 C 4,8 km/h (1 Bft) 97,87 %
22.08.2017 08:10 11,8 C 20,6 C 89 % 1021,8 hPa 0,0 l/m 3,4 km/h (1 Bft) S-SW 213 2 min 0,000 mm 0,5 UV-I 252 W/m 10,0 C 11,8 C 4,8 km/h (1 Bft) 97,56 %
22.08.2017 08:12 11,9 C 20,6 C 88 % 1021,8 hPa 0,0 l/m 3,7 km/h (1 Bft) SW 224 2 min 0,000 mm 0,5 UV-I 262 W/m 10,0 C 11,9 C 6,4 km/h (2 Bft) 98,00 %
22.08.2017 08:14 12,0 C 20,6 C 88 % 1021,8 hPa 0,0 l/m 3,4 km/h (1 Bft) SW 225 2 min 0,000 mm 0,5 UV-I 269 W/m 10,1 C 12,0 C 6,4 km/h (2 Bft) 96,23 %
22.08.2017 08:16 12,1 C 20,6 C 89 % 1021,8 hPa 0,0 l/m 2,5 km/h (1 Bft) SW 225 2 min 0,000 mm 0,5 UV-I 274 W/m 10,3 C 12,1 C 4,8 km/h (1 Bft) 95,45 %
22.08.2017 08:18 12,2 C 20,6 C 88 % 1021,8 hPa 0,0 l/m 4,0 km/h (1 Bft) SW 225 2 min 0,000 mm 0,5 UV-I 271 W/m 10,3 C 12,2 C 4,8 km/h (1 Bft) 94,87 %
22.08.2017 08:20 12,2 C 20,6 C 87 % 1021,8 hPa 0,0 l/m 1,9 km/h (1 Bft) SW 225 2 min 0,000 mm 0,6 UV-I 276 W/m 10,1 C 12,2 C 4,8 km/h (1 Bft) 98,00 %
22.08.2017 08:22 12,3 C 20,6 C 88 % 1021,8 hPa 0,0 l/m 2,2 km/h (1 Bft) SW 225 2 min 0,000 mm 0,6 UV-I 285 W/m 10,4 C 12,3 C 4,8 km/h (1 Bft) 97,87 %
22.08.2017 08:24 12,4 C 20,6 C 87 % 1021,7 hPa 0,0 l/m 1,5 km/h (1 Bft) SW 225 2 min 0,000 mm 0,6 UV-I 284 W/m 10,3 C 12,4 C 3,2 km/h (1 Bft) 97,87 %
22.08.2017 08:26 12,5 C 20,6 C 87 % 1021,7 hPa 0,0 l/m 3,1 km/h (1 Bft) SW 225 2 min 0,000 mm 0,6 UV-I 290 W/m 10,4 C 12,5 C 4,8 km/h (1 Bft) 97,87 %
22.08.2017 08:28 12,6 C 20,6 C 87 % 1021,7 hPa 0,0 l/m 2,7 km/h (1 Bft) SW 225 2 min 0,000 mm 0,7 UV-I 298 W/m 10,5 C 12,6 C 6,4 km/h (2 Bft) 98,11 %
22.08.2017 08:30 12,7 C 20,6 C 86 % 1021,7 hPa 0,0 l/m 4,1 km/h (1 Bft) SW 226 2 min 0,000 mm 0,7 UV-I 304 W/m 10,4 C 12,7 C 6,4 km/h (2 Bft) 92,68 %
22.08.2017 08:32 12,8 C 20,6 C 86 % 1021,6 hPa 0,0 l/m 4,1 km/h (1 Bft) W-SW 250 2 min 0,000 mm 0,7 UV-I 312 W/m 10,5 C 12,8 C 6,4 km/h (2 Bft) 96,00 %
22.08.2017 08:34 12,9 C 20,6 C 86 % 1021,7 hPa 0,0 l/m 3,7 km/h (1 Bft) W-SW 247 2 min 0,000 mm 0,7 UV-I 318 W/m 10,6 C 12,9 C 6,4 km/h (2 Bft) 96,00 %
22.08.2017 08:36 13,0 C 20,6 C 85 % 1021,7 hPa 0,0 l/m 3,7 km/h (1 Bft) SW 229 2 min 0,000 mm 0,8 UV-I 324 W/m 10,5 C 13,0 C 6,4 km/h (2 Bft) 95,74 %
22.08.2017 08:38 13,2 C 20,6 C 85 % 1021,6 hPa 0,0 l/m 3,5 km/h (1 Bft) SW 229 2 min 0,000 mm 0,8 UV-I 330 W/m 10,7 C 13,2 C 6,4 km/h (2 Bft) 94,74 %
22.08.2017 08:40 13,2 C 20,6 C 84 % 1021,6 hPa 0,0 l/m 3,6 km/h (1 Bft) SW 220 2 min 0,000 mm 0,8 UV-I 333 W/m 10,6 C 13,2 C 6,4 km/h (2 Bft) 98,00 %
22.08.2017 08:42 13,2 C 20,6 C 84 % 1021,6 hPa 0,0 l/m 2,2 km/h (1 Bft) S-SW 211 2 min 0,000 mm 0,8 UV-I 330 W/m 10,6 C 13,2 C 4,8 km/h (1 Bft) 97,44 %
22.08.2017 08:44 13,3 C 20,6 C 84 % 1021,6 hPa 0,0 l/m 2,8 km/h (1 Bft) S-SW 211 2 min 0,000 mm 0,8 UV-I 326 W/m 10,7 C 13,3 C 4,8 km/h (1 Bft) 98,00 %
22.08.2017 08:46 13,4 C 20,6 C 84 % 1021,5 hPa 0,0 l/m 4,2 km/h (1 Bft) S-SW 204 2 min 0,000 mm 0,9 UV-I 353 W/m 10,8 C 13,4 C 8,0 km/h (2 Bft) 98,21 %
22.08.2017 08:48 13,5 C 20,6 C 83 % 1021,5 hPa 0,0 l/m 5,1 km/h (1 Bft) SW 234 2 min 0,000 mm 0,9 UV-I 355 W/m 10,7 C 13,5 C 8,0 km/h (2 Bft) 97,37 %
22.08.2017 08:50 13,5 C 20,6 C 83 % 1021,5 hPa 0,0 l/m 5,0 km/h (1 Bft) S-SW 212 2 min 0,000 mm 0,9 UV-I 363 W/m 10,7 C 13,5 C 8,0 km/h (2 Bft) 96,23 %
22.08.2017 08:52 13,6 C 20,6 C 83 % 1021,4 hPa 0,0 l/m 5,0 km/h (1 Bft) W-SW 248 2 min 0,000 mm 1,0 UV-I 369 W/m 10,8 C 13,6 C 6,4 km/h (2 Bft) 96,00 %
22.08.2017 08:54 13,6 C 20,6 C 82 % 1021,4 hPa 0,0 l/m 7,7 km/h (2 Bft) W-SW 248 2 min 0,000 mm 1,0 UV-I 367 W/m 10,6 C 12,8 C 12,9 km/h (3 Bft) 100,00 %
22.08.2017 08:56 13,6 C 20,6 C 82 % 1021,5 hPa 0,0 l/m 5,1 km/h (1 Bft) SW 232 2 min 0,000 mm 1,0 UV-I 374 W/m 10,6 C 13,6 C 8,0 km/h (2 Bft) 96,15 %
22.08.2017 08:58 13,6 C 20,6 C 82 % 1021,4 hPa 0,0 l/m 6,1 km/h (2 Bft) SW 228 2 min 0,000 mm 1,0 UV-I 381 W/m 10,6 C 13,6 C 8,0 km/h (2 Bft) 98,00 %
22.08.2017 09:00 13,7 C 20,6 C 83 % 1021,5 hPa 0,0 l/m 5,1 km/h (1 Bft) W-SW 246 2 min 0,152 mm 1,1 UV-I 383 W/m 10,9 C 13,7 C 11,3 km/h (2 Bft) 97,87 %
22.08.2017 09:02 13,7 C 20,6 C 82 % 1021,4 hPa 0,0 l/m 8,0 km/h (2 Bft) W-SW 248 2 min 0,000 mm 1,1 UV-I 382 W/m 10,7 C 12,7 C 11,3 km/h (2 Bft) 97,44 %
22.08.2017 09:04 13,8 C 20,6 C 82 % 1021,4 hPa 0,0 l/m 7,1 km/h (2 Bft) SW 223 2 min 0,000 mm 1,1 UV-I 397 W/m 10,8 C 13,4 C 11,3 km/h (2 Bft) 98,11 %
22.08.2017 09:06 13,9 C 20,6 C 82 % 1021,5 hPa 0,0 l/m 4,1 km/h (1 Bft) W-SW 240 2 min 0,000 mm 1,2 UV-I 411 W/m 10,9 C 13,9 C 4,8 km/h (1 Bft) 98,00 %
22.08.2017 09:08 13,9 C 20,6 C 82 % 1021,5 hPa 0,0 l/m 4,0 km/h (1 Bft) SW 227 2 min 0,000 mm 1,2 UV-I 391 W/m 10,9 C 13,9 C 9,7 km/h (2 Bft) 97,37 %
22.08.2017 09:10 14,1 C 20,6 C 82 % 1021,5 hPa 0,0 l/m 3,8 km/h (1 Bft) SW 232 2 min 0,000 mm 1,2 UV-I 400 W/m 11,1 C 14,1 C 6,4 km/h (2 Bft) 97,87 %
22.08.2017 09:12 14,2 C 20,6 C 82 % 1021,5 hPa 0,0 l/m 5,3 km/h (1 Bft) W 272 2 min 0,000 mm 1,2 UV-I 352 W/m 11,2 C 14,2 C 9,7 km/h (2 Bft) 100,00 %
22.08.2017 09:14 14,1 C 20,6 C 81 % 1021,5 hPa 0,0 l/m 4,9 km/h (1 Bft) W-SW 248 2 min 0,000 mm 1,3 UV-I 388 W/m 10,9 C 14,1 C 6,4 km/h (2 Bft) 100,00 %
22.08.2017 09:16 14,2 C 20,6 C 83 % 1021,5 hPa 0,0 l/m 2,7 km/h (1 Bft) W-SW 243 2 min 0,000 mm 1,3 UV-I 409 W/m 11,4 C 14,2 C 6,4 km/h (2 Bft) 100,00 %
22.08.2017 09:18 14,3 C 20,6 C 82 % 1021,5 hPa 0,0 l/m 2,5 km/h (1 Bft) W-SW 243 2 min 0,000 mm 1,4 UV-I 441 W/m 11,3 C 14,3 C 4,8 km/h (1 Bft) 97,87 %
22.08.2017 09:20 14,4 C 20,6 C 83 % 1021,5 hPa 0,0 l/m 4,3 km/h (1 Bft) S-SW 213 2 min 0,000 mm 1,4 UV-I 449 W/m 11,5 C 14,4 C 8,0 km/h (2 Bft) 94,74 %
22.08.2017 09:22 14,5 C 20,6 C 78 % 1021,4 hPa 0,0 l/m 7,3 km/h (2 Bft) W-SW 240 2 min 0,000 mm 1,4 UV-I 457 W/m 10,7 C 14,0 C 11,3 km/h (2 Bft) 100,00 %
22.08.2017 09:24 14,6 C 20,6 C 78 % 1021,4 hPa 0,0 l/m 4,6 km/h (1 Bft) W 265 2 min 0,000 mm 1,4 UV-I 455 W/m 10,8 C 14,6 C 9,7 km/h (2 Bft) 100,00 %
22.08.2017 09:26 14,7 C 20,6 C 79 % 1021,4 hPa 0,0 l/m 6,1 km/h (2 Bft) SW 220 2 min 0,000 mm 1,5 UV-I 466 W/m 11,1 C 14,7 C 9,7 km/h (2 Bft) 100,00 %
22.08.2017 09:28 14,7 C 20,6 C 76 % 1021,4 hPa 0,0 l/m 4,2 km/h (1 Bft) W-SW 247 2 min 0,000 mm 1,5 UV-I 472 W/m 10,5 C 14,7 C 8,0 km/h (2 Bft) 100,00 %
22.08.2017 09:30 14,7 C 20,6 C 77 % 1021,4 hPa 0,0 l/m 6,8 km/h (2 Bft) W-SW 244 2 min 0,000 mm 1,5 UV-I 455 W/m 10,7 C 14,5 C 11,3 km/h (2 Bft) 100,00 %
22.08.2017 09:32 14,8 C 20,6 C 76 % 1021,5 hPa 0,0 l/m 3,9 km/h (1 Bft) SW 227 2 min 0,000 mm 1,6 UV-I 468 W/m 10,6 C 14,8 C 6,4 km/h (2 Bft) 100,00 %
22.08.2017 09:34 14,9 C 20,6 C 77 % 1021,5 hPa 0,0 l/m 4,9 km/h (1 Bft) W-SW 240 2 min 0,000 mm 1,6 UV-I 483 W/m 10,9 C 14,9 C 8,0 km/h (2 Bft) 100,00 %
22.08.2017 09:36 14,9 C 20,6 C 76 % 1021,5 hPa 0,0 l/m 5,3 km/h (1 Bft) W-SW 237 2 min 0,000 mm 1,7 UV-I 494 W/m 10,7 C 14,9 C 8,0 km/h (2 Bft) 100,00 %
22.08.2017 09:38 14,9 C 20,6 C 75 % 1021,5 hPa 0,0 l/m 5,3 km/h (1 Bft) W-SW 250 2 min 0,000 mm 1,7 UV-I 493 W/m 10,5 C 14,9 C 8,0 km/h (2 Bft) 100,00 %
22.08.2017 09:40 14,9 C 20,6 C 75 % 1021,5 hPa 0,0 l/m 4,4 km/h (1 Bft) S-SW 200 2 min 0,000 mm 1,7 UV-I 478 W/m 10,5 C 14,9 C 6,4 km/h (2 Bft) 100,00 %
22.08.2017 09:42 15,1 C 20,6 C 76 % 1021,5 hPa 0,0 l/m 5,0 km/h (1 Bft) S-SW 209 2 min 0,000 mm 1,7 UV-I 471 W/m 10,9 C 15,1 C 8,0 km/h (2 Bft) 100,00 %
22.08.2017 09:44 15,1 C 20,6 C 77 % 1021,5 hPa 0,0 l/m 5,0 km/h (1 Bft) S-SW 196 2 min 0,000 mm 1,8 UV-I 473 W/m 11,1 C 15,1 C 8,0 km/h (2 Bft) 100,00 %
22.08.2017 09:46 15,2 C 20,6 C 77 % 1021,5 hPa 0,0 l/m 4,3 km/h (1 Bft) S-SW 197 2 min 0,000 mm 1,8 UV-I 508 W/m 11,2 C 15,2 C 6,4 km/h (2 Bft) 98,00 %
22.08.2017 09:48 15,3 C 20,6 C 78 % 1021,5 hPa 0,0 l/m 3,4 km/h (1 Bft) S-SW 200 2 min 0,000 mm 1,9 UV-I 523 W/m 11,5 C 15,3 C 6,4 km/h (2 Bft) 97,87 %
22.08.2017 09:50 15,4 C 20,6 C 78 % 1021,5 hPa 0,0 l/m 1,0 km/h (0 Bft) S-SW 200 2 min 0,000 mm 1,9 UV-I 529 W/m 11,6 C 15,4 C 3,2 km/h (1 Bft) 100,00 %
22.08.2017 09:52 15,5 C 20,6 C 76 % 1021,5 hPa 0,0 l/m 2,7 km/h (1 Bft) S-SW 201 2 min 0,000 mm 2,0 UV-I 534 W/m 11,3 C 15,5 C 4,8 km/h (1 Bft) 100,00 %
22.08.2017 09:54 15,4 C 20,6 C 76 % 1021,5 hPa 0,0 l/m 2,1 km/h (1 Bft) S-SW 196 2 min 0,000 mm 2,1 UV-I 537 W/m 11,2 C 15,4 C 4,8 km/h (1 Bft) 100,00 %
22.08.2017 09:56 15,4 C 20,6 C 76 % 1021,5 hPa 0,0 l/m 1,2 km/h (1 Bft) S-SW 196 2 min 0,000 mm 2,1 UV-I 540 W/m 11,2 C 15,4 C 4,8 km/h (1 Bft) 100,00 %
22.08.2017 09:58 15,5 C 20,6 C 77 % 1021,5 hPa 0,0 l/m 2,8 km/h (1 Bft) W-SW 248 2 min 0,000 mm 2,2 UV-I 545 W/m 11,5 C 15,5 C 8,0 km/h (2 Bft) 100,00 %
22.08.2017 10:00 15,7 C 20,6 C 78 % 1021,5 hPa 0,0 l/m 5,8 km/h (2 Bft) W 267 2 min 0,254 mm 2,2 UV-I 553 W/m 11,9 C 15,7 C 9,7 km/h (2 Bft) 100,00 %
22.08.2017 10:02 15,7 C 20,6 C 76 % 1021,5 hPa 0,0 l/m 3,1 km/h (1 Bft) W 268 2 min 0,000 mm 2,2 UV-I 558 W/m 11,5 C 15,7 C 6,4 km/h (2 Bft) 100,00 %
22.08.2017 10:04 15,7 C 20,6 C 76 % 1021,5 hPa 0,0 l/m 1,2 km/h (1 Bft) W 266 2 min 0,000 mm 2,3 UV-I 566 W/m 11,5 C 15,7 C 4,8 km/h (1 Bft) 100,00 %
22.08.2017 10:06 15,7 C 20,6 C 75 % 1021,4 hPa 0,0 l/m 0,8 km/h (0 Bft) W 266 2 min 0,000 mm 2,3 UV-I 570 W/m 11,3 C 15,7 C 3,2 km/h (1 Bft) 97,87 %
22.08.2017 10:08 15,7 C 20,6 C 74 % 1021,4 hPa 0,0 l/m 3,9 km/h (1 Bft) S-SW 207 2 min 0,000 mm 2,4 UV-I 575 W/m 11,1 C 15,7 C 8,0 km/h (2 Bft) 100,00 %
22.08.2017 10:10 15,8 C 20,6 C 74 % 1021,4 hPa 0,0 l/m 5,2 km/h (1 Bft) SW 234 2 min 0,000 mm 2,4 UV-I 580 W/m 11,2 C 15,8 C 8,0 km/h (2 Bft) 100,00 %
22.08.2017 10:12 16,0 C 20,6 C 74 % 1021,4 hPa 0,0 l/m 3,5 km/h (1 Bft) W 266 2 min 0,000 mm 2,4 UV-I 585 W/m 11,4 C 16,0 C 6,4 km/h (2 Bft) 97,56 %
22.08.2017 10:14 15,9 C 20,6 C 73 % 1021,4 hPa 0,0 l/m 1,4 km/h (1 Bft) W 266 2 min 0,000 mm 2,5 UV-I 587 W/m 11,1 C 15,9 C 4,8 km/h (1 Bft) 100,00 %
22.08.2017 10:16 15,9 C 20,6 C 73 % 1021,4 hPa 0,0 l/m 1,5 km/h (1 Bft) W-SW 252 2 min 0,000 mm 2,5 UV-I 591 W/m 11,1 C 15,9 C 3,2 km/h (1 Bft) 100,00 %
22.08.2017 10:18 16,0 C 20,6 C 74 % 1021,4 hPa 0,0 l/m 1,5 km/h (1 Bft) W-SW 254 2 min 0,000 mm 2,6 UV-I 596 W/m 11,4 C 16,0 C 4,8 km/h (1 Bft) 100,00 %
22.08.2017 10:20 16,2 C 20,6 C 73 % 1021,3 hPa 0,0 l/m 2,1 km/h (1 Bft) S-SO 166 2 min 0,000 mm 2,6 UV-I 593 W/m 11,4 C 16,2 C 4,8 km/h (1 Bft) 100,00 %
22.08.2017 10:22 16,2 C 20,6 C 73 % 1021,4 hPa 0,0 l/m 1,0 km/h (0 Bft) S-SO 166 2 min 0,000 mm 2,6 UV-I 597 W/m 11,4 C 16,2 C 4,8 km/h (1 Bft) 100,00 %
22.08.2017 10:24 16,3 C 20,6 C 74 % 1021,4 hPa 0,0 l/m 2,1 km/h (1 Bft) S-SO 168 2 min 0,000 mm 2,7 UV-I 600 W/m 11,7 C 16,3 C 4,8 km/h (1 Bft) 100,00 %
22.08.2017 10:26 16,4 C 20,6 C 75 % 1021,3 hPa 0,0 l/m 3,3 km/h (1 Bft) S 184 2 min 0,000 mm 2,7 UV-I 604 W/m 12,0 C 16,4 C 6,4 km/h (2 Bft) 100,00 %
22.08.2017 10:28 16,6 C 20,6 C 74 % 1021,3 hPa 0,0 l/m 4,5 km/h (1 Bft) S 174 2 min 0,000 mm 2,7 UV-I 609 W/m 11,9 C 16,6 C 8,0 km/h (2 Bft) 100,00 %
22.08.2017 10:30 16,5 C 20,6 C 74 % 1021,4 hPa 0,0 l/m 1,5 km/h (1 Bft) S 175 2 min 0,000 mm 2,8 UV-I 613 W/m 11,8 C 16,5 C 3,2 km/h (1 Bft) 96,00 %
22.08.2017 10:33 16,6 C 20,6 C 73 % 1021,3 hPa 0,0 l/m 2,0 km/h (1 Bft) W-SW 252 3 min 0,000 mm 2,8 UV-I 614 W/m 11,7 C 16,6 C 6,4 km/h (2 Bft) 97,26 %
22.08.2017 10:34 16,6 C 20,6 C 75 % 1021,3 hPa 0,0 l/m 6,3 km/h (2 Bft) SW 232 1 min 0,000 mm 2,9 UV-I 619 W/m 12,1 C 16,6 C 8,0 km/h (2 Bft) 100,00 %
22.08.2017 10:36 16,6 C 20,6 C 72 % 1021,3 hPa 0,0 l/m 2,1 km/h (1 Bft) S 188 2 min 0,000 mm 2,9 UV-I 619 W/m 11,5 C 16,6 C 6,4 km/h (2 Bft) 96,00 %
22.08.2017 10:38 16,6 C 20,6 C 72 % 1021,2 hPa 0,0 l/m 1,6 km/h (1 Bft) S-SW 203 2 min 0,000 mm 2,9 UV-I 622 W/m 11,5 C 16,6 C 4,8 km/h (1 Bft) 96,00 %
22.08.2017 10:40 16,7 C 20,6 C 74 % 1021,2 hPa 0,0 l/m 2,6 km/h (1 Bft) S-SW 207 2 min 0,000 mm 3,0 UV-I 629 W/m 12,0 C 16,7 C 4,8 km/h (1 Bft) 96,00 %
22.08.2017 10:42 16,9 C 20,6 C 72 % 1021,2 hPa 0,0 l/m 1,9 km/h (1 Bft) W-SW 257 2 min 0,000 mm 3,0 UV-I 633 W/m 11,8 C 16,9 C 4,8 km/h (1 Bft) 97,37 %
22.08.2017 10:44 16,8 C 20,6 C 71 % 1021,3 hPa 0,0 l/m 4,1 km/h (1 Bft) W 269 2 min 0,000 mm 3,1 UV-I 637 W/m 11,5 C 16,8 C 8,0 km/h (2 Bft) 98,11 %
22.08.2017 10:46 16,9 C 20,6 C 71 % 1021,3 hPa 0,0 l/m 4,0 km/h (1 Bft) SW 224 2 min 0,000 mm 3,1 UV-I 645 W/m 11,6 C 16,9 C 8,0 km/h (2 Bft) 97,56 %
22.08.2017 10:48 17,0 C 20,6 C 70 % 1021,3 hPa 0,0 l/m 4,0 km/h (1 Bft) S 186 2 min 0,000 mm 3,2 UV-I 648 W/m 11,5 C 17,0 C 6,4 km/h (2 Bft) 97,87 %
22.08.2017 10:50 17,1 C 20,6 C 71 % 1021,3 hPa 0,0 l/m 2,9 km/h (1 Bft) W 277 2 min 0,000 mm 3,2 UV-I 651 W/m 11,8 C 17,1 C 4,8 km/h (1 Bft) 96,43 %
22.08.2017 10:52 17,2 C 20,6 C 73 % 1021,2 hPa 0,0 l/m 3,6 km/h (1 Bft) SW 225 2 min 0,000 mm 3,2 UV-I 654 W/m 12,3 C 17,2 C 8,0 km/h (2 Bft) 96,67 %
22.08.2017 10:54 17,3 C 20,6 C 69 % 1021,2 hPa 0,0 l/m 4,9 km/h (1 Bft) SW 225 2 min 0,000 mm 3,2 UV-I 656 W/m 11,6 C 17,3 C 6,4 km/h (2 Bft) 96,88 %
22.08.2017 10:56 17,2 C 20,6 C 69 % 1021,1 hPa 0,0 l/m 1,9 km/h (1 Bft) SW 225 2 min 0,000 mm 3,3 UV-I 666 W/m 11,5 C 17,2 C 4,8 km/h (1 Bft) 97,73 %
22.08.2017 10:58 17,2 C 20,6 C 70 % 1021,1 hPa 0,0 l/m 4,5 km/h (1 Bft) W-SW 250 2 min 0,000 mm 3,3 UV-I 661 W/m 11,7 C 17,2 C 6,4 km/h (2 Bft) 97,62 %
22.08.2017 11:00 17,3 C 20,6 C 71 % 1021,1 hPa 0,0 l/m 2,5 km/h (1 Bft) W-SW 250 2 min 0,330 mm 3,3 UV-I 582 W/m 12,0 C 17,3 C 4,8 km/h (1 Bft) 98,21 %
22.08.2017 11:02 17,3 C 20,6 C 69 % 1021,2 hPa 0,0 l/m 1,5 km/h (1 Bft) W-SW 250 2 min 0,000 mm 3,4 UV-I 663 W/m 11,6 C 17,3 C 3,2 km/h (1 Bft) 100,00 %
22.08.2017 11:04 17,4 C 20,6 C 71 % 1021,2 hPa 0,0 l/m 0,5 km/h (0 Bft) W-SW 250 2 min 0,000 mm 3,5 UV-I 677 W/m 12,1 C 17,4 C 1,6 km/h (1 Bft) 100,00 %
22.08.2017 11:06 17,5 C 20,6 C 68 % 1021,1 hPa 0,0 l/m 0,0 km/h (0 Bft) W-SW 250 2 min 0,000 mm 3,5 UV-I 684 W/m 11,5 C 17,5 C 1,6 km/h (1 Bft) 95,45 %
22.08.2017 11:08 17,7 C 20,6 C 68 % 1021,1 hPa 0,0 l/m 0,6 km/h (0 Bft) W-SW 250 2 min 0,000 mm 3,6 UV-I 702 W/m 11,7 C 17,7 C 1,6 km/h (1 Bft) 100,00 %
22.08.2017 11:10 17,8 C 20,6 C 70 % 1021,1 hPa 0,0 l/m 1,3 km/h (1 Bft) W-SW 250 2 min 0,000 mm 3,7 UV-I 709 W/m 12,3 C 17,8 C 3,2 km/h (1 Bft) 96,23 %
22.08.2017 11:13 17,9 C 20,6 C 68 % 1021,1 hPa 0,0 l/m 3,4 km/h (1 Bft) W-SW 243 3 min 0,000 mm 3,6 UV-I 673 W/m 11,9 C 17,9 C 6,4 km/h (2 Bft) 96,92 %
22.08.2017 11:14 17,9 C 20,6 C 65 % 1021,0 hPa 0,0 l/m 4,7 km/h (1 Bft) SW 236 1 min 0,000 mm 3,7 UV-I 718 W/m 11,2 C 17,9 C 6,4 km/h (2 Bft) 92,31 %
22.08.2017 11:16 17,9 C 21,1 C 64 % 1021,1 hPa 0,0 l/m 3,3 km/h (1 Bft) W-NW 292 2 min 0,000 mm 3,5 UV-I 670 W/m 11,0 C 17,9 C 6,4 km/h (2 Bft) 98,00 %
22.08.2017 11:18 17,9 C 21,1 C 66 % 1021,0 hPa 0,0 l/m 1,0 km/h (0 Bft) W-NW 292 2 min 0,000 mm 3,7 UV-I 686 W/m 11,5 C 17,9 C 3,2 km/h (1 Bft) 98,00 %
22.08.2017 11:20 17,9 C 21,1 C 64 % 1021,0 hPa 0,0 l/m 0,8 km/h (0 Bft) W-NW 292 2 min 0,000 mm 3,8 UV-I 688 W/m 11,0 C 17,9 C 1,6 km/h (1 Bft) 97,37 %
22.08.2017 11:22 18,0 C 21,1 C 66 % 1021,0 hPa 0,0 l/m 1,1 km/h (1 Bft) W-NW 297 2 min 0,000 mm 3,8 UV-I 696 W/m 11,6 C 18,0 C 4,8 km/h (1 Bft) 98,00 %
22.08.2017 11:24 18,0 C 21,1 C 65 % 1021,0 hPa 0,0 l/m 1,2 km/h (1 Bft) NW 315 2 min 0,000 mm 3,8 UV-I 705 W/m 11,3 C 18,0 C 3,2 km/h (1 Bft) 96,23 %
22.08.2017 11:26 18,1 C 21,1 C 65 % 1020,9 hPa 0,0 l/m 1,3 km/h (1 Bft) N 349 2 min 0,000 mm 3,7 UV-I 680 W/m 11,4 C 18,1 C 3,2 km/h (1 Bft) 97,14 %
22.08.2017 11:28 18,0 C 21,1 C 65 % 1021,0 hPa 0,0 l/m 1,7 km/h (1 Bft) N-NW 348 2 min 0,000 mm 3,4 UV-I 541 W/m 11,3 C 18,0 C 3,2 km/h (1 Bft) 96,23 %
22.08.2017 11:30 17,9 C 21,1 C 67 % 1020,9 hPa 0,0 l/m 1,2 km/h (1 Bft) N-NW 346 2 min 0,000 mm 3,3 UV-I 540 W/m 11,7 C 17,9 C 6,4 km/h (2 Bft) 97,73 %
22.08.2017 11:32 17,9 C 21,1 C 67 % 1020,9 hPa 0,0 l/m 2,4 km/h (1 Bft) N-NW 327 2 min 0,000 mm 3,4 UV-I 562 W/m 11,7 C 17,9 C 6,4 km/h (2 Bft) 98,00 %
22.08.2017 11:34 17,8 C 21,1 C 63 % 1020,9 hPa 0,0 l/m 2,2 km/h (1 Bft) N 349 2 min 0,000 mm 3,4 UV-I 599 W/m 10,7 C 17,8 C 4,8 km/h (1 Bft) 97,44 %
22.08.2017 11:36 17,9 C 21,1 C 65 % 1020,8 hPa 0,0 l/m 0,8 km/h (0 Bft) N-NW 329 2 min 0,000 mm 3,9 UV-I 687 W/m 11,2 C 17,9 C 4,8 km/h (1 Bft) 98,11 %
22.08.2017 11:38 18,2 C 21,1 C 64 % 1020,9 hPa 0,0 l/m 1,5 km/h (1 Bft) N-NW 339 2 min 0,000 mm 4,0 UV-I 721 W/m 11,3 C 18,2 C 4,8 km/h (1 Bft) 98,00 %
22.08.2017 11:40 18,2 C 21,1 C 64 % 1020,8 hPa 0,0 l/m 2,5 km/h (1 Bft) N-NO 13 2 min 0,000 mm 4,1 UV-I 735 W/m 11,3 C 18,2 C 6,4 km/h (2 Bft) 96,00 %
22.08.2017 11:43 18,3 C 21,1 C 62 % 1020,7 hPa 0,0 l/m 3,6 km/h (1 Bft) NO 48 3 min 0,000 mm 4,2 UV-I 734 W/m 10,9 C 18,3 C 6,4 km/h (2 Bft) 97,14 %
22.08.2017 11:44 18,3 C 21,1 C 61 % 1020,7 hPa 0,0 l/m 2,8 km/h (1 Bft) O-NO 59 1 min 0,000 mm 4,0 UV-I 645 W/m 10,6 C 18,3 C 4,8 km/h (1 Bft) 100,00 %
22.08.2017 11:46 18,4 C 21,1 C 61 % 1020,7 hPa 0,0 l/m 0,3 km/h (0 Bft) O-NO 59 2 min 0,000 mm 4,2 UV-I 690 W/m 10,7 C 18,4 C 3,2 km/h (1 Bft) 98,00 %
22.08.2017 11:48 18,5 C 21,1 C 63 % 1020,7 hPa 0,0 l/m 1,0 km/h (0 Bft) NW 310 2 min 0,000 mm 4,3 UV-I 759 W/m 11,3 C 18,5 C 3,2 km/h (1 Bft) 95,74 %
22.08.2017 11:50 18,6 C 21,1 C 62 % 1020,7 hPa 0,0 l/m 1,4 km/h (1 Bft) W-NW 292 2 min 0,000 mm 3,9 UV-I 761 W/m 11,2 C 18,6 C 4,8 km/h (1 Bft) 97,87 %
22.08.2017 11:52 18,6 C 21,1 C 64 % 1020,7 hPa 0,0 l/m 2,2 km/h (1 Bft) N-NW 337 2 min 0,000 mm 4,0 UV-I 675 W/m 11,7 C 18,6 C 6,4 km/h (2 Bft) 98,11 %
22.08.2017 11:54 18,6 C 21,1 C 61 % 1020,6 hPa 0,0 l/m 1,7 km/h (1 Bft) N-NW 328 2 min 0,000 mm 4,0 UV-I 664 W/m 10,9 C 18,6 C 4,8 km/h (1 Bft) 100,00 %
22.08.2017 11:56 18,6 C 21,1 C 61 % 1020,6 hPa 0,0 l/m 0,5 km/h (0 Bft) N-NW 336 2 min 0,000 mm 4,3 UV-I 725 W/m 10,9 C 18,6 C 3,2 km/h (1 Bft) 96,23 %
22.08.2017 11:58 18,6 C 21,1 C 64 % 1020,6 hPa 0,0 l/m 1,8 km/h (1 Bft) N-NO 23 2 min 0,000 mm 4,5 UV-I 767 W/m 11,7 C 18,6 C 6,4 km/h (2 Bft) 97,87 %
22.08.2017 12:00 18,8 C 21,1 C 66 % 1020,6 hPa 0,0 l/m 4,6 km/h (1 Bft) NO 39 2 min 0,000 mm 4,5 UV-I 774 W/m 12,3 C 18,8 C 8,0 km/h (2 Bft) 96,43 %
22.08.2017 12:02 19,0 C 21,1 C 61 % 1020,6 hPa 0,0 l/m 3,4 km/h (1 Bft) NW 321 2 min 0,381 mm 4,5 UV-I 769 W/m 11,3 C 19,0 C 8,0 km/h (2 Bft) 97,73 %
22.08.2017 12:04 18,9 C 21,1 C 61 % 1020,5 hPa 0,0 l/m 2,7 km/h (1 Bft) N-NW 329 2 min 0,000 mm 4,5 UV-I 775 W/m 11,2 C 18,9 C 4,8 km/h (1 Bft) 98,11 %
22.08.2017 12:06 18,9 C 21,1 C 57 % 1020,5 hPa 0,0 l/m 2,6 km/h (1 Bft) N-NO 26 2 min 0,000 mm 4,6 UV-I 784 W/m 10,2 C 18,9 C 8,0 km/h (2 Bft) 97,56 %
22.08.2017 12:08 18,9 C 21,1 C 61 % 1020,4 hPa 0,0 l/m 0,1 km/h (0 Bft) N-NO 26 2 min 0,000 mm 4,5 UV-I 780 W/m 11,2 C 18,9 C 1,6 km/h (1 Bft) 97,67 %
22.08.2017 12:10 18,9 C 21,1 C 60 % 1020,4 hPa 0,0 l/m 2,9 km/h (1 Bft) W-NW 284 2 min 0,000 mm 3,8 UV-I 752 W/m 11,0 C 18,9 C 8,0 km/h (2 Bft) 96,43 %
22.08.2017 12:12 18,9 C 21,1 C 56 % 1020,4 hPa 0,0 l/m 3,7 km/h (1 Bft) W 266 2 min 0,000 mm 3,6 UV-I 701 W/m 9,9 C 18,9 C 8,0 km/h (2 Bft) 97,44 %
22.08.2017 12:14 18,9 C 21,1 C 57 % 1020,4 hPa 0,0 l/m 3,6 km/h (1 Bft) SW 236 2 min 0,000 mm 4,6 UV-I 702 W/m 10,2 C 18,9 C 8,0 km/h (2 Bft) 96,36 %
22.08.2017 12:16 18,9 C 21,1 C 57 % 1020,3 hPa 0,0 l/m 3,6 km/h (1 Bft) NW 305 2 min 0,000 mm 4,8 UV-I 806 W/m 10,2 C 18,9 C 8,0 km/h (2 Bft) 97,87 %
22.08.2017 12:18 19,1 C 21,1 C 59 % 1020,3 hPa 0,0 l/m 1,9 km/h (1 Bft) N-NO 19 2 min 0,000 mm 4,8 UV-I 804 W/m 10,9 C 19,1 C 6,4 km/h (2 Bft) 97,87 %
22.08.2017 12:20 19,2 C 21,1 C 57 % 1020,2 hPa 0,0 l/m 3,8 km/h (1 Bft) NO 38 2 min 0,000 mm 4,5 UV-I 825 W/m 10,5 C 19,2 C 8,0 km/h (2 Bft) 97,22 %
22.08.2017 12:22 19,1 C 21,1 C 60 % 1020,2 hPa 0,0 l/m 2,2 km/h (1 Bft) NW 316 2 min 0,000 mm 4,1 UV-I 826 W/m 11,1 C 19,1 C 4,8 km/h (1 Bft) 97,73 %
22.08.2017 12:24 19,1 C 21,1 C 58 % 1020,1 hPa 0,0 l/m 1,1 km/h (1 Bft) N-NW 334 2 min 0,000 mm 4,0 UV-I 768 W/m 10,6 C 19,1 C 3,2 km/h (1 Bft) 96,23 %
22.08.2017 12:26 19,2 C 21,1 C 57 % 1020,1 hPa 0,0 l/m 1,9 km/h (1 Bft) N-NW 332 2 min 0,000 mm 4,8 UV-I 802 W/m 10,5 C 19,2 C 3,2 km/h (1 Bft) 96,43 %
22.08.2017 12:30 19,3 C 21,1 C 53 % 1020,0 hPa 0,0 l/m 3,2 km/h (1 Bft) W 270 4 min 0,000 mm 4,6 UV-I 778 W/m 9,5 C 19,3 C 6,4 km/h (2 Bft) 99,12 %
22.08.2017 12:34 19,1 C 21,1 C 52 % 1020,0 hPa 0,0 l/m 2,4 km/h (1 Bft) W 275 4 min 0,000 mm 4,8 UV-I 794 W/m 9,0 C 19,1 C 4,8 km/h (1 Bft) 94,94 %
22.08.2017 12:36 19,2 C 21,1 C 55 % 1020,0 hPa 0,0 l/m 2,1 km/h (1 Bft) N-NO 25 2 min 0,000 mm 4,9 UV-I 824 W/m 9,9 C 19,2 C 4,8 km/h (1 Bft) 94,55 %
22.08.2017 12:38 19,3 C 21,1 C 53 % 1020,0 hPa 0,0 l/m 6,4 km/h (2 Bft) W-NW 284 2 min 0,000 mm 5,0 UV-I 832 W/m 9,5 C 19,3 C 11,3 km/h (2 Bft) 97,44 %
22.08.2017 12:40 19,3 C 21,1 C 51 % 1020,0 hPa 0,0 l/m 3,2 km/h (1 Bft) W-NW 296 2 min 0,000 mm 4,9 UV-I 825 W/m 8,9 C 19,3 C 8,0 km/h (2 Bft) 93,62 %
22.08.2017 12:42 19,2 C 21,1 C 55 % 1019,9 hPa 0,0 l/m 3,1 km/h (1 Bft) N-NO 21 2 min 0,000 mm 4,9 UV-I 805 W/m 9,9 C 19,2 C 4,8 km/h (1 Bft) 92,45 %
22.08.2017 12:44 19,4 C 21,1 C 55 % 1019,9 hPa 0,0 l/m 2,9 km/h (1 Bft) N-NW 329 2 min 0,000 mm 5,0 UV-I 839 W/m 10,1 C 19,4 C 6,4 km/h (2 Bft) 93,18 %
22.08.2017 12:46 19,7 C 21,1 C 56 % 1019,9 hPa 0,0 l/m 5,2 km/h (1 Bft) SW 219 2 min 0,000 mm 5,0 UV-I 827 W/m 10,7 C 19,7 C 12,9 km/h (3 Bft) 96,23 %
22.08.2017 12:48 19,8 C 21,1 C 49 % 1019,9 hPa 0,0 l/m 8,5 km/h (2 Bft) W-SW 243 2 min 0,000 mm 5,0 UV-I 799 W/m 8,8 C 18,9 C 19,3 km/h (3 Bft) 92,68 %
22.08.2017 12:50 19,9 C 21,1 C 50 % 1019,9 hPa 0,0 l/m 10,3 km/h (2 Bft) W-SW 242 2 min 0,000 mm 5,0 UV-I 828 W/m 9,2 C 18,4 C 14,5 km/h (3 Bft) 96,23 %
22.08.2017 12:52 19,8 C 21,1 C 50 % 1019,9 hPa 0,0 l/m 3,8 km/h (1 Bft) NW 321 2 min 0,000 mm 4,7 UV-I 826 W/m 9,1 C 19,8 C 11,3 km/h (2 Bft) 94,29 %
22.08.2017 12:54 19,9 C 21,1 C 52 % 1019,8 hPa 0,0 l/m 3,8 km/h (1 Bft) W 263 2 min 0,000 mm 4,7 UV-I 899 W/m 9,7 C 19,9 C 8,0 km/h (2 Bft) 96,00 %
22.08.2017 12:56 20,1 C 21,1 C 51 % 1019,8 hPa 0,0 l/m 8,6 km/h (2 Bft) S-SW 207 2 min 0,000 mm 5,0 UV-I 787 W/m 9,6 C 19,2 C 14,5 km/h (3 Bft) 95,74 %
22.08.2017 12:58 20,1 C 21,1 C 50 % 1019,8 hPa 0,0 l/m 4,3 km/h (1 Bft) W 259 2 min 0,000 mm 5,0 UV-I 825 W/m 9,3 C 20,1 C 8,0 km/h (2 Bft) 100,00 %
22.08.2017 13:00 19,9 C 21,1 C 50 % 1019,8 hPa 0,0 l/m 3,3 km/h (1 Bft) W-SW 240 2 min 0,000 mm 4,7 UV-I 739 W/m 9,2 C 19,9 C 9,7 km/h (2 Bft) 100,00 %
22.08.2017 13:02 20,0 C 21,1 C 50 % 1019,7 hPa 0,0 l/m 6,5 km/h (2 Bft) S-SW 212 2 min 0,457 mm 4,6 UV-I 644 W/m 9,3 C 20,0 C 11,3 km/h (2 Bft) 98,21 %
22.08.2017 13:04 20,1 C 21,1 C 49 % 1019,7 hPa 0,0 l/m 4,3 km/h (1 Bft) S-SW 208 2 min 0,000 mm 4,9 UV-I 711 W/m 9,0 C 20,1 C 9,7 km/h (2 Bft) 97,56 %
22.08.2017 13:06 20,0 C 21,1 C 50 % 1019,7 hPa 0,0 l/m 3,0 km/h (1 Bft) S 180 2 min 0,000 mm 4,8 UV-I 727 W/m 9,3 C 20,0 C 6,4 km/h (2 Bft) 100,00 %
22.08.2017 13:08 20,1 C 21,1 C 50 % 1019,6 hPa 0,0 l/m 3,8 km/h (1 Bft) W-NW 284 2 min 0,000 mm 5,0 UV-I 753 W/m 9,3 C 20,1 C 6,4 km/h (2 Bft) 100,00 %
22.08.2017 13:10 20,1 C 21,1 C 52 % 1019,6 hPa 0,0 l/m 4,1 km/h (1 Bft) W-SW 246 2 min 0,000 mm 4,9 UV-I 757 W/m 9,9 C 20,1 C 14,5 km/h (3 Bft) 100,00 %
22.08.2017 13:12 20,0 C 21,1 C 49 % 1019,6 hPa 0,0 l/m 7,5 km/h (2 Bft) SW 234 2 min 0,000 mm 4,5 UV-I 658 W/m 9,0 C 19,5 C 16,1 km/h (3 Bft) 100,00 %
22.08.2017 13:14 19,9 C 21,1 C 49 % 1019,5 hPa 0,0 l/m 5,6 km/h (1 Bft) W-NW 298 2 min 0,000 mm 4,6 UV-I 668 W/m 8,9 C 19,9 C 9,7 km/h (2 Bft) 100,00 %
22.08.2017 13:16 19,8 C 21,1 C 50 % 1019,6 hPa 0,0 l/m 7,5 km/h (2 Bft) W-SW 248 2 min 0,000 mm 4,6 UV-I 708 W/m 9,1 C 19,3 C 14,5 km/h (3 Bft) 100,00 %
22.08.2017 13:18 19,8 C 21,1 C 50 % 1019,5 hPa 0,0 l/m 8,4 km/h (2 Bft) W-SW 250 2 min 0,000 mm 4,3 UV-I 680 W/m 9,1 C 19,0 C 14,5 km/h (3 Bft) 100,00 %
22.08.2017 13:20 19,8 C 21,1 C 52 % 1019,5 hPa 0,0 l/m 8,4 km/h (2 Bft) SW 217 2 min 0,000 mm 4,5 UV-I 698 W/m 9,7 C 19,0 C 11,3 km/h (2 Bft) 97,56 %
22.08.2017 13:22 20,1 C 21,7 C 50 % 1019,4 hPa 0,0 l/m 8,1 km/h (2 Bft) S-SW 192 2 min 0,000 mm 4,7 UV-I 708 W/m 9,3 C 19,4 C 12,9 km/h (3 Bft) 100,00 %
22.08.2017 13:24 20,2 C 21,7 C 51 % 1019,4 hPa 0,0 l/m 7,4 km/h (2 Bft) SW 226 2 min 0,000 mm 4,7 UV-I 732 W/m 9,7 C 19,8 C 9,7 km/h (2 Bft) 100,00 %
22.08.2017 13:26 20,3 C 21,7 C 49 % 1019,4 hPa 0,0 l/m 8,3 km/h (2 Bft) SW 234 2 min 0,000 mm 4,8 UV-I 818 W/m 9,2 C 19,6 C 16,1 km/h (3 Bft) 100,00 %
22.08.2017 13:28 20,2 C 21,7 C 47 % 1019,4 hPa 0,0 l/m 9,9 km/h (2 Bft) W-SW 257 2 min 0,000 mm 5,1 UV-I 901 W/m 8,5 C 18,9 C 14,5 km/h (3 Bft) 100,00 %
22.08.2017 13:30 20,3 C 21,7 C 51 % 1019,4 hPa 0,0 l/m 9,0 km/h (2 Bft) W 268 2 min 0,000 mm 5,1 UV-I 882 W/m 9,8 C 19,3 C 16,1 km/h (3 Bft) 97,56 %
22.08.2017 13:32 20,2 C 21,7 C 49 % 1019,3 hPa 0,0 l/m 9,4 km/h (2 Bft) W-NW 284 2 min 0,000 mm 5,1 UV-I 891 W/m 9,1 C 19,1 C 19,3 km/h (3 Bft) 100,00 %
22.08.2017 13:34 20,2 C 21,7 C 52 % 1019,4 hPa 0,0 l/m 5,7 km/h (1 Bft) S-SW 212 2 min 0,000 mm 5,2 UV-I 867 W/m 10,0 C 20,2 C 12,9 km/h (3 Bft) 100,00 %
22.08.2017 13:36 20,4 C 21,7 C 50 % 1019,3 hPa 0,0 l/m 7,0 km/h (2 Bft) W 263 2 min 0,000 mm 5,0 UV-I 844 W/m 9,6 C 20,2 C 12,9 km/h (3 Bft) 100,00 %
22.08.2017 13:38 20,6 C 21,7 C 51 % 1019,3 hPa 0,0 l/m 2,0 km/h (1 Bft) W 265 2 min 0,000 mm 5,0 UV-I 821 W/m 10,1 C 20,6 C 9,7 km/h (2 Bft) 100,00 %
22.08.2017 13:40 20,5 C 21,7 C 50 % 1019,3 hPa 0,0 l/m 4,9 km/h (1 Bft) SW 219 2 min 0,000 mm 3,5 UV-I 818 W/m 9,7 C 20,5 C 12,9 km/h (3 Bft) 98,11 %
22.08.2017 13:42 20,4 C 21,7 C 51 % 1019,2 hPa 0,0 l/m 4,6 km/h (1 Bft) W 279 2 min 0,000 mm 3,2 UV-I 817 W/m 9,9 C 20,4 C 14,5 km/h (3 Bft) 100,00 %
22.08.2017 13:44 20,3 C 21,7 C 48 % 1019,2 hPa 0,0 l/m 5,2 km/h (1 Bft) W-NW 291 2 min 0,000 mm 5,0 UV-I 817 W/m 8,9 C 20,3 C 11,3 km/h (2 Bft) 100,00 %
22.08.2017 13:46 20,3 C 21,7 C 55 % 1019,2 hPa 0,0 l/m 2,8 km/h (1 Bft) SW 227 2 min 0,000 mm 4,9 UV-I 827 W/m 11,0 C 20,3 C 8,0 km/h (2 Bft) 100,00 %
22.08.2017 13:48 20,5 C 21,7 C 51 % 1019,2 hPa 0,0 l/m 3,6 km/h (1 Bft) W 259 2 min 0,000 mm 3,8 UV-I 823 W/m 10,0 C 20,5 C 6,4 km/h (2 Bft) 97,56 %
22.08.2017 13:50 20,5 C 21,7 C 52 % 1019,1 hPa 0,0 l/m 2,9 km/h (1 Bft) W-SW 245 2 min 0,000 mm 4,9 UV-I 819 W/m 10,3 C 20,5 C 11,3 km/h (2 Bft) 100,00 %
22.08.2017 13:52 20,5 C 21,7 C 47 % 1019,2 hPa 0,0 l/m 6,7 km/h (2 Bft) W 273 2 min 0,000 mm 4,9 UV-I 823 W/m 8,8 C 20,4 C 11,3 km/h (2 Bft) 100,00 %
22.08.2017 13:54 20,4 C 21,7 C 50 % 1019,1 hPa 0,0 l/m 4,3 km/h (1 Bft) S-SW 205 2 min 0,000 mm 4,9 UV-I 756 W/m 9,6 C 20,4 C 8,0 km/h (2 Bft) 100,00 %
22.08.2017 13:56 20,4 C 21,7 C 48 % 1019,1 hPa 0,0 l/m 7,3 km/h (2 Bft) S-SO 165 2 min 0,000 mm 4,9 UV-I 744 W/m 9,0 C 20,0 C 12,9 km/h (3 Bft) 100,00 %
22.08.2017 13:58 20,3 C 21,7 C 48 % 1019,0 hPa 0,0 l/m 6,2 km/h (2 Bft) SO 140 2 min 0,000 mm 3,4 UV-I 854 W/m 8,9 C 20,3 C 11,3 km/h (2 Bft) 100,00 %
22.08.2017 14:00 20,1 C 21,7 C 49 % 1019,0 hPa 0,0 l/m 2,9 km/h (1 Bft) SO 139 2 min 0,483 mm 2,5 UV-I 717 W/m 9,0 C 20,1 C 8,0 km/h (2 Bft) 100,00 %
22.08.2017 14:02 20,0 C 21,7 C 52 % 1019,0 hPa 0,0 l/m 1,5 km/h (1 Bft) S-SW 194 0 min 0,000 mm 3,8 UV-I 272 W/m 9,8 C 20,0 C 6,4 km/h (2 Bft) 100,00 %
22.08.2017 14:04 20,2 C 21,7 C 53 % 1019,0 hPa 0,0 l/m 3,3 km/h (1 Bft) SW 221 2 min 0,000 mm 4,3 UV-I 775 W/m 10,3 C 20,2 C 9,7 km/h (2 Bft) 98,11 %
22.08.2017 14:06 20,3 C 21,7 C 50 % 1019,0 hPa 0,0 l/m 6,2 km/h (2 Bft) W-SW 257 2 min 0,000 mm 3,5 UV-I 544 W/m 9,5 C 20,3 C 11,3 km/h (2 Bft) 97,37 %
22.08.2017 14:08 20,3 C 21,7 C 50 % 1019,0 hPa 0,0 l/m 4,1 km/h (1 Bft) W-SW 247 2 min 0,000 mm 4,3 UV-I 747 W/m 9,5 C 20,3 C 6,4 km/h (2 Bft) 100,00 %
22.08.2017 14:10 20,4 C 21,7 C 49 % 1018,9 hPa 0,0 l/m 5,4 km/h (1 Bft) SW 232 2 min 0,000 mm 4,0 UV-I 850 W/m 9,3 C 20,4 C 16,1 km/h (3 Bft) 100,00 %
22.08.2017 14:12 20,5 C 21,7 C 49 % 1018,9 hPa 0,0 l/m 6,5 km/h (2 Bft) SW 232 2 min 0,000 mm 4,8 UV-I 823 W/m 9,4 C 20,5 C 11,3 km/h (2 Bft) 100,00 %
22.08.2017 14:14 20,8 C 21,7 C 48 % 1018,9 hPa 0,0 l/m 8,2 km/h (2 Bft) W-NW 291 2 min 0,000 mm 4,8 UV-I 822 W/m 9,4 C 20,1 C 16,1 km/h (3 Bft) 98,21 %
22.08.2017 14:16 20,8 C 21,7 C 48 % 1018,9 hPa 0,0 l/m 7,0 km/h (2 Bft) W 261 2 min 0,000 mm 4,7 UV-I 831 W/m 9,4 C 20,6 C 12,9 km/h (3 Bft) 100,00 %
22.08.2017 14:18 20,8 C 21,7 C 49 % 1018,9 hPa 0,0 l/m 8,5 km/h (2 Bft) SW 217 2 min 0,000 mm 4,7 UV-I 826 W/m 9,7 C 20,0 C 12,9 km/h (3 Bft) 97,14 %
22.08.2017 14:20 20,8 C 21,7 C 47 % 1018,9 hPa 0,0 l/m 4,2 km/h (1 Bft) W 278 2 min 0,000 mm 4,6 UV-I 815 W/m 9,1 C 20,8 C 6,4 km/h (2 Bft) 97,87 %
22.08.2017 14:22 20,9 C 21,7 C 47 % 1018,9 hPa 0,0 l/m 2,0 km/h (1 Bft) W-NW 296 2 min 0,000 mm 4,6 UV-I 827 W/m 9,2 C 20,9 C 4,8 km/h (1 Bft) 98,00 %
22.08.2017 14:24 20,9 C 21,7 C 45 % 1018,9 hPa 0,0 l/m 2,1 km/h (1 Bft) N-NW 337 2 min 0,000 mm 4,8 UV-I 851 W/m 8,5 C 20,9 C 4,8 km/h (1 Bft) 95,74 %
22.08.2017 14:26 20,9 C 21,7 C 51 % 1018,9 hPa 0,0 l/m 3,7 km/h (1 Bft) W-NW 298 2 min 0,000 mm 4,4 UV-I 873 W/m 10,4 C 20,9 C 8,0 km/h (2 Bft) 96,00 %
22.08.2017 14:28 21,0 C 21,7 C 46 % 1018,8 hPa 0,0 l/m 1,4 km/h (1 Bft) W-SW 252 2 min 0,000 mm 3,7 UV-I 859 W/m 8,9 C 21,0 C 4,8 km/h (1 Bft) 96,00 %
22.08.2017 14:30 21,1 C 21,7 C 50 % 1018,8 hPa 0,0 l/m 2,5 km/h (1 Bft) SW 236 2 min 0,000 mm 4,7 UV-I 843 W/m 10,3 C 21,1 C 4,8 km/h (1 Bft) 97,37 %
22.08.2017 14:32 21,2 C 21,7 C 51 % 1018,8 hPa 0,0 l/m 3,4 km/h (1 Bft) W-SW 255 2 min 0,000 mm 4,6 UV-I 788 W/m 10,7 C 21,2 C 14,5 km/h (3 Bft) 97,92 %
22.08.2017 14:34 21,3 C 21,7 C 46 % 1018,8 hPa 0,0 l/m 8,6 km/h (2 Bft) W 266 2 min 0,000 mm 4,4 UV-I 771 W/m 9,2 C 20,5 C 14,5 km/h (3 Bft) 98,00 %
22.08.2017 14:36 21,3 C 21,7 C 46 % 1018,8 hPa 0,0 l/m 7,2 km/h (2 Bft) W 272 2 min 0,000 mm 4,4 UV-I 761 W/m 9,2 C 21,0 C 16,1 km/h (3 Bft) 97,87 %
22.08.2017 14:38 21,2 C 21,7 C 48 % 1018,8 hPa 0,0 l/m 9,5 km/h (2 Bft) W-NW 285 2 min 0,000 mm 4,3 UV-I 752 W/m 9,7 C 20,1 C 17,7 km/h (3 Bft) 96,00 %
22.08.2017 14:40 20,9 C 21,7 C 45 % 1018,7 hPa 0,0 l/m 4,4 km/h (1 Bft) S 190 2 min 0,000 mm 4,3 UV-I 751 W/m 8,5 C 20,9 C 11,3 km/h (2 Bft) 100,00 %
22.08.2017 14:42 20,8 C 21,7 C 46 % 1018,6 hPa 0,0 l/m 0,7 km/h (0 Bft) O 94 2 min 0,000 mm 4,2 UV-I 749 W/m 8,8 C 20,8 C 3,2 km/h (1 Bft) 96,23 %
22.08.2017 14:44 20,8 C 21,7 C 49 % 1018,6 hPa 0,0 l/m 5,9 km/h (2 Bft) W-SW 255 2 min 0,000 mm 4,2 UV-I 745 W/m 9,7 C 20,8 C 11,3 km/h (2 Bft) 97,37 %
22.08.2017 14:46 21,1 C 21,7 C 48 % 1018,6 hPa 0,0 l/m 4,0 km/h (1 Bft) W-NW 290 2 min 0,000 mm 4,2 UV-I 744 W/m 9,7 C 21,1 C 6,4 km/h (2 Bft) 98,00 %
22.08.2017 14:48 21,2 C 21,7 C 48 % 1018,6 hPa 0,0 l/m 5,4 km/h (1 Bft) S-SW 211 2 min 0,000 mm 4,2 UV-I 741 W/m 9,7 C 21,2 C 9,7 km/h (2 Bft) 97,73 %
22.08.2017 14:50 21,3 C 21,7 C 52 % 1018,5 hPa 0,0 l/m 3,2 km/h (1 Bft) N-NO 28 2 min 0,000 mm 4,2 UV-I 746 W/m 11,0 C 21,3 C 9,7 km/h (2 Bft) 97,87 %
22.08.2017 14:52 21,3 C 21,7 C 49 % 1018,5 hPa 0,0 l/m 4,2 km/h (1 Bft) N 11 2 min 0,000 mm 4,2 UV-I 754 W/m 10,1 C 21,3 C 6,4 km/h (2 Bft) 97,56 %
22.08.2017 14:54 21,3 C 21,7 C 48 % 1018,5 hPa 0,0 l/m 2,5 km/h (1 Bft) NO 42 2 min 0,000 mm 4,1 UV-I 747 W/m 9,8 C 21,3 C 9,7 km/h (2 Bft) 100,00 %
22.08.2017 14:56 21,1 C 21,7 C 49 % 1018,4 hPa 0,0 l/m 5,8 km/h (2 Bft) W-NW 290 2 min 0,000 mm 4,0 UV-I 742 W/m 10,0 C 21,1 C 14,5 km/h (3 Bft) 100,00 %
22.08.2017 14:58 21,1 C 21,7 C 47 % 1018,5 hPa 0,0 l/m 5,4 km/h (1 Bft) SW 227 2 min 0,000 mm 4,1 UV-I 762 W/m 9,3 C 21,1 C 12,9 km/h (3 Bft) 98,21 %
22.08.2017 15:00 21,2 C 21,7 C 46 % 1018,5 hPa 0,0 l/m 9,0 km/h (2 Bft) W 261 2 min 0,483 mm 4,0 UV-I 776 W/m 9,1 C 20,3 C 17,7 km/h (3 Bft) 100,00 %
22.08.2017 15:02 21,2 C 21,7 C 44 % 1018,4 hPa 0,0 l/m 4,7 km/h (1 Bft) W-SW 239 2 min 0,000 mm 3,9 UV-I 694 W/m 8,5 C 21,2 C 11,3 km/h (2 Bft) 98,00 %
22.08.2017 15:04 21,1 C 22,2 C 44 % 1018,4 hPa 0,0 l/m 6,8 km/h (2 Bft) W-SW 249 2 min 0,000 mm 3,8 UV-I 731 W/m 8,4 C 21,0 C 11,3 km/h (2 Bft) 95,12 %
22.08.2017 15:06 21,0 C 22,2 C 42 % 1018,4 hPa 0,0 l/m 2,4 km/h (1 Bft) W-NW 292 2 min 0,000 mm 3,6 UV-I 702 W/m 7,6 C 21,0 C 6,4 km/h (2 Bft) 100,00 %
22.08.2017 15:08 20,9 C 22,2 C 45 % 1018,3 hPa 0,0 l/m 2,3 km/h (1 Bft) W-NW 303 2 min 0,000 mm 3,7 UV-I 718 W/m 8,5 C 20,9 C 4,8 km/h (1 Bft) 100,00 %
22.08.2017 15:10 21,1 C 22,2 C 47 % 1018,3 hPa 0,0 l/m 5,9 km/h (2 Bft) W-SW 238 2 min 0,000 mm 3,9 UV-I 781 W/m 9,3 C 21,1 C 12,9 km/h (3 Bft) 100,00 %
22.08.2017 15:12 21,4 C 22,2 C 48 % 1018,4 hPa 0,0 l/m 7,5 km/h (2 Bft) NW 315 2 min 0,000 mm 3,9 UV-I 778 W/m 9,9 C 21,0 C 12,9 km/h (3 Bft) 97,56 %
22.08.2017 15:14 21,4 C 22,2 C 45 % 1018,3 hPa 0,0 l/m 5,3 km/h (1 Bft) N-NW 344 2 min 0,000 mm 3,6 UV-I 765 W/m 9,0 C 21,4 C 9,7 km/h (2 Bft) 100,00 %
22.08.2017 15:16 21,4 C 22,2 C 46 % 1018,4 hPa 0,0 l/m 9,6 km/h (2 Bft) W-SW 250 2 min 0,000 mm 3,8 UV-I 746 W/m 9,3 C 20,3 C 19,3 km/h (3 Bft) 100,00 %
22.08.2017 15:18 21,3 C 22,2 C 44 % 1018,3 hPa 0,0 l/m 6,1 km/h (2 Bft) NW 304 2 min 0,000 mm 3,7 UV-I 717 W/m 8,5 C 21,3 C 11,3 km/h (2 Bft) 100,00 %
22.08.2017 15:20 21,2 C 22,2 C 46 % 1018,3 hPa 0,0 l/m 3,9 km/h (1 Bft) NW 307 2 min 0,000 mm 3,6 UV-I 725 W/m 9,1 C 21,2 C 8,0 km/h (2 Bft) 100,00 %
22.08.2017 15:22 21,1 C 22,2 C 45 % 1018,3 hPa 0,0 l/m 2,3 km/h (1 Bft) N 350 2 min 0,000 mm 3,5 UV-I 688 W/m 8,7 C 21,1 C 6,4 km/h (2 Bft) 97,87 %
22.08.2017 15:24 21,2 C 22,2 C 51 % 1018,2 hPa 0,0 l/m 2,1 km/h (1 Bft) N 355 2 min 0,000 mm 3,4 UV-I 708 W/m 10,7 C 21,2 C 4,8 km/h (1 Bft) 100,00 %
22.08.2017 15:26 21,3 C 22,2 C 50 % 1018,2 hPa 0,0 l/m 3,9 km/h (1 Bft) N-NW 331 2 min 0,000 mm 3,5 UV-I 676 W/m 10,4 C 21,3 C 6,4 km/h (2 Bft) 100,00 %
22.08.2017 15:28 21,4 C 22,2 C 52 % 1018,3 hPa 0,0 l/m 4,1 km/h (1 Bft) N 11 2 min 0,000 mm 3,4 UV-I 692 W/m 11,1 C 21,4 C 12,9 km/h (3 Bft) 100,00 %
22.08.2017 15:30 21,3 C 22,2 C 52 % 1018,3 hPa 0,0 l/m 4,7 km/h (1 Bft) NO 52 2 min 0,000 mm 3,4 UV-I 779 W/m 11,0 C 21,3 C 11,3 km/h (2 Bft) 100,00 %
22.08.2017 15:32 21,3 C 22,2 C 50 % 1018,2 hPa 0,0 l/m 2,5 km/h (1 Bft) W-NW 298 2 min 0,000 mm 3,3 UV-I 780 W/m 10,4 C 21,3 C 6,4 km/h (2 Bft) 100,00 %
22.08.2017 15:34 21,5 C 22,2 C 49 % 1018,2 hPa 0,0 l/m 3,0 km/h (1 Bft) O-SO 114 2 min 0,000 mm 3,1 UV-I 620 W/m 10,3 C 21,5 C 4,8 km/h (1 Bft) 100,00 %
22.08.2017 15:36 21,6 C 22,2 C 48 % 1018,2 hPa 0,0 l/m 2,4 km/h (1 Bft) SO 136 2 min 0,000 mm 3,1 UV-I 617 W/m 10,1 C 21,6 C 6,4 km/h (2 Bft) 100,00 %
22.08.2017 15:38 21,4 C 22,2 C 49 % 1018,2 hPa 0,0 l/m 3,5 km/h (1 Bft) N-NW 348 2 min 0,000 mm 2,8 UV-I 567 W/m 10,2 C 21,4 C 9,7 km/h (2 Bft) 100,00 %
22.08.2017 15:40 21,2 C 22,2 C 49 % 1018,2 hPa 0,0 l/m 2,4 km/h (1 Bft) NW 309 2 min 0,000 mm 2,7 UV-I 502 W/m 10,1 C 21,2 C 6,4 km/h (2 Bft) 100,00 %
22.08.2017 15:42 21,2 C 22,2 C 51 % 1018,2 hPa 0,0 l/m 0,6 km/h (0 Bft) N-NW 333 2 min 0,000 mm 2,6 UV-I 498 W/m 10,7 C 21,2 C 3,2 km/h (1 Bft) 100,00 %
22.08.2017 15:44 21,1 C 22,2 C 51 % 1018,3 hPa 0,0 l/m 1,0 km/h (0 Bft) N-NW 331 2 min 0,000 mm 2,7 UV-I 520 W/m 10,6 C 21,1 C 3,2 km/h (1 Bft) 100,00 %
22.08.2017 15:46 21,1 C 22,2 C 49 % 1018,2 hPa 0,0 l/m 2,1 km/h (1 Bft) NW 318 2 min 0,000 mm 2,5 UV-I 483 W/m 10,0 C 21,1 C 4,8 km/h (1 Bft) 100,00 %
22.08.2017 15:48 21,1 C 22,2 C 52 % 1018,2 hPa 0,0 l/m 1,8 km/h (1 Bft) N-NW 337 2 min 0,000 mm 2,4 UV-I 452 W/m 10,9 C 21,1 C 4,8 km/h (1 Bft) 100,00 %
22.08.2017 15:50 21,1 C 22,2 C 51 % 1018,1 hPa 0,0 l/m 4,9 km/h (1 Bft) N-NW 327 2 min 0,000 mm 2,4 UV-I 452 W/m 10,6 C 21,1 C 11,3 km/h (2 Bft) 100,00 %
22.08.2017 15:52 20,9 C 22,2 C 51 % 1018,2 hPa 0,0 l/m 3,3 km/h (1 Bft) NO 46 2 min 0,000 mm 2,4 UV-I 460 W/m 10,4 C 20,9 C 8,0 km/h (2 Bft) 100,00 %
22.08.2017 15:54 20,9 C 22,2 C 50 % 1018,1 hPa 0,0 l/m 4,6 km/h (1 Bft) NW 315 2 min 0,000 mm 2,3 UV-I 444 W/m 10,1 C 20,9 C 8,0 km/h (2 Bft) 100,00 %
22.08.2017 15:56 20,8 C 22,2 C 52 % 1018,1 hPa 0,0 l/m 3,0 km/h (1 Bft) NW 321 2 min 0,000 mm 2,3 UV-I 438 W/m 10,6 C 20,8 C 8,0 km/h (2 Bft) 100,00 %
22.08.2017 15:58 20,7 C 22,2 C 51 % 1018,1 hPa 0,0 l/m 3,0 km/h (1 Bft) NW 325 2 min 0,000 mm 2,2 UV-I 418 W/m 10,2 C 20,7 C 6,4 km/h (2 Bft) 100,00 %
22.08.2017 16:00 20,7 C 22,2 C 51 % 1018,1 hPa 0,0 l/m 1,1 km/h (1 Bft) NO 36 2 min 0,000 mm 2,2 UV-I 415 W/m 10,2 C 20,7 C 4,8 km/h (1 Bft) 100,00 %
22.08.2017 16:02 20,6 C 22,2 C 52 % 1018,0 hPa 0,0 l/m 1,8 km/h (1 Bft) W-NW 301 2 min 0,381 mm 2,1 UV-I 408 W/m 10,4 C 20,6 C 8,0 km/h (2 Bft) 95,74 %
22.08.2017 16:04 20,6 C 22,2 C 49 % 1018,0 hPa 0,0 l/m 2,1 km/h (1 Bft) N-NW 340 2 min 0,000 mm 2,1 UV-I 416 W/m 9,5 C 20,6 C 6,4 km/h (2 Bft) 100,00 %
22.08.2017 16:06 20,6 C 22,2 C 50 % 1018,0 hPa 0,0 l/m 3,6 km/h (1 Bft) NW 319 2 min 0,000 mm 2,1 UV-I 421 W/m 9,8 C 20,6 C 8,0 km/h (2 Bft) 100,00 %
22.08.2017 16:08 20,6 C 22,2 C 53 % 1017,9 hPa 0,0 l/m 5,3 km/h (1 Bft) N 360 2 min 0,000 mm 2,1 UV-I 442 W/m 10,7 C 20,6 C 8,0 km/h (2 Bft) 100,00 %
22.08.2017 16:10 20,6 C 22,2 C 53 % 1017,9 hPa 0,0 l/m 3,5 km/h (1 Bft) N-NW 340 2 min 0,000 mm 2,0 UV-I 435 W/m 10,7 C 20,6 C 8,0 km/h (2 Bft) 100,00 %
22.08.2017 16:12 20,5 C 22,2 C 50 % 1017,9 hPa 0,0 l/m 4,5 km/h (1 Bft) NW 323 2 min 0,000 mm 2,0 UV-I 438 W/m 9,7 C 20,5 C 12,9 km/h (3 Bft) 100,00 %
22.08.2017 16:14 20,5 C 22,2 C 51 % 1017,9 hPa 0,0 l/m 2,9 km/h (1 Bft) NW 321 2 min 0,000 mm 2,0 UV-I 457 W/m 10,0 C 20,5 C 6,4 km/h (2 Bft) 100,00 %
22.08.2017 16:16 20,6 C 22,2 C 52 % 1017,9 hPa 0,0 l/m 2,1 km/h (1 Bft) W-NW 293 2 min 0,000 mm 2,1 UV-I 473 W/m 10,4 C 20,6 C 8,0 km/h (2 Bft) 97,14 %
22.08.2017 16:18 20,6 C 22,2 C 54 % 1017,9 hPa 0,0 l/m 4,2 km/h (1 Bft) N 355 2 min 0,000 mm 2,0 UV-I 461 W/m 11,0 C 20,6 C 8,0 km/h (2 Bft) 97,56 %
22.08.2017 16:20 20,7 C 22,2 C 52 % 1017,8 hPa 0,0 l/m 3,4 km/h (1 Bft) W 275 2 min 0,000 mm 2,0 UV-I 440 W/m 10,5 C 20,7 C 6,4 km/h (2 Bft) 98,18 %
22.08.2017 16:22 20,8 C 22,2 C 49 % 1017,9 hPa 0,0 l/m 4,3 km/h (1 Bft) W 261 2 min 0,000 mm 1,9 UV-I 426 W/m 9,7 C 20,8 C 11,3 km/h (2 Bft) 96,43 %
22.08.2017 16:24 20,8 C 22,2 C 48 % 1017,9 hPa 0,0 l/m 4,0 km/h (1 Bft) SW 223 2 min 0,000 mm 1,9 UV-I 436 W/m 9,4 C 20,8 C 14,5 km/h (3 Bft) 93,62 %
22.08.2017 16:26 20,9 C 22,2 C 51 % 1017,8 hPa 0,0 l/m 3,4 km/h (1 Bft) NW 325 2 min 0,000 mm 1,9 UV-I 446 W/m 10,4 C 20,9 C 11,3 km/h (2 Bft) 94,74 %
22.08.2017 16:28 20,8 C 22,2 C 47 % 1017,8 hPa 0,0 l/m 4,2 km/h (1 Bft) N-NW 340 2 min 0,000 mm 1,9 UV-I 442 W/m 9,1 C 20,8 C 8,0 km/h (2 Bft) 95,83 %
22.08.2017 16:30 20,8 C 22,2 C 48 % 1017,8 hPa 0,0 l/m 3,6 km/h (1 Bft) NO 35 2 min 0,000 mm 1,8 UV-I 447 W/m 9,4 C 20,8 C 6,4 km/h (2 Bft) 93,62 %
22.08.2017 16:32 20,7 C 22,2 C 47 % 1017,8 hPa 0,0 l/m 5,2 km/h (1 Bft) NW 319 2 min 0,000 mm 1,8 UV-I 411 W/m 9,0 C 20,7 C 9,7 km/h (2 Bft) 94,29 %
22.08.2017 16:34 20,7 C 22,2 C 50 % 1017,8 hPa 0,0 l/m 6,8 km/h (2 Bft) W 273 2 min 0,000 mm 1,7 UV-I 405 W/m 9,9 C 20,5 C 14,5 km/h (3 Bft) 95,52 %
22.08.2017 16:36 20,7 C 22,2 C 50 % 1017,8 hPa 0,0 l/m 6,1 km/h (2 Bft) N-NW 327 2 min 0,000 mm 1,7 UV-I 387 W/m 9,9 C 20,7 C 14,5 km/h (3 Bft) 94,87 %
22.08.2017 16:38 20,6 C 22,2 C 51 % 1017,8 hPa 0,0 l/m 4,4 km/h (1 Bft) N 5 2 min 0,000 mm 1,6 UV-I 387 W/m 10,1 C 20,6 C 11,3 km/h (2 Bft) 96,00 %
22.08.2017 16:40 20,6 C 22,2 C 50 % 1017,8 hPa 0,0 l/m 2,2 km/h (1 Bft) W-NW 302 2 min 0,000 mm 1,6 UV-I 389 W/m 9,8 C 20,6 C 4,8 km/h (1 Bft) 95,74 %
22.08.2017 16:42 20,6 C 22,2 C 50 % 1017,8 hPa 0,0 l/m 4,1 km/h (1 Bft) W-SW 250 2 min 0,000 mm 1,6 UV-I 385 W/m 9,8 C 20,6 C 8,0 km/h (2 Bft) 92,45 %
22.08.2017 16:44 20,7 C 22,2 C 48 % 1017,8 hPa 0,0 l/m 4,3 km/h (1 Bft) NW 321 2 min 0,000 mm 1,5 UV-I 379 W/m 9,3 C 20,7 C 8,0 km/h (2 Bft) 94,29 %
22.08.2017 16:46 20,8 C 22,2 C 50 % 1017,8 hPa 0,0 l/m 3,6 km/h (1 Bft) NW 319 2 min 0,000 mm 1,5 UV-I 395 W/m 10,0 C 20,8 C 6,4 km/h (2 Bft) 95,74 %
22.08.2017 16:48 20,8 C 22,2 C 52 % 1017,8 hPa 0,0 l/m 3,4 km/h (1 Bft) NW 305 2 min 0,000 mm 1,4 UV-I 364 W/m 10,6 C 20,8 C 8,0 km/h (2 Bft) 93,62 %
22.08.2017 16:50 20,8 C 22,2 C 51 % 1017,8 hPa 0,0 l/m 3,4 km/h (1 Bft) N-NW 333 2 min 0,000 mm 1,4 UV-I 329 W/m 10,3 C 20,8 C 6,4 km/h (2 Bft) 95,74 %
22.08.2017 16:52 20,7 C 22,2 C 49 % 1017,8 hPa 0,0 l/m 3,2 km/h (1 Bft) N-NO 19 2 min 0,000 mm 1,4 UV-I 330 W/m 9,6 C 20,7 C 14,5 km/h (3 Bft) 96,00 %
22.08.2017 16:54 20,6 C 22,2 C 49 % 1017,8 hPa 0,0 l/m 1,5 km/h (1 Bft) NW 318 2 min 0,000 mm 1,3 UV-I 303 W/m 9,5 C 20,6 C 4,8 km/h (1 Bft) 97,87 %
22.08.2017 16:56 20,6 C 22,2 C 48 % 1017,8 hPa 0,0 l/m 1,1 km/h (1 Bft) W 272 2 min 0,000 mm 1,3 UV-I 298 W/m 9,2 C 20,6 C 9,7 km/h (2 Bft) 94,00 %
22.08.2017 16:58 20,6 C 22,2 C 49 % 1017,8 hPa 0,0 l/m 5,4 km/h (1 Bft) W-NW 297 2 min 0,000 mm 1,3 UV-I 287 W/m 9,5 C 20,6 C 12,9 km/h (3 Bft) 97,87 %
22.08.2017 17:00 20,5 C 22,2 C 48 % 1017,8 hPa 0,0 l/m 3,2 km/h (1 Bft) W 277 2 min 0,254 mm 1,2 UV-I 287 W/m 9,1 C 20,5 C 11,3 km/h (2 Bft) 97,87 %
22.08.2017 17:02 20,4 C 22,2 C 48 % 1017,8 hPa 0,0 l/m 3,7 km/h (1 Bft) W 281 2 min 0,000 mm 1,2 UV-I 305 W/m 9,0 C 20,4 C 11,3 km/h (2 Bft) 97,87 %
22.08.2017 17:04 20,4 C 22,2 C 48 % 1017,8 hPa 0,0 l/m 2,3 km/h (1 Bft) W 261 2 min 0,000 mm 1,2 UV-I 314 W/m 9,0 C 20,4 C 6,4 km/h (2 Bft) 98,00 %
22.08.2017 17:06 20,4 C 22,2 C 48 % 1017,8 hPa 0,0 l/m 2,5 km/h (1 Bft) N 360 2 min 0,000 mm 1,2 UV-I 271 W/m 9,0 C 20,4 C 6,4 km/h (2 Bft) 94,74 %
22.08.2017 17:08 20,4 C 22,2 C 50 % 1017,8 hPa 0,0 l/m 3,0 km/h (1 Bft) W-SW 250 0 min 0,000 mm 1,1 UV-I 239 W/m 9,6 C 20,4 C 11,3 km/h (2 Bft) 97,62 %
22.08.2017 17:10 20,3 C 22,2 C 49 % 1017,8 hPa 0,0 l/m 4,4 km/h (1 Bft) N-NW 337 2 min 0,000 mm 1,1 UV-I 263 W/m 9,2 C 20,3 C 9,7 km/h (2 Bft) 98,21 %
22.08.2017 17:12 20,3 C 22,2 C 49 % 1017,7 hPa 0,0 l/m 2,5 km/h (1 Bft) W 265 0 min 0,000 mm 1,1 UV-I 250 W/m 9,2 C 20,3 C 8,0 km/h (2 Bft) 95,74 %
22.08.2017 17:14 20,3 C 22,2 C 49 % 1017,7 hPa 0,0 l/m 2,3 km/h (1 Bft) SW 236 2 min 0,000 mm 1,1 UV-I 266 W/m 9,2 C 20,3 C 8,0 km/h (2 Bft) 100,00 %
22.08.2017 17:16 20,4 C 22,2 C 49 % 1017,8 hPa 0,0 l/m 1,2 km/h (1 Bft) N-NO 13 2 min 0,000 mm 1,1 UV-I 311 W/m 9,3 C 20,4 C 3,2 km/h (1 Bft) 94,44 %
22.08.2017 17:18 20,5 C 22,2 C 49 % 1017,8 hPa 0,0 l/m 1,0 km/h (0 Bft) N-NO 13 2 min 0,000 mm 1,1 UV-I 353 W/m 9,4 C 20,5 C 3,2 km/h (1 Bft) 98,11 %
22.08.2017 17:20 20,6 C 22,2 C 47 % 1017,7 hPa 0,0 l/m 2,4 km/h (1 Bft) W 272 2 min 0,000 mm 1,1 UV-I 387 W/m 8,9 C 20,6 C 6,4 km/h (2 Bft) 97,37 %
22.08.2017 17:22 20,7 C 22,2 C 51 % 1017,7 hPa 0,0 l/m 2,1 km/h (1 Bft) W-NW 284 2 min 0,000 mm 1,1 UV-I 350 W/m 10,2 C 20,7 C 6,4 km/h (2 Bft) 98,11 %
22.08.2017 17:24 20,8 C 22,2 C 53 % 1017,7 hPa 0,0 l/m 3,8 km/h (1 Bft) W-NW 297 2 min 0,000 mm 1,1 UV-I 339 W/m 10,9 C 20,8 C 9,7 km/h (2 Bft) 95,45 %
22.08.2017 17:26 20,8 C 22,2 C 47 % 1017,7 hPa 0,0 l/m 3,4 km/h (1 Bft) S-SW 206 2 min 0,000 mm 1,0 UV-I 373 W/m 9,1 C 20,8 C 11,3 km/h (2 Bft) 96,00 %
22.08.2017 17:28 20,8 C 22,2 C 49 % 1017,7 hPa 0,0 l/m 3,0 km/h (1 Bft) N-NW 342 2 min 0,000 mm 1,0 UV-I 365 W/m 9,7 C 20,8 C 4,8 km/h (1 Bft) 95,74 %
22.08.2017 17:30 20,8 C 22,2 C 49 % 1017,6 hPa 0,0 l/m 1,4 km/h (1 Bft) N-NW 331 2 min 0,000 mm 1,0 UV-I 301 W/m 9,7 C 20,8 C 3,2 km/h (1 Bft) 96,15 %
22.08.2017 17:32 20,8 C 22,2 C 47 % 1017,7 hPa 0,0 l/m 6,2 km/h (2 Bft) W-SW 246 2 min 0,000 mm 0,9 UV-I 232 W/m 9,1 C 20,8 C 14,5 km/h (3 Bft) 98,53 %
22.08.2017 17:34 20,7 C 22,2 C 48 % 1017,7 hPa 0,0 l/m 5,8 km/h (2 Bft) NW 309 2 min 0,000 mm 0,9 UV-I 227 W/m 9,3 C 20,7 C 14,5 km/h (3 Bft) 94,74 %
22.08.2017 17:36 20,6 C 22,2 C 50 % 1017,7 hPa 0,0 l/m 1,9 km/h (1 Bft) W 263 2 min 0,000 mm 0,9 UV-I 279 W/m 9,8 C 20,6 C 4,8 km/h (1 Bft) 96,23 %
22.08.2017 17:38 20,6 C 22,2 C 51 % 1017,7 hPa 0,0 l/m 2,6 km/h (1 Bft) NW 305 2 min 0,000 mm 0,8 UV-I 228 W/m 10,1 C 20,6 C 6,4 km/h (2 Bft) 97,56 %
22.08.2017 17:40 20,4 C 22,2 C 50 % 1017,7 hPa 0,0 l/m 2,7 km/h (1 Bft) SW 236 2 min 0,000 mm 0,8 UV-I 224 W/m 9,6 C 20,4 C 4,8 km/h (1 Bft) 98,11 %
22.08.2017 17:42 20,4 C 22,2 C 51 % 1017,7 hPa 0,0 l/m 1,3 km/h (1 Bft) W-SW 238 2 min 0,000 mm 0,8 UV-I 249 W/m 9,9 C 20,4 C 3,2 km/h (1 Bft) 97,56 %
22.08.2017 17:44 20,4 C 22,2 C 50 % 1017,7 hPa 0,0 l/m 3,0 km/h (1 Bft) W 274 2 min 0,000 mm 0,8 UV-I 283 W/m 9,6 C 20,4 C 6,4 km/h (2 Bft) 100,00 %
22.08.2017 17:46 20,4 C 22,2 C 51 % 1017,7 hPa 0,0 l/m 3,2 km/h (1 Bft) W-NW 289 2 min 0,000 mm 0,7 UV-I 276 W/m 9,9 C 20,4 C 4,8 km/h (1 Bft) 100,00 %
22.08.2017 17:48 20,6 C 22,2 C 50 % 1017,7 hPa 0,0 l/m 1,6 km/h (1 Bft) W-SW 257 2 min 0,000 mm 0,7 UV-I 278 W/m 9,8 C 20,6 C 6,4 km/h (2 Bft) 100,00 %
22.08.2017 17:50 20,6 C 22,2 C 51 % 1017,7 hPa 0,0 l/m 1,8 km/h (1 Bft) N 11 2 min 0,000 mm 0,7 UV-I 274 W/m 10,1 C 20,6 C 4,8 km/h (1 Bft) 100,00 %
22.08.2017 17:52 20,6 C 22,2 C 53 % 1017,7 hPa 0,0 l/m 2,8 km/h (1 Bft) N 9 2 min 0,000 mm 0,7 UV-I 264 W/m 10,7 C 20,6 C 6,4 km/h (2 Bft) 100,00 %
22.08.2017 17:54 20,6 C 22,2 C 53 % 1017,7 hPa 0,0 l/m 0,9 km/h (0 Bft) W-NW 302 2 min 0,000 mm 0,7 UV-I 235 W/m 10,7 C 20,6 C 4,8 km/h (1 Bft) 100,00 %
22.08.2017 17:56 20,5 C 22,2 C 53 % 1017,6 hPa 0,0 l/m 4,5 km/h (1 Bft) N 9 2 min 0,000 mm 0,6 UV-I 250 W/m 10,6 C 20,5 C 11,3 km/h (2 Bft) 98,39 %
22.08.2017 17:58 20,4 C 22,2 C 54 % 1017,6 hPa 0,0 l/m 1,1 km/h (1 Bft) N-NW 341 2 min 0,000 mm 0,6 UV-I 248 W/m 10,8 C 20,4 C 3,2 km/h (1 Bft) 100,00 %
22.08.2017 18:00 20,4 C 22,2 C 54 % 1017,6 hPa 0,0 l/m 7,0 km/h (2 Bft) S-SW 210 2 min 0,000 mm 0,6 UV-I 238 W/m 10,8 C 20,2 C 12,9 km/h (3 Bft) 100,00 %
22.08.2017 18:02 20,4 C 22,2 C 53 % 1017,6 hPa 0,0 l/m 3,2 km/h (1 Bft) W 281 2 min 0,203 mm 0,6 UV-I 231 W/m 10,5 C 20,4 C 4,8 km/h (1 Bft) 100,00 %
22.08.2017 18:04 20,4 C 22,2 C 51 % 1017,6 hPa 0,0 l/m 4,2 km/h (1 Bft) W-NW 289 2 min 0,000 mm 0,5 UV-I 225 W/m 9,9 C 20,4 C 9,7 km/h (2 Bft) 100,00 %
22.08.2017 18:06 20,4 C 22,2 C 50 % 1017,7 hPa 0,0 l/m 6,2 km/h (2 Bft) W 261 2 min 0,000 mm 0,5 UV-I 187 W/m 9,6 C 20,4 C 17,7 km/h (3 Bft) 96,00 %
22.08.2017 18:08 20,3 C 22,2 C 50 % 1017,7 hPa 0,0 l/m 3,0 km/h (1 Bft) W 280 0 min 0,000 mm 0,5 UV-I 159 W/m 9,5 C 20,3 C 6,4 km/h (2 Bft) 100,00 %
22.08.2017 18:10 20,3 C 22,2 C 49 % 1017,7 hPa 0,0 l/m 4,3 km/h (1 Bft) W-NW 294 2 min 0,000 mm 0,5 UV-I 211 W/m 9,2 C 20,3 C 11,3 km/h (2 Bft) 100,00 %
22.08.2017 18:12 20,3 C 22,2 C 49 % 1017,6 hPa 0,0 l/m 4,5 km/h (1 Bft) W-NW 291 2 min 0,000 mm 0,5 UV-I 213 W/m 9,2 C 20,3 C 12,9 km/h (3 Bft) 100,00 %
22.08.2017 18:14 20,3 C 22,2 C 53 % 1017,6 hPa 0,0 l/m 0,9 km/h (0 Bft) W-NW 292 2 min 0,000 mm 0,1 UV-I 203 W/m 10,4 C 20,3 C 3,2 km/h (1 Bft) 100,00 %
22.08.2017 18:16 20,2 C 22,2 C 51 % 1017,6 hPa 0,0 l/m 2,6 km/h (1 Bft) NW 305 2 min 0,000 mm 0,0 UV-I 194 W/m 9,7 C 20,2 C 6,4 km/h (2 Bft) 96,23 %
22.08.2017 18:18 20,2 C 22,2 C 49 % 1017,6 hPa 0,0 l/m 1,3 km/h (1 Bft) N-NW 342 2 min 0,000 mm 0,0 UV-I 186 W/m 9,1 C 20,2 C 4,8 km/h (1 Bft) 97,56 %
22.08.2017 18:20 20,2 C 22,2 C 51 % 1017,7 hPa 0,0 l/m 1,2 km/h (1 Bft) NW 318 2 min 0,000 mm 0,0 UV-I 182 W/m 9,7 C 20,2 C 3,2 km/h (1 Bft) 98,21 %
22.08.2017 18:22 20,2 C 22,2 C 50 % 1017,7 hPa 0,0 l/m 3,8 km/h (1 Bft) N-NW 342 2 min 0,000 mm 0,0 UV-I 178 W/m 9,4 C 20,2 C 9,7 km/h (2 Bft) 95,74 %
22.08.2017 18:24 20,2 C 22,2 C 48 % 1017,6 hPa 0,0 l/m 3,1 km/h (1 Bft) W-NW 292 2 min 0,000 mm 0,0 UV-I 171 W/m 8,8 C 20,2 C 6,4 km/h (2 Bft) 100,00 %
22.08.2017 18:26 20,1 C 22,2 C 50 % 1017,6 hPa 0,0 l/m 2,5 km/h (1 Bft) NW 313 2 min 0,000 mm 0,0 UV-I 165 W/m 9,3 C 20,1 C 6,4 km/h (2 Bft) 96,00 %
22.08.2017 18:28 20,1 C 22,2 C 50 % 1017,6 hPa 0,0 l/m 2,7 km/h (1 Bft) W-SW 238 2 min 0,000 mm 0,0 UV-I 160 W/m 9,3 C 20,1 C 8,0 km/h (2 Bft) 98,08 %
22.08.2017 18:30 20,1 C 22,2 C 49 % 1017,6 hPa 0,0 l/m 3,0 km/h (1 Bft) W-NW 288 2 min 0,000 mm 0,0 UV-I 155 W/m 9,0 C 20,1 C 6,4 km/h (2 Bft) 97,44 %
22.08.2017 18:32 20,0 C 22,2 C 50 % 1017,6 hPa 0,0 l/m 3,5 km/h (1 Bft) W 275 2 min 0,000 mm 0,0 UV-I 145 W/m 9,3 C 20,0 C 6,4 km/h (2 Bft) 98,11 %
22.08.2017 18:34 19,9 C 22,2 C 50 % 1017,6 hPa 0,0 l/m 3,2 km/h (1 Bft) W 269 2 min 0,000 mm 0,0 UV-I 146 W/m 9,2 C 19,9 C 11,3 km/h (2 Bft) 98,00 %
22.08.2017 18:36 19,9 C 22,2 C 50 % 1017,6 hPa 0,0 l/m 3,6 km/h (1 Bft) W 260 2 min 0,000 mm 0,0 UV-I 140 W/m 9,2 C 19,9 C 6,4 km/h (2 Bft) 97,37 %
22.08.2017 18:38 19,9 C 22,2 C 49 % 1017,7 hPa 0,0 l/m 3,9 km/h (1 Bft) W 265 2 min 0,000 mm 0,0 UV-I 131 W/m 8,9 C 19,9 C 8,0 km/h (2 Bft) 98,11 %
22.08.2017 18:40 19,9 C 22,2 C 48 % 1017,6 hPa 0,0 l/m 5,7 km/h (1 Bft) W-SW 246 0 min 0,000 mm 0,0 UV-I 119 W/m 8,6 C 19,9 C 12,9 km/h (3 Bft) 96,00 %
22.08.2017 18:42 19,8 C 22,2 C 49 % 1017,6 hPa 0,0 l/m 3,5 km/h (1 Bft) W-SW 252 2 min 0,000 mm 0,0 UV-I 121 W/m 8,8 C 19,8 C 6,4 km/h (2 Bft) 97,87 %
22.08.2017 18:44 19,8 C 22,2 C 51 % 1017,6 hPa 0,0 l/m 2,5 km/h (1 Bft) W 277 2 min 0,000 mm 0,0 UV-I 127 W/m 9,4 C 19,8 C 4,8 km/h (1 Bft) 95,45 %
22.08.2017 18:46 19,7 C 22,2 C 51 % 1017,6 hPa 0,0 l/m 1,7 km/h (1 Bft) W 277 2 min 0,000 mm 0,0 UV-I 123 W/m 9,3 C 19,7 C 3,2 km/h (1 Bft) 97,56 %
22.08.2017 18:48 19,7 C 22,2 C 52 % 1017,6 hPa 0,0 l/m 5,2 km/h (1 Bft) W-SW 244 0 min 0,000 mm 0,0 UV-I 108 W/m 9,6 C 19,7 C 12,9 km/h (3 Bft) 97,37 %
22.08.2017 18:50 19,7 C 22,2 C 50 % 1017,6 hPa 0,0 l/m 6,0 km/h (2 Bft) W-SW 250 2 min 0,000 mm 0,0 UV-I 115 W/m 9,0 C 19,7 C 12,9 km/h (3 Bft) 100,00 %
22.08.2017 18:52 19,6 C 22,2 C 51 % 1017,7 hPa 0,0 l/m 4,7 km/h (1 Bft) W-SW 239 2 min 0,000 mm 0,0 UV-I 110 W/m 9,2 C 19,6 C 9,7 km/h (2 Bft) 98,21 %
22.08.2017 18:54 19,6 C 22,2 C 51 % 1017,6 hPa 0,0 l/m 5,7 km/h (1 Bft) W-SW 256 0 min 0,000 mm 0,0 UV-I 99 W/m 9,2 C 19,6 C 9,7 km/h (2 Bft) 100,00 %
22.08.2017 18:56 19,6 C 22,2 C 50 % 1017,6 hPa 0,0 l/m 5,7 km/h (1 Bft) SW 227 0 min 0,000 mm 0,0 UV-I 95 W/m 8,9 C 19,6 C 9,7 km/h (2 Bft) 97,87 %
22.08.2017 18:58 19,4 C 22,2 C 50 % 1017,6 hPa 0,0 l/m 4,2 km/h (1 Bft) W 265 0 min 0,000 mm 0,0 UV-I 83 W/m 8,7 C 19,4 C 6,4 km/h (2 Bft) 100,00 %
22.08.2017 19:00 19,4 C 22,2 C 52 % 1017,6 hPa 0,0 l/m 3,8 km/h (1 Bft) W 277 0 min 0,000 mm 0,0 UV-I 74 W/m 9,3 C 19,4 C 6,4 km/h (2 Bft) 98,00 %
22.08.2017 19:02 19,3 C 22,2 C 52 % 1017,6 hPa 0,0 l/m 4,9 km/h (1 Bft) W 263 0 min 0,127 mm 0,0 UV-I 62 W/m 9,2 C 19,3 C 9,7 km/h (2 Bft) 100,00 %
22.08.2017 19:04 19,2 C 22,2 C 52 % 1017,6 hPa 0,0 l/m 5,7 km/h (1 Bft) W-NW 285 0 min 0,000 mm 0,0 UV-I 72 W/m 9,1 C 19,2 C 11,3 km/h (2 Bft) 97,44 %
22.08.2017 19:06 19,1 C 22,2 C 53 % 1017,6 hPa 0,0 l/m 4,0 km/h (1 Bft) W-SW 257 0 min 0,000 mm 0,0 UV-I 66 W/m 9,3 C 19,1 C 8,0 km/h (2 Bft) 100,00 %
22.08.2017 19:08 19,1 C 22,2 C 53 % 1017,6 hPa 0,0 l/m 3,2 km/h (1 Bft) W 275 0 min 0,000 mm 0,0 UV-I 60 W/m 9,3 C 19,1 C 9,7 km/h (2 Bft) 100,00 %
22.08.2017 19:10 18,9 C 22,2 C 53 % 1017,7 hPa 0,0 l/m 4,1 km/h (1 Bft) W 259 0 min 0,000 mm 0,0 UV-I 58 W/m 9,1 C 18,9 C 9,7 km/h (2 Bft) 100,00 %
22.08.2017 19:12 18,9 C 22,2 C 52 % 1017,7 hPa 0,0 l/m 4,1 km/h (1 Bft) W 275 0 min 0,000 mm 0,0 UV-I 62 W/m 8,8 C 18,9 C 6,4 km/h (2 Bft) 100,00 %
22.08.2017 19:14 18,9 C 22,2 C 53 % 1017,7 hPa 0,0 l/m 3,8 km/h (1 Bft) W 275 0 min 0,000 mm 0,0 UV-I 59 W/m 9,1 C 18,9 C 6,4 km/h (2 Bft) 100,00 %
22.08.2017 19:16 18,8 C 22,2 C 54 % 1017,7 hPa 0,0 l/m 3,9 km/h (1 Bft) W 275 0 min 0,000 mm 0,0 UV-I 60 W/m 9,3 C 18,8 C 6,4 km/h (2 Bft) 100,00 %
22.08.2017 19:18 18,8 C 22,2 C 55 % 1017,7 hPa 0,0 l/m 3,2 km/h (1 Bft) W 275 0 min 0,000 mm 0,0 UV-I 56 W/m 9,6 C 18,8 C 4,8 km/h (1 Bft) 97,56 %
22.08.2017 19:20 18,8 C 22,2 C 54 % 1017,7 hPa 0,0 l/m 3,1 km/h (1 Bft) W 275 0 min 0,000 mm 0,0 UV-I 49 W/m 9,3 C 18,8 C 4,8 km/h (1 Bft) 100,00 %
22.08.2017 19:22 18,7 C 22,2 C 55 % 1017,7 hPa 0,0 l/m 3,5 km/h (1 Bft) W 273 0 min 0,000 mm 0,0 UV-I 45 W/m 9,5 C 18,7 C 4,8 km/h (1 Bft) 98,00 %
22.08.2017 19:24 18,7 C 22,2 C 54 % 1017,7 hPa 0,0 l/m 4,8 km/h (1 Bft) W 273 0 min 0,000 mm 0,0 UV-I 45 W/m 9,2 C 18,7 C 9,7 km/h (2 Bft) 98,00 %
22.08.2017 19:26 18,6 C 22,2 C 54 % 1017,7 hPa 0,0 l/m 5,7 km/h (1 Bft) W-SW 248 0 min 0,000 mm 0,0 UV-I 47 W/m 9,1 C 18,6 C 11,3 km/h (2 Bft) 100,00 %
22.08.2017 19:28 18,6 C 22,2 C 55 % 1017,7 hPa 0,0 l/m 4,3 km/h (1 Bft) W-SW 241 0 min 0,000 mm 0,0 UV-I 44 W/m 9,4 C 18,6 C 8,0 km/h (2 Bft) 100,00 %
22.08.2017 19:30 18,6 C 22,2 C 55 % 1017,7 hPa 0,0 l/m 3,0 km/h (1 Bft) W-SW 241 0 min 0,000 mm 0,0 UV-I 41 W/m 9,4 C 18,6 C 6,4 km/h (2 Bft) 96,00 %
22.08.2017 19:32 18,6 C 22,2 C 56 % 1017,7 hPa 0,0 l/m 5,1 km/h (1 Bft) W-SW 241 0 min 0,000 mm 0,0 UV-I 38 W/m 9,6 C 18,6 C 8,0 km/h (2 Bft) 97,56 %
22.08.2017 19:34 18,5 C 22,2 C 55 % 1017,7 hPa 0,0 l/m 5,0 km/h (1 Bft) W-SW 240 0 min 0,000 mm 0,0 UV-I 35 W/m 9,3 C 18,5 C 6,4 km/h (2 Bft) 96,00 %
22.08.2017 19:36 18,4 C 22,2 C 56 % 1017,7 hPa 0,0 l/m 3,4 km/h (1 Bft) W-SW 240 0 min 0,000 mm 0,0 UV-I 33 W/m 9,5 C 18,4 C 4,8 km/h (1 Bft) 98,00 %
22.08.2017 19:38 18,4 C 22,2 C 57 % 1017,7 hPa 0,0 l/m 2,1 km/h (1 Bft) W-SW 240 0 min 0,000 mm 0,0 UV-I 30 W/m 9,7 C 18,4 C 4,8 km/h (1 Bft) 100,00 %
22.08.2017 19:40 18,3 C 22,2 C 57 % 1017,7 hPa 0,0 l/m 0,6 km/h (0 Bft) W-SW 240 0 min 0,000 mm 0,0 UV-I 29 W/m 9,6 C 18,3 C 3,2 km/h (1 Bft) 100,00 %
22.08.2017 19:42 18,2 C 22,2 C 58 % 1017,7 hPa 0,0 l/m 1,4 km/h (1 Bft) W-SW 240 2 min 0,000 mm 0,0 UV-I 26 W/m 9,8 C 18,2 C 3,2 km/h (1 Bft) 100,00 %
22.08.2017 19:44 18,1 C 22,2 C 58 % 1017,7 hPa 0,0 l/m 0,0 km/h (0 Bft) W-SW 240 2 min 0,000 mm 0,0 UV-I 26 W/m 9,7 C 18,1 C 0,0 km/h (0 Bft) 100,00 %
22.08.2017 19:46 18,0 C 22,2 C 59 % 1017,8 hPa 0,0 l/m 0,3 km/h (0 Bft) W-SW 240 2 min 0,000 mm 0,0 UV-I 24 W/m 9,9 C 18,0 C 1,6 km/h (1 Bft) 100,00 %
22.08.2017 19:48 17,9 C 22,2 C 60 % 1017,8 hPa 0,0 l/m 3,0 km/h (1 Bft) W-SW 240 2 min 0,000 mm 0,0 UV-I 22 W/m 10,0 C 17,9 C 4,8 km/h (1 Bft) 100,00 %
22.08.2017 19:50 17,8 C 22,2 C 62 % 1017,7 hPa 0,0 l/m 2,7 km/h (1 Bft) W-SW 240 2 min 0,000 mm 0,0 UV-I 20 W/m 10,4 C 17,8 C 4,8 km/h (1 Bft) 100,00 %
22.08.2017 19:52 17,7 C 22,2 C 64 % 1017,7 hPa 0,0 l/m 2,1 km/h (1 Bft) W-SW 240 2 min 0,000 mm 0,0 UV-I 19 W/m 10,8 C 17,7 C 3,2 km/h (1 Bft) 98,75 %
22.08.2017 19:54 17,6 C 22,2 C 65 % 1017,7 hPa 0,0 l/m 1,5 km/h (1 Bft) W-SW 240 0 min 0,000 mm 0,0 UV-I 18 W/m 10,9 C 17,6 C 3,2 km/h (1 Bft) 100,00 %
22.08.2017 19:56 17,4 C 22,2 C 66 % 1017,7 hPa 0,0 l/m 0,2 km/h (0 Bft) W-SW 240 0 min 0,000 mm 0,0 UV-I 16 W/m 11,0 C 17,4 C 1,6 km/h (1 Bft) 100,00 %
22.08.2017 19:58 17,2 C 22,2 C 64 % 1017,7 hPa 0,0 l/m 0,2 km/h (0 Bft) W-SW 240 0 min 0,000 mm 0,0 UV-I 14 W/m 10,3 C 17,2 C 1,6 km/h (1 Bft) 97,37 %
22.08.2017 20:00 17,1 C 22,2 C 69 % 1017,7 hPa 0,0 l/m 0,0 km/h (0 Bft) W-SW 240 0 min 0,051 mm 0,0 UV-I 13 W/m 11,4 C 17,1 C 0,0 km/h (0 Bft) 97,87 %
22.08.2017 20:02 16,9 C 22,2 C 70 % 1017,8 hPa 0,0 l/m 0,0 km/h (0 Bft) W-SW 240 0 min 0,000 mm 0,0 UV-I 12 W/m 11,4 C 16,9 C 1,6 km/h (1 Bft) 100,00 %
22.08.2017 20:04 16,7 C 22,2 C 70 % 1017,7 hPa 0,0 l/m 0,2 km/h (0 Bft) W-SW 240 0 min 0,000 mm 0,0 UV-I 11 W/m 11,2 C 16,7 C 1,6 km/h (1 Bft) 100,00 %
22.08.2017 20:06 16,5 C 22,2 C 68 % 1017,8 hPa 0,0 l/m 0,9 km/h (0 Bft) W-SW 240 0 min 0,000 mm 0,0 UV-I 9 W/m 10,6 C 16,5 C 3,2 km/h (1 Bft) 100,00 %
22.08.2017 20:08 16,4 C 22,2 C 70 % 1017,8 hPa 0,0 l/m 0,6 km/h (0 Bft) W-SW 240 0 min 0,000 mm 0,0 UV-I 9 W/m 10,9 C 16,4 C 1,6 km/h (1 Bft) 100,00 %
22.08.2017 20:10 16,4 C 22,2 C 70 % 1017,8 hPa 0,0 l/m 0,3 km/h (0 Bft) W-SW 240 0 min 0,000 mm 0,0 UV-I 10 W/m 10,9 C 16,4 C 1,6 km/h (1 Bft) 100,00 %
22.08.2017 20:12 16,3 C 22,2 C 72 % 1017,8 hPa 0,0 l/m 0,1 km/h (0 Bft) W-SW 240 0 min 0,000 mm 0,0 UV-I 11 W/m 11,2 C 16,3 C 1,6 km/h (1 Bft) 97,56 %
22.08.2017 20:14 16,2 C 22,2 C 73 % 1017,8 hPa 0,0 l/m 1,1 km/h (1 Bft) W-SW 240 0 min 0,000 mm 0,0 UV-I 11 W/m 11,4 C 16,2 C 3,2 km/h (1 Bft) 100,00 %
22.08.2017 20:16 16,1 C 22,2 C 73 % 1017,8 hPa 0,0 l/m 0,2 km/h (0 Bft) W-SW 240 0 min 0,000 mm 0,0 UV-I 9 W/m 11,3 C 16,1 C 1,6 km/h (1 Bft) 100,00 %
22.08.2017 20:18 16,0 C 22,2 C 73 % 1017,9 hPa 0,0 l/m 1,7 km/h (1 Bft) W-SW 240 0 min 0,000 mm 0,0 UV-I 0 W/m 11,2 C 16,0 C 3,2 km/h (1 Bft) 97,56 %
22.08.2017 20:20 15,9 C 22,2 C 73 % 1017,9 hPa 0,0 l/m 2,3 km/h (1 Bft) W-SW 240 0 min 0,000 mm 0,0 UV-I 0 W/m 11,1 C 15,9 C 3,2 km/h (1 Bft) 95,74 %
22.08.2017 20:22 15,8 C 22,2 C 74 % 1017,8 hPa 0,0 l/m 1,8 km/h (1 Bft) W-SW 240 0 min 0,000 mm 0,0 UV-I 5 W/m 11,2 C 15,8 C 3,2 km/h (1 Bft) 98,00 %
22.08.2017 20:24 15,7 C 22,2 C 74 % 1017,9 hPa 0,0 l/m 2,7 km/h (1 Bft) W-SW 240 0 min 0,000 mm 0,0 UV-I 3 W/m 11,1 C 15,7 C 4,8 km/h (1 Bft) 98,00 %
22.08.2017 20:26 15,6 C 22,2 C 73 % 1017,9 hPa 0,0 l/m 2,0 km/h (1 Bft) W-SW 240 0 min 0,000 mm 0,0 UV-I 0 W/m 10,8 C 15,6 C 3,2 km/h (1 Bft) 94,44 %
22.08.2017 20:28 15,6 C 22,2 C 74 % 1018,0 hPa 0,0 l/m 1,7 km/h (1 Bft) W-SW 240 0 min 0,000 mm 0,0 UV-I 0 W/m 11,0 C 15,6 C 3,2 km/h (1 Bft) 96,00 %
22.08.2017 20:30 15,6 C 22,2 C 75 % 1017,9 hPa 0,0 l/m 1,8 km/h (1 Bft) W-SW 240 0 min 0,000 mm 0,0 UV-I 0 W/m 11,2 C 15,6 C 3,2 km/h (1 Bft) 97,73 %
22.08.2017 20:32 15,6 C 22,2 C 73 % 1017,9 hPa 0,0 l/m 1,3 km/h (1 Bft) W-SW 240 0 min 0,000 mm 0,0 UV-I 0 W/m 10,8 C 15,6 C 3,2 km/h (1 Bft) 98,11 %
22.08.2017 20:34 15,5 C 22,2 C 74 % 1018,0 hPa 0,0 l/m 1,4 km/h (1 Bft) W-SW 240 0 min 0,000 mm 0,0 UV-I 0 W/m 10,9 C 15,5 C 3,2 km/h (1 Bft) 94,00 %
22.08.2017 20:36 15,4 C 22,2 C 74 % 1018,0 hPa 0,0 l/m 2,7 km/h (1 Bft) W-SW 240 0 min 0,000 mm 0,0 UV-I 0 W/m 10,8 C 15,4 C 4,8 km/h (1 Bft) 98,00 %
22.08.2017 20:38 15,2 C 22,2 C 75 % 1018,0 hPa 0,0 l/m 1,5 km/h (1 Bft) W-SW 240 0 min 0,000 mm 0,0 UV-I 0 W/m 10,8 C 15,2 C 3,2 km/h (1 Bft) 97,87 %
22.08.2017 20:40 15,1 C 22,2 C 77 % 1018,0 hPa 0,0 l/m 1,4 km/h (1 Bft) W-SW 240 0 min 0,000 mm 0,0 UV-I 0 W/m 11,1 C 15,1 C 3,2 km/h (1 Bft) 97,87 %
22.08.2017 20:42 15,0 C 22,2 C 77 % 1018,0 hPa 0,0 l/m 1,9 km/h (1 Bft) W-SW 240 0 min 0,000 mm 0,0 UV-I 0 W/m 11,0 C 15,0 C 4,8 km/h (1 Bft) 97,56 %
22.08.2017 20:44 14,9 C 22,2 C 76 % 1018,0 hPa 0,0 l/m 0,1 km/h (0 Bft) W-SW 240 0 min 0,000 mm 0,0 UV-I 0 W/m 10,7 C 14,9 C 1,6 km/h (1 Bft) 98,00 %
22.08.2017 20:46 14,9 C 22,2 C 77 % 1018,1 hPa 0,0 l/m 2,6 km/h (1 Bft) W-SW 240 0 min 0,000 mm 0,0 UV-I 0 W/m 10,9 C 14,9 C 6,4 km/h (2 Bft) 97,56 %
22.08.2017 20:48 14,8 C 21,7 C 78 % 1018,0 hPa 0,0 l/m 4,8 km/h (1 Bft) S 187 0 min 0,000 mm 0,0 UV-I 0 W/m 11,0 C 14,8 C 8,0 km/h (2 Bft) 97,87 %
22.08.2017 20:50 14,8 C 22,2 C 77 % 1018,1 hPa 0,0 l/m 2,0 km/h (1 Bft) S 187 0 min 0,000 mm 0,0 UV-I 0 W/m 10,8 C 14,8 C 3,2 km/h (1 Bft) 96,00 %
22.08.2017 20:52 14,9 C 21,7 C 76 % 1018,2 hPa 0,0 l/m 3,0 km/h (1 Bft) S 187 0 min 0,000 mm 0,0 UV-I 0 W/m 10,7 C 14,9 C 4,8 km/h (1 Bft) 96,00 %
22.08.2017 20:54 15,1 C 21,7 C 74 % 1018,2 hPa 0,0 l/m 3,0 km/h (1 Bft) S 187 0 min 0,000 mm 0,0 UV-I 0 W/m 10,5 C 15,1 C 6,4 km/h (2 Bft) 97,37 %
22.08.2017 20:56 15,2 C 21,7 C 75 % 1018,3 hPa 0,0 l/m 1,4 km/h (1 Bft) S 187 0 min 0,000 mm 0,0 UV-I 0 W/m 10,8 C 15,2 C 4,8 km/h (1 Bft) 98,00 %
22.08.2017 20:58 15,3 C 22,2 C 73 % 1018,3 hPa 0,0 l/m 2,0 km/h (1 Bft) S 187 0 min 0,000 mm 0,0 UV-I 0 W/m 10,5 C 15,3 C 4,8 km/h (1 Bft) 96,23 %
22.08.2017 21:00 15,4 C 21,7 C 72 % 1018,3 hPa 0,0 l/m 3,1 km/h (1 Bft) S 187 0 min 0,000 mm 0,0 UV-I 0 W/m 10,4 C 15,4 C 4,8 km/h (1 Bft) 97,87 %
22.08.2017 21:02 15,6 C 21,7 C 72 % 1018,3 hPa 0,0 l/m 0,9 km/h (0 Bft) S 187 0 min 0,025 mm 0,0 UV-I 0 W/m 10,6 C 15,6 C 3,2 km/h (1 Bft) 95,74 %
22.08.2017 21:04 15,6 C 21,7 C 72 % 1018,3 hPa 0,0 l/m 1,8 km/h (1 Bft) S 187 0 min 0,000 mm 0,0 UV-I 0 W/m 10,6 C 15,6 C 3,2 km/h (1 Bft) 97,44 %
22.08.2017 21:06 15,7 C 21,7 C 71 % 1018,3 hPa 0,0 l/m 1,2 km/h (1 Bft) S 187 0 min 0,000 mm 0,0 UV-I 0 W/m 10,5 C 15,7 C 3,2 km/h (1 Bft) 95,74 %
22.08.2017 21:08 15,7 C 21,7 C 70 % 1018,3 hPa 0,0 l/m 5,5 km/h (1 Bft) S-SW 204 0 min 0,000 mm 0,0 UV-I 0 W/m 10,2 C 15,7 C 8,0 km/h (2 Bft) 97,87 %
22.08.2017 21:10 15,8 C 21,7 C 69 % 1018,3 hPa 0,0 l/m 3,8 km/h (1 Bft) S-SW 205 0 min 0,000 mm 0,0 UV-I 0 W/m 10,1 C 15,8 C 6,4 km/h (2 Bft) 96,23 %
22.08.2017 21:12 15,8 C 21,7 C 69 % 1018,4 hPa 0,0 l/m 4,3 km/h (1 Bft) S-SW 205 0 min 0,000 mm 0,0 UV-I 0 W/m 10,1 C 15,8 C 6,4 km/h (2 Bft) 95,12 %
22.08.2017 21:14 15,9 C 21,7 C 70 % 1018,3 hPa 0,0 l/m 3,7 km/h (1 Bft) S-SW 205 0 min 0,000 mm 0,0 UV-I 0 W/m 10,4 C 15,9 C 4,8 km/h (1 Bft) 95,74 %
22.08.2017 21:16 15,9 C 21,7 C 70 % 1018,3 hPa 0,0 l/m 4,9 km/h (1 Bft) S-SW 205 0 min 0,000 mm 0,0 UV-I 0 W/m 10,4 C 15,9 C 8,0 km/h (2 Bft) 97,73 %
22.08.2017 21:18 15,9 C 21,7 C 70 % 1018,3 hPa 0,0 l/m 3,8 km/h (1 Bft) S-SW 202 0 min 0,000 mm 0,0 UV-I 0 W/m 10,4 C 15,9 C 8,0 km/h (2 Bft) 97,87 %
22.08.2017 21:20 15,8 C 21,7 C 70 % 1018,3 hPa 0,0 l/m 0,7 km/h (0 Bft) S-SW 202 0 min 0,000 mm 0,0 UV-I 0 W/m 10,3 C 15,8 C 1,6 km/h (1 Bft) 97,87 %
22.08.2017 21:22 15,8 C 21,7 C 70 % 1018,3 hPa 0,0 l/m 3,2 km/h (1 Bft) S-SW 202 0 min 0,000 mm 0,0 UV-I 0 W/m 10,3 C 15,8 C 6,4 km/h (2 Bft) 97,87 %
22.08.2017 21:24 15,8 C 21,7 C 70 % 1018,3 hPa 0,0 l/m 3,3 km/h (1 Bft) S-SW 202 0 min 0,000 mm 0,0 UV-I 0 W/m 10,3 C 15,8 C 4,8 km/h (1 Bft) 94,00 %
22.08.2017 21:26 15,8 C 21,7 C 71 % 1018,4 hPa 0,0 l/m 2,4 km/h (1 Bft) S-SW 202 0 min 0,000 mm 0,0 UV-I 0 W/m 10,6 C 15,8 C 4,8 km/h (1 Bft) 97,37 %
22.08.2017 21:28 15,7 C 21,7 C 72 % 1018,3 hPa 0,0 l/m 1,4 km/h (1 Bft) S-SW 202 0 min 0,000 mm 0,0 UV-I 0 W/m 10,7 C 15,7 C 3,2 km/h (1 Bft) 98,11 %
22.08.2017 21:30 15,6 C 21,7 C 72 % 1018,3 hPa 0,0 l/m 1,2 km/h (1 Bft) S-SW 202 0 min 0,000 mm 0,0 UV-I 0 W/m 10,6 C 15,6 C 1,6 km/h (1 Bft) 97,22 %
22.08.2017 21:32 15,4 C 21,7 C 73 % 1018,3 hPa 0,0 l/m 1,9 km/h (1 Bft) S-SW 202 0 min 0,000 mm 0,0 UV-I 0 W/m 10,6 C 15,4 C 3,2 km/h (1 Bft) 97,01 %
22.08.2017 21:34 15,3 C 21,7 C 74 % 1018,3 hPa 0,0 l/m 0,7 km/h (0 Bft) S-SW 202 0 min 0,000 mm 0,0 UV-I 0 W/m 10,7 C 15,3 C 3,2 km/h (1 Bft) 97,73 %
22.08.2017 21:36 15,2 C 21,7 C 73 % 1018,3 hPa 0,0 l/m 1,7 km/h (1 Bft) S-SW 202 0 min 0,000 mm 0,0 UV-I 0 W/m 10,4 C 15,2 C 4,8 km/h (1 Bft) 98,00 %
22.08.2017 21:38 15,1 C 21,7 C 73 % 1018,3 hPa 0,0 l/m 2,1 km/h (1 Bft) S-SW 202 0 min 0,000 mm 0,0 UV-I 0 W/m 10,3 C 15,1 C 3,2 km/h (1 Bft) 97,56 %
22.08.2017 21:40 15,1 C 21,7 C 73 % 1018,3 hPa 0,0 l/m 2,8 km/h (1 Bft) S-SW 198 0 min 0,000 mm 0,0 UV-I 0 W/m 10,3 C 15,1 C 4,8 km/h (1 Bft) 100,00 %
22.08.2017 21:42 15,1 C 21,7 C 73 % 1018,3 hPa 0,0 l/m 2,5 km/h (1 Bft) S 190 0 min 0,000 mm 0,0 UV-I 0 W/m 10,3 C 15,1 C 6,4 km/h (2 Bft) 96,92 %
22.08.2017 21:44 15,1 C 21,7 C 73 % 1018,3 hPa 0,0 l/m 2,3 km/h (1 Bft) S 190 0 min 0,000 mm 0,0 UV-I 0 W/m 10,3 C 15,1 C 4,8 km/h (1 Bft) 98,08 %
22.08.2017 21:46 15,1 C 21,7 C 73 % 1018,2 hPa 0,0 l/m 2,9 km/h (1 Bft) S 190 0 min 0,000 mm 0,0 UV-I 0 W/m 10,3 C 15,1 C 4,8 km/h (1 Bft) 97,22 %
22.08.2017 21:48 15,1 C 21,7 C 74 % 1018,3 hPa 0,0 l/m 3,1 km/h (1 Bft) S 190 0 min 0,000 mm 0,0 UV-I 0 W/m 10,5 C 15,1 C 4,8 km/h (1 Bft) 98,08 %
22.08.2017 21:50 15,0 C 21,7 C 74 % 1018,3 hPa 0,0 l/m 3,0 km/h (1 Bft) S 190 0 min 0,000 mm 0,0 UV-I 0 W/m 10,4 C 15,0 C 4,8 km/h (1 Bft) 98,00 %
22.08.2017 21:52 14,9 C 21,7 C 74 % 1018,3 hPa 0,0 l/m 3,2 km/h (1 Bft) S 190 0 min 0,000 mm 0,0 UV-I 0 W/m 10,3 C 14,9 C 6,4 km/h (2 Bft) 97,87 %
22.08.2017 21:54 14,9 C 21,7 C 74 % 1018,2 hPa 0,0 l/m 3,2 km/h (1 Bft) S 190 0 min 0,000 mm 0,0 UV-I 0 W/m 10,3 C 14,9 C 6,4 km/h (2 Bft) 97,56 %
22.08.2017 21:56 14,9 C 21,7 C 74 % 1018,2 hPa 0,0 l/m 3,2 km/h (1 Bft) S 190 0 min 0,000 mm 0,0 UV-I 0 W/m 10,3 C 14,9 C 6,4 km/h (2 Bft) 97,87 %
22.08.2017 21:58 14,8 C 21,7 C 75 % 1018,2 hPa 0,0 l/m 3,2 km/h (1 Bft) S 190 0 min 0,000 mm 0,0 UV-I 0 W/m 10,4 C 14,8 C 6,4 km/h (2 Bft) 100,00 %
22.08.2017 22:00 14,8 C 21,7 C 75 % 1018,2 hPa 0,0 l/m 2,8 km/h (1 Bft) S 190 0 min 0,000 mm 0,0 UV-I 0 W/m 10,4 C 14,8 C 4,8 km/h (1 Bft) 100,00 %
22.08.2017 22:02 14,8 C 21,7 C 75 % 1018,2 hPa 0,0 l/m 2,5 km/h (1 Bft) S 190 0 min 0,025 mm 0,0 UV-I 0 W/m 10,4 C 14,8 C 3,2 km/h (1 Bft) 96,00 %
22.08.2017 22:04 14,7 C 21,7 C 76 % 1018,2 hPa 0,0 l/m 3,0 km/h (1 Bft) S 190 0 min 0,000 mm 0,0 UV-I 0 W/m 10,5 C 14,7 C 4,8 km/h (1 Bft) 100,00 %
22.08.2017 22:06 14,7 C 21,7 C 76 % 1018,2 hPa 0,0 l/m 2,9 km/h (1 Bft) S 190 0 min 0,000 mm 0,0 UV-I 0 W/m 10,5 C 14,7 C 6,4 km/h (2 Bft) 100,00 %
22.08.2017 22:08 14,7 C 21,7 C 76 % 1018,2 hPa 0,0 l/m 2,8 km/h (1 Bft) S 190 0 min 0,000 mm 0,0 UV-I 0 W/m 10,5 C 14,7 C 4,8 km/h (1 Bft) 100,00 %
22.08.2017 22:10 14,6 C 21,7 C 76 % 1018,2 hPa 0,0 l/m 3,1 km/h (1 Bft) S 190 0 min 0,000 mm 0,0 UV-I 0 W/m 10,4 C 14,6 C 4,8 km/h (1 Bft) 100,00 %
22.08.2017 22:12 14,6 C 21,7 C 76 % 1018,2 hPa 0,0 l/m 4,0 km/h (1 Bft) S 190 0 min 0,000 mm 0,0 UV-I 0 W/m 10,4 C 14,6 C 6,4 km/h (2 Bft) 100,00 %
22.08.2017 22:14 14,6 C 21,7 C 77 % 1018,2 hPa 0,0 l/m 3,8 km/h (1 Bft) S 190 0 min 0,000 mm 0,0 UV-I 0 W/m 10,6 C 14,6 C 4,8 km/h (1 Bft) 100,00 %
22.08.2017 22:16 14,5 C 21,7 C 77 % 1018,2 hPa 0,0 l/m 3,1 km/h (1 Bft) S 190 0 min 0,000 mm 0,0 UV-I 0 W/m 10,5 C 14,5 C 6,4 km/h (2 Bft) 100,00 %
22.08.2017 22:18 14,4 C 21,7 C 77 % 1018,2 hPa 0,0 l/m 2,6 km/h (1 Bft) S 190 0 min 0,000 mm 0,0 UV-I 0 W/m 10,4 C 14,4 C 4,8 km/h (1 Bft) 100,00 %
22.08.2017 22:20 14,4 C 21,7 C 78 % 1018,2 hPa 0,0 l/m 4,0 km/h (1 Bft) S 190 0 min 0,000 mm 0,0 UV-I 0 W/m 10,6 C 14,4 C 6,4 km/h (2 Bft) 100,00 %
22.08.2017 22:22 14,3 C 21,7 C 78 % 1018,1 hPa 0,0 l/m 4,1 km/h (1 Bft) S 190 0 min 0,000 mm 0,0 UV-I 0 W/m 10,5 C 14,3 C 6,4 km/h (2 Bft) 100,00 %
22.08.2017 22:24 14,3 C 21,7 C 78 % 1018,2 hPa 0,0 l/m 3,5 km/h (1 Bft) S 190 0 min 0,000 mm 0,0 UV-I 0 W/m 10,5 C 14,3 C 6,4 km/h (2 Bft) 95,92 %
22.08.2017 22:26 14,3 C 21,7 C 78 % 1018,2 hPa 0,0 l/m 2,6 km/h (1 Bft) S 190 0 min 0,000 mm 0,0 UV-I 0 W/m 10,5 C 14,3 C 6,4 km/h (2 Bft) 97,44 %
22.08.2017 22:28 14,3 C 21,7 C 79 % 1018,2 hPa 0,0 l/m 3,7 km/h (1 Bft) S 190 0 min 0,000 mm 0,0 UV-I 0 W/m 10,7 C 14,3 C 8,0 km/h (2 Bft) 96,00 %
22.08.2017 22:30 14,2 C 21,7 C 79 % 1018,2 hPa 0,0 l/m 3,2 km/h (1 Bft) S 190 0 min 0,000 mm 0,0 UV-I 0 W/m 10,6 C 14,2 C 6,4 km/h (2 Bft) 97,87 %
22.08.2017 22:32 14,2 C 21,7 C 78 % 1018,2 hPa 0,0 l/m 3,4 km/h (1 Bft) S 190 0 min 0,000 mm 0,0 UV-I 0 W/m 10,4 C 14,2 C 6,4 km/h (2 Bft) 98,00 %
22.08.2017 22:34 14,2 C 21,7 C 79 % 1018,2 hPa 0,0 l/m 4,4 km/h (1 Bft) S 187 0 min 0,000 mm 0,0 UV-I 0 W/m 10,6 C 14,2 C 8,0 km/h (2 Bft) 97,87 %
22.08.2017 22:36 14,2 C 21,7 C 79 % 1018,2 hPa 0,0 l/m 4,2 km/h (1 Bft) S 187 0 min 0,000 mm 0,0 UV-I 0 W/m 10,6 C 14,2 C 8,0 km/h (2 Bft) 97,87 %
22.08.2017 22:38 14,2 C 21,7 C 79 % 1018,2 hPa 0,0 l/m 4,5 km/h (1 Bft) S 187 0 min 0,000 mm 0,0 UV-I 0 W/m 10,6 C 14,2 C 6,4 km/h (2 Bft) 98,00 %
22.08.2017 22:40 14,2 C 21,7 C 79 % 1018,3 hPa 0,0 l/m 4,5 km/h (1 Bft) S 188 0 min 0,000 mm 0,0 UV-I 0 W/m 10,6 C 14,2 C 8,0 km/h (2 Bft) 97,37 %
22.08.2017 22:42 14,1 C 21,7 C 79 % 1018,3 hPa 0,0 l/m 4,3 km/h (1 Bft) S 188 0 min 0,000 mm 0,0 UV-I 0 W/m 10,5 C 14,1 C 6,4 km/h (2 Bft) 98,11 %
22.08.2017 22:44 14,1 C 21,7 C 79 % 1018,3 hPa 0,0 l/m 4,4 km/h (1 Bft) S 188 0 min 0,000 mm 0,0 UV-I 0 W/m 10,5 C 14,1 C 6,4 km/h (2 Bft) 97,56 %
22.08.2017 22:46 14,1 C 21,7 C 80 % 1018,3 hPa 0,0 l/m 3,3 km/h (1 Bft) S 188 0 min 0,000 mm 0,0 UV-I 0 W/m 10,7 C 14,1 C 4,8 km/h (1 Bft) 96,23 %
22.08.2017 22:48 14,0 C 21,7 C 80 % 1018,3 hPa 0,0 l/m 4,3 km/h (1 Bft) S 188 0 min 0,000 mm 0,0 UV-I 0 W/m 10,6 C 14,0 C 6,4 km/h (2 Bft) 97,87 %
22.08.2017 22:50 14,0 C 21,7 C 80 % 1018,3 hPa 0,0 l/m 4,3 km/h (1 Bft) S 187 0 min 0,000 mm 0,0 UV-I 0 W/m 10,6 C 14,0 C 8,0 km/h (2 Bft) 97,14 %
22.08.2017 22:52 14,0 C 21,7 C 80 % 1018,2 hPa 0,0 l/m 4,0 km/h (1 Bft) S 187 0 min 0,000 mm 0,0 UV-I 0 W/m 10,6 C 14,0 C 4,8 km/h (1 Bft) 98,21 %
22.08.2017 22:54 14,0 C 21,7 C 79 % 1018,3 hPa 0,0 l/m 4,5 km/h (1 Bft) S 186 0 min 0,000 mm 0,0 UV-I 0 W/m 10,4 C 14,0 C 6,4 km/h (2 Bft) 98,00 %
22.08.2017 22:56 14,0 C 21,7 C 79 % 1018,2 hPa 0,0 l/m 4,6 km/h (1 Bft) S 186 0 min 0,000 mm 0,0 UV-I 0 W/m 10,4 C 14,0 C 6,4 km/h (2 Bft) 97,37 %
22.08.2017 22:58 14,0 C 21,7 C 79 % 1018,2 hPa 0,0 l/m 4,6 km/h (1 Bft) S 186 0 min 0,000 mm 0,0 UV-I 0 W/m 10,4 C 14,0 C 8,0 km/h (2 Bft) 100,00 %
22.08.2017 23:00 14,0 C 21,7 C 79 % 1018,2 hPa 0,0 l/m 4,9 km/h (1 Bft) S-SW 200 0 min 0,000 mm 0,0 UV-I 0 W/m 10,4 C 14,0 C 8,0 km/h (2 Bft) 100,00 %
22.08.2017 23:02 13,9 C 21,7 C 79 % 1018,2 hPa 0,0 l/m 5,0 km/h (1 Bft) S-SW 196 0 min 0,026 mm 0,0 UV-I 0 W/m 10,3 C 13,9 C 6,4 km/h (2 Bft) 100,00 %
22.08.2017 23:04 13,9 C 21,7 C 79 % 1018,2 hPa 0,0 l/m 4,8 km/h (1 Bft) S-SW 196 0 min 0,000 mm 0,0 UV-I 0 W/m 10,3 C 13,9 C 8,0 km/h (2 Bft) 98,00 %
22.08.2017 23:06 13,9 C 21,7 C 79 % 1018,2 hPa 0,0 l/m 5,0 km/h (1 Bft) S-SW 193 0 min 0,000 mm 0,0 UV-I 0 W/m 10,3 C 13,9 C 8,0 km/h (2 Bft) 100,00 %
22.08.2017 23:08 13,9 C 21,7 C 79 % 1018,2 hPa 0,0 l/m 4,5 km/h (1 Bft) S-SW 193 0 min 0,000 mm 0,0 UV-I 0 W/m 10,3 C 13,9 C 8,0 km/h (2 Bft) 100,00 %
22.08.2017 23:10 13,8 C 21,7 C 79 % 1018,2 hPa 0,0 l/m 4,7 km/h (1 Bft) S-SW 193 0 min 0,000 mm 0,0 UV-I 0 W/m 10,2 C 13,8 C 8,0 km/h (2 Bft) 100,00 %
22.08.2017 23:12 13,8 C 21,7 C 79 % 1018,2 hPa 0,0 l/m 5,7 km/h (1 Bft) S-SW 196 0 min 0,000 mm 0,0 UV-I 0 W/m 10,2 C 13,8 C 9,7 km/h (2 Bft) 100,00 %
22.08.2017 23:14 13,8 C 21,7 C 79 % 1018,2 hPa 0,0 l/m 4,7 km/h (1 Bft) S-SW 196 0 min 0,000 mm 0,0 UV-I 0 W/m 10,2 C 13,8 C 6,4 km/h (2 Bft) 98,00 %
22.08.2017 23:16 13,8 C 21,7 C 79 % 1018,2 hPa 0,0 l/m 4,8 km/h (1 Bft) S-SW 196 0 min 0,000 mm 0,0 UV-I 0 W/m 10,2 C 13,8 C 6,4 km/h (2 Bft) 100,00 %
22.08.2017 23:18 13,8 C 21,7 C 79 % 1018,2 hPa 0,0 l/m 4,9 km/h (1 Bft) S-SW 196 0 min 0,000 mm 0,0 UV-I 0 W/m 10,2 C 13,8 C 9,7 km/h (2 Bft) 100,00 %
22.08.2017 23:20 13,8 C 21,7 C 79 % 1018,2 hPa 0,0 l/m 5,6 km/h (1 Bft) S-SW 196 0 min 0,000 mm 0,0 UV-I 0 W/m 10,2 C 13,8 C 9,7 km/h (2 Bft) 100,00 %
22.08.2017 23:22 13,8 C 21,7 C 79 % 1018,2 hPa 0,0 l/m 4,8 km/h (1 Bft) S-SW 196 0 min 0,000 mm 0,0 UV-I 0 W/m 10,2 C 13,8 C 8,0 km/h (2 Bft) 100,00 %
22.08.2017 23:24 13,7 C 21,7 C 79 % 1018,2 hPa 0,0 l/m 4,2 km/h (1 Bft) S-SW 196 0 min 0,000 mm 0,0 UV-I 0 W/m 10,1 C 13,7 C 8,0 km/h (2 Bft) 100,00 %
22.08.2017 23:26 13,7 C 21,7 C 79 % 1018,1 hPa 0,0 l/m 3,6 km/h (1 Bft) S-SW 196 0 min 0,000 mm 0,0 UV-I 0 W/m 10,1 C 13,7 C 6,4 km/h (2 Bft) 98,00 %
22.08.2017 23:28 13,7 C 21,7 C 79 % 1018,1 hPa 0,0 l/m 2,7 km/h (1 Bft) S-SW 212 0 min 0,000 mm 0,0 UV-I 0 W/m 10,1 C 13,7 C 6,4 km/h (2 Bft) 100,00 %
22.08.2017 23:30 13,7 C 21,7 C 79 % 1018,1 hPa 0,0 l/m 3,7 km/h (1 Bft) S-SW 211 0 min 0,000 mm 0,0 UV-I 0 W/m 10,1 C 13,7 C 4,8 km/h (1 Bft) 98,00 %
22.08.2017 23:32 13,7 C 21,7 C 79 % 1018,1 hPa 0,0 l/m 3,1 km/h (1 Bft) S-SW 211 0 min 0,000 mm 0,0 UV-I 0 W/m 10,1 C 13,7 C 6,4 km/h (2 Bft) 97,87 %
22.08.2017 23:34 13,6 C 21,7 C 79 % 1018,1 hPa 0,0 l/m 4,7 km/h (1 Bft) S-SW 211 0 min 0,000 mm 0,0 UV-I 0 W/m 10,0 C 13,6 C 6,4 km/h (2 Bft) 100,00 %
22.08.2017 23:36 13,6 C 21,7 C 80 % 1018,0 hPa 0,0 l/m 4,8 km/h (1 Bft) S-SW 211 0 min 0,000 mm 0,0 UV-I 0 W/m 10,2 C 13,6 C 6,4 km/h (2 Bft) 97,87 %
22.08.2017 23:38 13,6 C 21,7 C 80 % 1018,0 hPa 0,0 l/m 3,7 km/h (1 Bft) S-SW 211 0 min 0,000 mm 0,0 UV-I 0 W/m 10,2 C 13,6 C 6,4 km/h (2 Bft) 100,00 %
22.08.2017 23:40 13,6 C 21,7 C 80 % 1018,1 hPa 0,0 l/m 4,7 km/h (1 Bft) S-SW 211 0 min 0,000 mm 0,0 UV-I 0 W/m 10,2 C 13,6 C 8,0 km/h (2 Bft) 100,00 %
22.08.2017 23:42 13,5 C 21,7 C 80 % 1018,1 hPa 0,0 l/m 3,4 km/h (1 Bft) S-SW 211 0 min 0,000 mm 0,0 UV-I 0 W/m 10,1 C 13,5 C 6,4 km/h (2 Bft) 100,00 %
22.08.2017 23:44 13,4 C 21,7 C 80 % 1018,1 hPa 0,0 l/m 3,2 km/h (1 Bft) S-SW 211 0 min 0,000 mm 0,0 UV-I 0 W/m 10,0 C 13,4 C 4,8 km/h (1 Bft) 100,00 %
22.08.2017 23:46 13,4 C 21,7 C 80 % 1018,1 hPa 0,0 l/m 3,9 km/h (1 Bft) S-SW 211 0 min 0,000 mm 0,0 UV-I 0 W/m 10,0 C 13,4 C 6,4 km/h (2 Bft) 97,87 %
22.08.2017 23:48 13,3 C 21,7 C 81 % 1018,1 hPa 0,0 l/m 4,9 km/h (1 Bft) S-SW 211 0 min 0,000 mm 0,0 UV-I 0 W/m 10,1 C 13,3 C 8,0 km/h (2 Bft) 100,00 %
22.08.2017 23:50 13,3 C 21,7 C 81 % 1018,1 hPa 0,0 l/m 3,7 km/h (1 Bft) S-SW 211 0 min 0,000 mm 0,0 UV-I 0 W/m 10,1 C 13,3 C 6,4 km/h (2 Bft) 100,00 %
22.08.2017 23:52 13,3 C 21,7 C 81 % 1018,1 hPa 0,0 l/m 4,2 km/h (1 Bft) S-SW 211 0 min 0,000 mm 0,0 UV-I 0 W/m 10,1 C 13,3 C 6,4 km/h (2 Bft) 100,00 %
22.08.2017 23:54 13,2 C 21,7 C 81 % 1018,1 hPa 0,0 l/m 4,2 km/h (1 Bft) S-SW 211 0 min 0,000 mm 0,0 UV-I 0 W/m 10,0 C 13,2 C 6,4 km/h (2 Bft) 100,00 %
22.08.2017 23:56 13,2 C 21,7 C 81 % 1018,2 hPa 0,0 l/m 3,8 km/h (1 Bft) S-SW 211 0 min 0,000 mm 0,0 UV-I 0 W/m 10,0 C 13,2 C 6,4 km/h (2 Bft) 100,00 %
22.08.2017 23:58 13,2 C 21,7 C 81 % 1018,1 hPa 0,0 l/m 4,4 km/h (1 Bft) S-SW 211 0 min 0,000 mm 0,0 UV-I 0 W/m 10,0 C 13,2 C 8,0 km/h (2 Bft) 100,00 %
_ Min-Zeit 06:32 04:26 15:06 17:30 - 04:04 - - - - - - 06:32 06:32 04:04 02:50
Minimum _ 8,2 C 20,6 C 42 % 1017,6 hPa - 0,0 km/h (0 Bft) - - - - - - 7,3 C 8,2 C 0,0 km/h (0 Bft) 90,57 %
_ Max-Zeit 15:36 15:04 06:38 00:00 00:00 12:50 - - 12:30 14:00 13:34 13:28 10:52 15:36 12:48 00:00
Maximum _ 21,6 C 22,2 C 95 % 1022,2 hPa 0,0 l/m 10,3 km/h
W-SW (2 Bft)
- - 4 min 0,483 mm 5,2 UV-I 901 W/m 12,3 C 21,6 C 19,3 km/h
W-SW (3 Bft)
100,00 %
Durchschnitt _ 15,1 C 21,4 C 72 % 1020,0 hPa #0,0 l/m 3,2 km/h (1 Bft) S-SW - #12:10 h #3,734 mm 2,8 UV-I 422 W/m 9,7 C 15,1 C 6,1 km/h (2 Bft) 98,20 %